GFSWCAN_prec_precacc24_102.txt.gz
Total_Precipitation_Accumulation
0.11 0.11 0.12 0.08 0.04 0.03 0.02 0.03 0.03 0.03 0.04 0.05 0.06 0.05 0.04 0.06 0.16 0.47 0.34 0.07 0.10 0.08 0.01 0.00 0.00 0.01 0.01 0.04 0.09 0.08 0.04 0.22 0.13 0.05 0.02 0.02 0.04 0.03 0.12 0.12 0.10 0.09 0.09 0.05 0.04 0.06 0.04 0.01 0.01 0.05 0.09 0.06 0.03 0.07
0.07 0.06 0.07 0.11 0.07 0.03 0.02 0.03 0.03 0.03 0.03 0.02 0.03 0.04 0.04 0.06 0.12 0.40 0.50 0.16 0.17 0.18 0.02 0.00 0.00 0.00 0.00 0.01 0.04 0.14 0.30 0.27 0.25 0.24 0.11 0.07 0.07 0.07 0.07 0.23 0.16 0.33 0.19 0.12 0.07 0.12 0.17 0.14 0.08 0.09 0.09 0.13 0.15 0.13
0.08 0.07 0.06 0.06 0.07 0.04 0.02 0.03 0.02 0.03 0.04 0.04 0.04 0.06 0.05 0.06 0.10 0.31 0.41 0.21 0.54 0.45 0.08 0.00 0.02 0.01 0.00 0.00 0.01 0.02 0.13 0.23 0.40 0.39 0.24 0.15 0.13 0.10 0.09 0.08 0.20 0.49 0.62 0.65 0.63 0.56 0.27 0.26 0.24 0.10 0.17 0.25 0.22 0.13
0.10 0.07 0.06 0.06 0.06 0.06 0.05 0.04 0.04 0.03 0.04 0.05 0.05 0.06 0.09 0.09 0.14 0.29 0.33 0.16 0.31 0.31 0.07 0.04 0.02 0.00 0.00 0.00 0.00 0.01 0.08 0.13 0.11 0.15 0.16 0.21 0.11 0.11 0.22 0.18 0.23 0.36 0.49 0.61 0.97 0.69 0.50 0.33 0.75 0.39 0.16 0.12 0.09 0.03
0.11 0.11 0.10 0.09 0.09 0.07 0.06 0.06 0.05 0.05 0.05 0.06 0.07 0.07 0.09 0.16 0.22 0.34 0.34 0.18 0.15 0.23 0.17 0.05 0.04 0.01 0.00 0.00 0.00 0.00 0.00 0.01 0.04 0.07 0.13 0.11 0.10 0.14 0.17 0.36 0.31 0.14 0.36 0.68 0.89 1.06 0.91 0.76 0.74 0.67 0.45 0.27 0.13 0.07
0.15 0.15 0.13 0.09 0.07 0.06 0.05 0.04 0.04 0.05 0.06 0.08 0.10 0.12 0.10 0.25 0.40 0.52 0.87 0.48 0.22 0.29 0.40 0.10 0.07 0.02 0.01 0.00 0.00 0.00 0.01 0.03 0.05 0.10 0.12 0.11 0.11 0.30 0.26 0.50 0.43 0.45 0.29 0.30 0.55 0.73 1.00 0.91 0.56 0.29 0.20 0.12 0.04 0.02
0.15 0.13 0.12 0.09 0.06 0.04 0.04 0.03 0.03 0.04 0.05 0.08 0.13 0.13 0.17 0.29 0.49 0.41 0.23 0.16 0.12 0.30 0.68 0.17 0.08 0.07 0.03 0.03 0.01 0.00 0.02 0.08 0.09 0.11 0.09 0.07 0.13 0.19 0.33 0.24 0.13 0.16 0.09 0.04 0.10 0.16 0.15 0.11 0.09 0.01 0.00 0.00 0.00 0.00
0.12 0.09 0.09 0.08 0.06 0.06 0.05 0.05 0.05 0.06 0.06 0.10 0.23 0.22 0.32 0.66 0.82 0.38 0.09 0.08 0.08 0.41 0.29 0.13 0.10 0.19 0.07 0.07 0.08 0.03 0.02 0.05 0.11 0.13 0.06 0.05 0.12 0.24 0.25 0.09 0.01 0.00 0.00 0.00 0.00 0.00 0.01 0.00 0.00 0.00 0.00 0.00 0.00 0.00
0.09 0.08 0.08 0.07 0.04 0.04 0.05 0.07 0.07 0.11 0.14 0.21 0.52 0.90 1.46 1.37 0.55 0.25 0.17 0.12 0.12 0.28 0.18 0.05 0.07 0.40 0.16 0.16 0.15 0.09 0.03 0.06 0.11 0.10 0.04 0.09 0.10 0.15 0.09 0.02 0.01 0.00 0.00 0.00 0.00 0.00 0.00 0.00 0.00 0.00 0.00 0.00 0.00 0.01
0.06 0.06 0.07 0.05 0.04 0.05 0.08 0.16 0.09 0.15 0.31 0.70 1.48 1.53 1.29 0.56 0.19 0.37 0.85 0.66 0.55 0.25 0.12 0.06 0.05 0.38 0.27 0.18 0.17 0.12 0.08 0.10 0.17 0.07 0.06 0.14 0.10 0.06 0.02 0.01 0.00 0.00 0.00 0.00 0.00 0.01 0.02 0.02 0.01 0.01 0.01 0.01 0.01 0.02
0.09 0.11 0.09 0.05 0.05 0.08 0.13 0.16 0.20 0.39 1.08 1.69 1.62 0.88 0.53 0.39 0.40 0.66 0.55 0.37 0.26 0.09 0.03 0.02 0.03 0.11 0.24 0.28 0.18 0.11 0.20 0.15 0.09 0.09 0.09 0.16 0.08 0.08 0.02 0.00 0.00 0.00 0.00 0.00 0.01 0.01 0.02 0.02 0.02 0.01 0.01 0.02 0.02 0.02
0.16 0.16 0.14 0.12 0.13 0.18 0.24 0.37 0.48 0.90 1.14 0.72 0.71 0.73 0.76 0.88 0.76 0.46 0.34 0.10 0.06 0.02 0.01 0.02 0.06 0.13 0.32 0.56 0.28 0.09 0.14 0.29 0.15 0.31 0.33 0.14 0.10 0.04 0.00 0.00 0.00 0.00 0.00 0.00 0.00 0.00 0.01 0.01 0.01 0.00 0.01 0.02 0.03 0.03
0.29 0.28 0.24 0.18 0.25 0.29 0.33 0.47 0.62 0.59 0.53 0.69 0.91 0.86 0.62 0.65 0.41 0.26 0.17 0.04 0.03 0.01 0.01 0.01 0.12 0.11 0.09 0.54 0.35 0.06 0.03 0.20 0.24 0.27 0.17 0.07 0.06 0.02 0.00 0.00 0.00 0.00 0.00 0.00 0.00 0.01 0.01 0.01 0.01 0.01 0.02 0.02 0.02 0.03
0.48 0.35 0.23 0.18 0.25 0.29 0.34 0.50 0.58 0.80 0.98 0.96 0.97 0.62 0.30 0.11 0.03 0.04 0.03 0.03 0.01 0.00 0.01 0.01 0.04 0.06 0.02 0.17 0.35 0.12 0.04 0.02 0.08 0.10 0.06 0.05 0.03 0.01 0.00 0.00 0.00 0.00 0.00 0.00 0.01 0.01 0.01 0.01 0.02 0.02 0.02 0.02 0.01 0.03
0.59 0.26 0.17 0.18 0.20 0.18 0.21 0.40 0.62 0.83 0.90 0.63 0.47 0.19 0.02 0.03 0.05 0.05 0.02 0.02 0.02 0.02 0.01 0.02 0.02 0.05 0.02 0.09 0.07 0.08 0.04 0.04 0.03 0.06 0.04 0.03 0.02 0.01 0.00 0.00 0.00 0.01 0.01 0.01 0.01 0.01 0.01 0.01 0.01 0.02 0.03 0.02 0.02 0.03
0.46 0.35 0.24 0.15 0.19 0.23 0.36 0.53 0.69 0.56 0.52 0.24 0.17 0.11 0.06 0.03 0.06 0.05 0.05 0.04 0.08 0.08 0.03 0.05 0.03 0.03 0.02 0.02 0.02 0.02 0.05 0.07 0.05 0.03 0.03 0.02 0.01 0.01 0.01 0.01 0.01 0.01 0.01 0.01 0.01 0.01 0.01 0.01 0.02 0.03 0.03 0.02 0.03 0.02
0.32 0.42 0.28 0.16 0.18 0.25 0.34 0.45 0.48 0.42 0.33 0.14 0.06 0.05 0.04 0.03 0.05 0.07 0.07 0.09 0.11 0.07 0.04 0.03 0.01 0.01 0.01 0.00 0.01 0.01 0.02 0.02 0.02 0.04 0.03 0.01 0.01 0.01 0.01 0.01 0.01 0.02 0.02 0.02 0.02 0.02 0.02 0.02 0.01 0.01 0.03 0.03 0.02 0.01
0.26 0.17 0.09 0.11 0.22 0.36 0.44 0.30 0.24 0.18 0.12 0.07 0.04 0.05 0.02 0.04 0.04 0.05 0.05 0.07 0.03 0.01 0.02 0.01 0.00 0.00 0.02 0.03 0.03 0.02 0.03 0.04 0.02 0.02 0.02 0.01 0.01 0.01 0.00 0.01 0.01 0.01 0.01 0.01 0.01 0.01 0.02 0.02 0.02 0.03 0.01 0.02 0.01 0.00
0.26 0.21 0.15 0.12 0.16 0.22 0.31 0.18 0.06 0.05 0.05 0.05 0.07 0.05 0.03 0.04 0.03 0.02 0.01 0.01 0.00 0.00 0.00 0.00 0.00 0.02 0.02 0.01 0.01 0.01 0.01 0.01 0.03 0.03 0.03 0.02 0.00 0.00 0.01 0.01 0.01 0.01 0.01 0.02 0.02 0.03 0.04 0.04 0.04 0.04 0.03 0.03 0.02 0.02
0.31 0.27 0.22 0.15 0.06 0.08 0.05 0.06 0.00 0.01 0.02 0.05 0.04 0.03 0.03 0.04 0.03 0.01 0.01 0.00 0.00 0.00 0.01 0.01 0.04 0.05 0.03 0.03 0.01 0.01 0.01 0.00 0.00 0.01 0.03 0.03 0.02 0.02 0.03 0.01 0.01 0.01 0.02 0.03 0.03 0.03 0.02 0.02 0.01 0.01 0.01 0.02 0.03 0.04
0.28 0.28 0.18 0.13 0.11 0.05 0.01 0.01 0.00 0.00 0.01 0.04 0.02 0.00 0.04 0.03 0.02 0.02 0.02 0.01 0.03 0.03 0.03 0.04 0.05 0.05 0.01 0.01 0.00 0.00 0.02 0.03 0.03 0.01 0.01 0.02 0.02 0.01 0.02 0.02 0.03 0.04 0.03 0.02 0.02 0.02 0.01 0.01 0.01 0.00 0.00 0.01 0.01 0.01
0.19 0.13 0.15 0.09 0.07 0.02 0.01 0.00 0.00 0.00 0.01 0.04 0.04 0.02 0.03 0.04 0.03 0.02 0.00 0.02 0.04 0.06 0.03 0.02 0.01 0.00 0.00 0.00 0.00 0.00 0.00 0.00 0.00 0.00 0.00 0.00 0.02 0.02 0.01 0.02 0.02 0.02 0.02 0.02 0.01 0.01 0.01 0.00 0.00 0.00 0.00 0.01 0.00 0.01
0.05 0.08 0.08 0.05 0.05 0.04 0.05 0.01 0.00 0.00 0.01 0.03 0.01 0.01 0.01 0.01 0.01 0.00 0.01 0.02 0.04 0.03 0.00 0.00 0.00 0.00 0.00 0.00 0.00 0.00 0.00 0.00 0.00 0.00 0.00 0.00 0.00 0.00 0.00 0.00 0.00 0.00 0.00 0.00 0.00 0.00 0.00 0.00 0.00 0.00 0.00 0.01 0.01 0.01
0.06 0.10 0.10 0.05 0.03 0.05 0.04 0.02 0.00 0.00 0.02 0.01 0.01 0.01 0.01 0.00 0.00 0.00 0.01 0.02 0.03 0.02 0.00 0.00 0.00 0.00 0.00 0.00 0.00 0.00 0.00 0.00 0.00 0.00 0.00 0.00 0.00 0.00 0.00 0.00 0.00 0.00 0.00 0.00 0.00 0.00 0.00 0.01 0.01 0.01 0.01 0.02 0.02 0.02
0.16 0.11 0.09 0.04 0.00 0.01 0.01 0.01 0.00 0.00 0.01 0.00 0.00 0.00 0.00 0.00 0.00 0.00 0.00 0.02 0.03 0.02 0.00 0.00 0.01 0.01 0.00 0.00 0.00 0.00 0.00 0.00 0.00 0.00 0.00 0.00 0.00 0.00 0.00 0.00 0.00 0.00 0.00 0.01 0.02 0.01 0.01 0.01 0.01 0.01 0.01 0.01 0.01 0.01
0.08 0.04 0.06 0.03 0.00 0.00 0.00 0.00 0.00 0.00 0.00 0.00 0.00 0.00 0.00 0.00 0.00 0.01 0.01 0.02 0.02 0.01 0.01 0.01 0.01 0.00 0.00 0.00 0.00 0.00 0.00 0.00 0.00 0.00 0.00 0.00 0.00 0.00 0.00 0.00 0.00 0.01 0.00 0.00 0.00 0.01 0.01 0.00 0.00 0.00 0.00 0.01 0.00 0.00
0.03 0.02 0.02 0.01 0.01 0.00 0.00 0.00 0.00 0.00 0.00 0.00 0.01 0.00 0.00 0.00 0.01 0.04 0.08 0.03 0.01 0.01 0.01 0.00 0.00 0.00 0.00 0.00 0.00 0.00 0.00 0.00 0.00 0.00 0.00 0.00 0.00 0.00 0.00 0.00 0.00 0.01 0.00 0.00 0.00 0.00 0.01 0.01 0.01 0.01 0.01 0.01 0.01 0.01
0.00 0.01 0.01 0.00 0.00 0.00 0.00 0.00 0.00 0.00 0.01 0.01 0.00 0.00 0.00 0.00 0.04 0.08 0.07 0.07 0.03 0.01 0.00 0.00 0.00 0.00 0.00 0.00 0.00 0.00 0.00 0.00 0.00 0.00 0.00 0.00 0.00 0.00 0.00 0.00 0.00 0.00 0.00 0.00 0.00 0.00 0.00 0.00 0.00 0.01 0.01 0.00 0.00 0.01
0.00 0.00 0.00 0.00 0.00 0.00 0.01 0.01 0.01 0.01 0.02 0.01 0.01 0.01 0.02 0.06 0.08 0.08 0.06 0.05 0.01 0.00 0.00 0.00 0.00 0.00 0.00 0.00 0.00 0.00 0.00 0.00 0.00 0.00 0.00 0.01 0.01 0.01 0.00 0.00 0.00 0.00 0.00 0.00 0.00 0.00 0.01 0.01 0.01 0.00 0.00 0.00 0.01 0.01
0.00 0.00 0.00 0.00 0.00 0.02 0.05 0.04 0.03 0.02 0.01 0.00 0.01 0.03 0.05 0.14 0.19 0.10 0.08 0.06 0.04 0.02 0.01 0.00 0.01 0.00 0.00 0.00 0.00 0.00 0.00 0.00 0.00 0.00 0.00 0.00 0.01 0.01 0.01 0.01 0.00 0.00 0.00 0.00 0.00 0.00 0.00 0.01 0.00 0.00 0.01 0.00 0.01 0.01
0.00 0.00 0.00 0.00 0.03 0.06 0.06 0.03 0.02 0.01 0.01 0.01 0.00 0.00 0.04 0.13 0.14 0.13 0.11 0.10 0.03 0.00 0.01 0.01 0.01 0.01 0.00 0.00 0.00 0.00 0.00 0.00 0.00 0.00 0.00 0.00 0.00 0.00 0.00 0.00 0.00 0.00 0.00 0.00 0.00 0.00 0.00 0.00 0.00 0.00 0.00 0.00 0.00 0.00
0.00 0.00 0.00 0.00 0.04 0.04 0.06 0.04 0.02 0.02 0.02 0.01 0.01 0.01 0.02 0.01 0.04 0.07 0.07 0.08 0.06 0.03 0.01 0.01 0.01 0.01 0.00 0.00 0.00 0.00 0.00 0.00 0.00 0.00 0.00 0.00 0.00 0.00 0.00 0.00 0.00 0.00 0.00 0.00 0.00 0.00 0.00 0.00 0.00 0.00 0.00 0.00 0.00 0.00
0.00 0.00 0.00 0.00 0.01 0.02 0.03 0.02 0.01 0.01 0.01 0.02 0.03 0.04 0.03 0.01 0.02 0.04 0.06 0.07 0.10 0.03 0.02 0.01 0.00 0.00 0.00 0.00 0.00 0.00 0.00 0.00 0.00 0.00 0.00 0.00 0.00 0.00 0.00 0.00 0.00 0.00 0.00 0.00 0.00 0.00 0.00 0.00 0.00 0.00 0.00 0.00 0.00 0.00

GFSWCAN_prec_precacc24_105.txt.gz
Total_Precipitation_Accumulation
0.19 0.16 0.14 0.08 0.04 0.03 0.02 0.03 0.04 0.03 0.04 0.03 0.04 0.03 0.03 0.04 0.10 0.32 0.32 0.07 0.08 0.07 0.01 0.00 0.00 0.00 0.00 0.01 0.04 0.02 0.02 0.02 0.03 0.05 0.03 0.02 0.03 0.01 0.05 0.04 0.03 0.08 0.09 0.04 0.03 0.05 0.04 0.01 0.00 0.05 0.09 0.07 0.05 0.09
0.17 0.13 0.11 0.12 0.07 0.03 0.02 0.03 0.03 0.03 0.02 0.02 0.02 0.02 0.02 0.05 0.09 0.26 0.39 0.15 0.14 0.16 0.02 0.00 0.00 0.00 0.00 0.00 0.01 0.01 0.08 0.15 0.19 0.23 0.10 0.04 0.03 0.03 0.03 0.22 0.07 0.25 0.19 0.11 0.07 0.13 0.17 0.09 0.05 0.07 0.07 0.09 0.12 0.13
0.15 0.13 0.10 0.06 0.08 0.05 0.02 0.03 0.02 0.02 0.03 0.04 0.02 0.02 0.02 0.04 0.10 0.25 0.35 0.20 0.50 0.40 0.06 0.00 0.02 0.01 0.00 0.00 0.00 0.01 0.07 0.12 0.35 0.39 0.21 0.11 0.09 0.07 0.08 0.07 0.14 0.40 0.52 0.62 0.61 0.52 0.19 0.12 0.13 0.09 0.13 0.25 0.21 0.11
0.14 0.10 0.08 0.06 0.06 0.06 0.05 0.04 0.03 0.03 0.04 0.05 0.03 0.04 0.05 0.08 0.13 0.28 0.31 0.13 0.29 0.29 0.06 0.05 0.02 0.01 0.00 0.00 0.00 0.00 0.02 0.04 0.08 0.14 0.08 0.06 0.04 0.07 0.08 0.13 0.21 0.31 0.38 0.51 0.90 0.62 0.35 0.21 0.37 0.33 0.16 0.12 0.09 0.03
0.12 0.12 0.09 0.06 0.07 0.08 0.07 0.06 0.05 0.05 0.05 0.06 0.05 0.05 0.06 0.14 0.21 0.32 0.30 0.17 0.15 0.24 0.16 0.03 0.04 0.01 0.00 0.00 0.00 0.00 0.00 0.01 0.02 0.06 0.10 0.09 0.09 0.12 0.14 0.34 0.29 0.12 0.27 0.61 0.74 0.82 0.71 0.59 0.66 0.61 0.45 0.27 0.13 0.07
0.14 0.12 0.12 0.09 0.08 0.07 0.05 0.05 0.04 0.05 0.05 0.08 0.08 0.10 0.08 0.23 0.37 0.38 0.57 0.33 0.20 0.30 0.34 0.06 0.06 0.02 0.01 0.00 0.00 0.00 0.00 0.01 0.03 0.07 0.12 0.10 0.09 0.24 0.24 0.48 0.39 0.45 0.29 0.28 0.44 0.64 0.90 0.88 0.55 0.29 0.20 0.12 0.04 0.02
0.13 0.13 0.12 0.11 0.08 0.05 0.04 0.04 0.03 0.04 0.05 0.07 0.11 0.13 0.15 0.24 0.38 0.29 0.16 0.16 0.12 0.26 0.46 0.10 0.07 0.05 0.02 0.00 0.00 0.00 0.01 0.06 0.06 0.07 0.08 0.06 0.11 0.17 0.29 0.19 0.11 0.14 0.07 0.04 0.09 0.14 0.14 0.11 0.09 0.01 0.00 0.00 0.00 0.00
0.12 0.10 0.11 0.10 0.07 0.05 0.05 0.05 0.05 0.05 0.05 0.09 0.23 0.20 0.25 0.46 0.64 0.35 0.09 0.12 0.09 0.28 0.18 0.10 0.07 0.12 0.02 0.04 0.06 0.02 0.01 0.04 0.08 0.10 0.05 0.05 0.11 0.23 0.24 0.04 0.00 0.00 0.00 0.00 0.00 0.00 0.01 0.00 0.00 0.00 0.00 0.00 0.00 0.00
0.10 0.10 0.10 0.08 0.04 0.05 0.05 0.04 0.05 0.09 0.12 0.20 0.48 0.78 1.13 1.03 0.45 0.23 0.16 0.12 0.13 0.25 0.16 0.05 0.03 0.32 0.16 0.16 0.16 0.09 0.04 0.05 0.09 0.08 0.03 0.08 0.10 0.15 0.09 0.01 0.01 0.00 0.00 0.00 0.00 0.00 0.00 0.00 0.00 0.00 0.00 0.00 0.00 0.01
0.08 0.07 0.08 0.07 0.05 0.05 0.05 0.05 0.06 0.12 0.28 0.63 1.30 1.35 1.09 0.45 0.18 0.33 0.65 0.44 0.40 0.20 0.11 0.05 0.01 0.29 0.27 0.19 0.15 0.11 0.06 0.09 0.17 0.08 0.06 0.13 0.09 0.06 0.02 0.01 0.00 0.00 0.00 0.00 0.00 0.01 0.02 0.02 0.01 0.01 0.01 0.01 0.01 0.01
0.08 0.09 0.08 0.05 0.05 0.07 0.07 0.09 0.13 0.33 1.04 1.57 1.46 0.83 0.51 0.37 0.37 0.57 0.41 0.24 0.19 0.08 0.02 0.01 0.00 0.09 0.23 0.26 0.17 0.11 0.20 0.16 0.11 0.11 0.10 0.12 0.07 0.06 0.02 0.00 0.00 0.00 0.00 0.00 0.00 0.01 0.02 0.02 0.01 0.01 0.01 0.01 0.01 0.02
0.16 0.17 0.13 0.11 0.08 0.08 0.14 0.25 0.38 0.82 1.07 0.68 0.69 0.79 0.81 0.82 0.73 0.41 0.28 0.07 0.03 0.00 0.00 0.00 0.01 0.08 0.39 0.59 0.37 0.14 0.15 0.29 0.14 0.28 0.23 0.07 0.07 0.03 0.00 0.00 0.00 0.00 0.00 0.00 0.00 0.00 0.00 0.01 0.01 0.00 0.01 0.02 0.02 0.02
0.28 0.29 0.23 0.17 0.16 0.13 0.13 0.26 0.45 0.57 0.57 0.69 0.94 0.98 0.61 0.59 0.41 0.18 0.15 0.02 0.00 0.00 0.01 0.01 0.06 0.09 0.11 0.53 0.30 0.05 0.01 0.13 0.23 0.25 0.15 0.05 0.04 0.02 0.00 0.00 0.00 0.00 0.00 0.00 0.00 0.01 0.01 0.01 0.00 0.01 0.01 0.02 0.01 0.02
0.48 0.34 0.24 0.16 0.20 0.19 0.23 0.40 0.55 0.83 1.01 0.99 1.02 0.71 0.32 0.14 0.03 0.02 0.02 0.03 0.01 0.00 0.01 0.01 0.04 0.06 0.02 0.17 0.34 0.12 0.04 0.03 0.07 0.09 0.06 0.03 0.02 0.01 0.00 0.00 0.00 0.00 0.00 0.00 0.00 0.00 0.01 0.01 0.01 0.01 0.01 0.01 0.01 0.02
0.58 0.28 0.19 0.18 0.18 0.16 0.20 0.41 0.64 0.85 0.93 0.67 0.52 0.27 0.03 0.04 0.04 0.05 0.04 0.02 0.02 0.01 0.01 0.01 0.02 0.05 0.02 0.08 0.06 0.08 0.04 0.03 0.02 0.06 0.03 0.03 0.02 0.00 0.00 0.00 0.00 0.00 0.00 0.00 0.00 0.00 0.00 0.01 0.01 0.02 0.02 0.01 0.01 0.02
0.49 0.39 0.26 0.16 0.20 0.24 0.38 0.56 0.71 0.57 0.54 0.28 0.23 0.25 0.08 0.02 0.05 0.05 0.05 0.03 0.05 0.05 0.02 0.05 0.03 0.03 0.01 0.02 0.02 0.02 0.04 0.08 0.07 0.01 0.03 0.02 0.01 0.01 0.01 0.00 0.00 0.00 0.00 0.00 0.00 0.00 0.00 0.00 0.01 0.02 0.02 0.01 0.02 0.01
0.34 0.43 0.29 0.18 0.20 0.28 0.35 0.47 0.48 0.41 0.36 0.17 0.11 0.12 0.07 0.02 0.04 0.05 0.05 0.07 0.09 0.07 0.05 0.04 0.02 0.01 0.01 0.01 0.00 0.01 0.02 0.02 0.02 0.03 0.02 0.00 0.01 0.00 0.00 0.00 0.00 0.01 0.01 0.00 0.00 0.00 0.00 0.00 0.00 0.01 0.02 0.02 0.01 0.01
0.28 0.19 0.11 0.13 0.24 0.39 0.48 0.32 0.24 0.20 0.15 0.08 0.08 0.07 0.02 0.03 0.03 0.04 0.05 0.07 0.03 0.01 0.03 0.02 0.00 0.01 0.02 0.03 0.04 0.01 0.02 0.03 0.02 0.01 0.02 0.01 0.01 0.01 0.00 0.00 0.00 0.00 0.00 0.01 0.00 0.00 0.01 0.01 0.02 0.04 0.02 0.02 0.01 0.00
0.30 0.22 0.16 0.12 0.16 0.24 0.32 0.18 0.10 0.09 0.05 0.06 0.07 0.03 0.02 0.04 0.03 0.02 0.01 0.01 0.00 0.00 0.00 0.00 0.00 0.02 0.02 0.01 0.01 0.01 0.01 0.01 0.03 0.03 0.02 0.01 0.00 0.00 0.01 0.00 0.01 0.01 0.01 0.01 0.02 0.04 0.04 0.03 0.03 0.03 0.03 0.03 0.02 0.02
0.35 0.28 0.22 0.16 0.08 0.14 0.08 0.06 0.02 0.03 0.02 0.07 0.04 0.02 0.03 0.03 0.02 0.01 0.01 0.00 0.00 0.00 0.01 0.01 0.02 0.02 0.01 0.01 0.00 0.00 0.00 0.00 0.00 0.01 0.03 0.02 0.01 0.01 0.01 0.01 0.01 0.01 0.02 0.02 0.03 0.02 0.02 0.02 0.01 0.01 0.01 0.02 0.03 0.04
0.33 0.31 0.20 0.15 0.17 0.14 0.04 0.01 0.00 0.01 0.00 0.04 0.02 0.00 0.03 0.03 0.03 0.02 0.02 0.01 0.03 0.03 0.02 0.02 0.04 0.04 0.01 0.00 0.00 0.00 0.00 0.00 0.00 0.00 0.00 0.01 0.01 0.01 0.02 0.03 0.03 0.03 0.02 0.02 0.01 0.02 0.01 0.01 0.01 0.00 0.00 0.01 0.01 0.01
0.22 0.17 0.20 0.13 0.11 0.05 0.01 0.00 0.00 0.00 0.01 0.04 0.04 0.01 0.03 0.05 0.04 0.03 0.00 0.02 0.04 0.04 0.01 0.02 0.01 0.00 0.00 0.00 0.00 0.00 0.00 0.00 0.00 0.00 0.00 0.00 0.01 0.01 0.01 0.02 0.01 0.02 0.02 0.02 0.01 0.01 0.01 0.01 0.00 0.00 0.00 0.01 0.00 0.01
0.06 0.10 0.09 0.08 0.11 0.05 0.05 0.01 0.00 0.00 0.01 0.04 0.01 0.01 0.02 0.02 0.01 0.00 0.02 0.02 0.03 0.02 0.00 0.00 0.00 0.00 0.00 0.00 0.00 0.00 0.00 0.00 0.00 0.00 0.00 0.00 0.00 0.00 0.00 0.00 0.00 0.00 0.00 0.00 0.00 0.00 0.00 0.00 0.00 0.00 0.00 0.01 0.01 0.01
0.07 0.11 0.10 0.07 0.08 0.06 0.04 0.02 0.00 0.00 0.02 0.02 0.02 0.01 0.01 0.01 0.00 0.00 0.01 0.01 0.03 0.02 0.00 0.00 0.00 0.00 0.00 0.00 0.00 0.00 0.00 0.00 0.00 0.00 0.00 0.00 0.00 0.00 0.00 0.00 0.00 0.00 0.00 0.00 0.00 0.00 0.00 0.01 0.01 0.00 0.01 0.01 0.01 0.01
0.17 0.12 0.10 0.05 0.02 0.02 0.02 0.02 0.01 0.00 0.01 0.01 0.01 0.00 0.00 0.00 0.00 0.00 0.00 0.02 0.02 0.02 0.00 0.00 0.00 0.00 0.00 0.00 0.00 0.00 0.00 0.00 0.00 0.00 0.00 0.00 0.00 0.00 0.00 0.00 0.00 0.00 0.00 0.00 0.01 0.01 0.01 0.01 0.01 0.01 0.01 0.01 0.01 0.01
0.16 0.07 0.08 0.05 0.01 0.01 0.00 0.01 0.00 0.00 0.00 0.00 0.01 0.00 0.00 0.00 0.00 0.01 0.02 0.02 0.01 0.01 0.01 0.01 0.01 0.00 0.00 0.00 0.00 0.00 0.00 0.00 0.00 0.00 0.00 0.00 0.00 0.00 0.00 0.00 0.00 0.01 0.00 0.00 0.00 0.00 0.00 0.00 0.00 0.00 0.00 0.00 0.00 0.00
0.10 0.05 0.03 0.01 0.02 0.00 0.01 0.00 0.00 0.00 0.00 0.00 0.01 0.00 0.00 0.00 0.01 0.04 0.06 0.04 0.01 0.01 0.00 0.00 0.00 0.00 0.00 0.00 0.00 0.00 0.00 0.00 0.00 0.00 0.00 0.00 0.00 0.00 0.00 0.00 0.00 0.01 0.00 0.00 0.00 0.00 0.00 0.00 0.01 0.01 0.01 0.01 0.01 0.01
0.02 0.02 0.06 0.04 0.02 0.01 0.01 0.00 0.00 0.00 0.01 0.01 0.00 0.00 0.01 0.00 0.04 0.08 0.06 0.10 0.05 0.02 0.02 0.01 0.00 0.00 0.00 0.00 0.00 0.00 0.00 0.00 0.00 0.00 0.00 0.00 0.00 0.00 0.00 0.00 0.00 0.00 0.00 0.00 0.00 0.00 0.00 0.00 0.00 0.01 0.01 0.00 0.00 0.01
0.01 0.01 0.02 0.01 0.01 0.00 0.01 0.02 0.02 0.01 0.02 0.02 0.03 0.02 0.03 0.05 0.08 0.08 0.08 0.07 0.01 0.00 0.00 0.00 0.01 0.00 0.00 0.00 0.00 0.00 0.00 0.00 0.00 0.00 0.00 0.00 0.01 0.01 0.00 0.00 0.00 0.00 0.00 0.00 0.00 0.00 0.01 0.01 0.01 0.00 0.00 0.00 0.01 0.01
0.00 0.00 0.00 0.00 0.00 0.02 0.04 0.03 0.03 0.02 0.01 0.00 0.01 0.02 0.04 0.12 0.18 0.12 0.10 0.06 0.04 0.02 0.01 0.00 0.00 0.00 0.00 0.00 0.01 0.01 0.00 0.00 0.00 0.00 0.00 0.00 0.01 0.01 0.01 0.01 0.00 0.00 0.00 0.00 0.00 0.00 0.00 0.01 0.00 0.00 0.00 0.00 0.00 0.00
0.00 0.00 0.00 0.00 0.03 0.06 0.05 0.03 0.02 0.00 0.01 0.02 0.01 0.00 0.04 0.12 0.14 0.12 0.12 0.14 0.05 0.01 0.01 0.01 0.01 0.01 0.01 0.00 0.00 0.00 0.00 0.00 0.00 0.00 0.00 0.00 0.00 0.00 0.00 0.00 0.00 0.00 0.00 0.00 0.00 0.00 0.00 0.00 0.00 0.00 0.00 0.00 0.00 0.00
0.00 0.00 0.00 0.01 0.04 0.04 0.04 0.04 0.02 0.02 0.03 0.01 0.01 0.01 0.02 0.02 0.04 0.07 0.08 0.09 0.06 0.04 0.03 0.01 0.01 0.02 0.01 0.00 0.00 0.00 0.00 0.00 0.00 0.00 0.00 0.00 0.00 0.00 0.00 0.00 0.00 0.00 0.00 0.00 0.00 0.00 0.00 0.00 0.00 0.00 0.00 0.00 0.00 0.00
0.01 0.00 0.00 0.00 0.02 0.02 0.03 0.02 0.01 0.01 0.02 0.02 0.03 0.04 0.05 0.02 0.02 0.04 0.07 0.08 0.11 0.03 0.03 0.01 0.00 0.00 0.00 0.00 0.00 0.00 0.00 0.00 0.00 0.00 0.00 0.00 0.00 0.00 0.00 0.00 0.00 0.00 0.00 0.00 0.00 0.00 0.00 0.00 0.00 0.00 0.00 0.00 0.00 0.00

GFSWCAN_prec_precacc24_108.txt.gz
Total_Precipitation_Accumulation
0.21 0.17 0.14 0.08 0.04 0.04 0.03 0.04 0.04 0.03 0.03 0.03 0.03 0.01 0.01 0.02 0.07 0.24 0.28 0.07 0.08 0.06 0.01 0.00 0.00 0.00 0.00 0.01 0.01 0.00 0.02 0.01 0.01 0.04 0.03 0.02 0.03 0.01 0.08 0.06 0.02 0.02 0.06 0.03 0.02 0.04 0.05 0.01 0.00 0.04 0.11 0.09 0.06 0.09
0.22 0.15 0.11 0.12 0.07 0.03 0.03 0.03 0.03 0.03 0.02 0.02 0.02 0.01 0.01 0.01 0.05 0.20 0.31 0.13 0.13 0.16 0.02 0.00 0.00 0.00 0.00 0.00 0.01 0.00 0.02 0.04 0.09 0.16 0.08 0.04 0.03 0.02 0.02 0.22 0.03 0.06 0.07 0.09 0.07 0.13 0.15 0.05 0.05 0.08 0.06 0.07 0.11 0.13
0.22 0.16 0.11 0.07 0.08 0.04 0.02 0.03 0.02 0.02 0.03 0.04 0.02 0.02 0.01 0.02 0.05 0.19 0.28 0.19 0.38 0.31 0.05 0.00 0.02 0.01 0.00 0.00 0.00 0.01 0.06 0.03 0.09 0.24 0.20 0.10 0.08 0.06 0.08 0.10 0.06 0.07 0.31 0.60 0.57 0.47 0.19 0.10 0.08 0.09 0.11 0.22 0.20 0.09
0.24 0.16 0.11 0.07 0.06 0.05 0.03 0.02 0.02 0.03 0.04 0.05 0.03 0.03 0.03 0.04 0.08 0.21 0.25 0.10 0.22 0.25 0.06 0.05 0.02 0.01 0.00 0.00 0.00 0.00 0.02 0.00 0.01 0.10 0.08 0.06 0.04 0.07 0.08 0.10 0.08 0.17 0.25 0.28 0.62 0.52 0.33 0.19 0.22 0.17 0.14 0.11 0.07 0.03
0.19 0.18 0.12 0.07 0.06 0.05 0.04 0.04 0.04 0.05 0.05 0.06 0.05 0.04 0.04 0.09 0.15 0.30 0.30 0.17 0.13 0.23 0.16 0.03 0.04 0.01 0.00 0.00 0.00 0.00 0.00 0.00 0.01 0.05 0.10 0.09 0.09 0.09 0.08 0.25 0.14 0.10 0.21 0.32 0.48 0.61 0.60 0.48 0.46 0.37 0.32 0.24 0.13 0.07
0.16 0.17 0.15 0.09 0.07 0.06 0.04 0.04 0.04 0.04 0.05 0.08 0.07 0.09 0.06 0.15 0.29 0.35 0.49 0.27 0.19 0.30 0.33 0.06 0.06 0.02 0.00 0.00 0.00 0.00 0.00 0.01 0.02 0.07 0.11 0.10 0.08 0.15 0.10 0.36 0.22 0.39 0.27 0.26 0.29 0.42 0.63 0.59 0.42 0.25 0.19 0.11 0.04 0.02
0.14 0.15 0.15 0.12 0.09 0.05 0.04 0.04 0.03 0.04 0.04 0.07 0.09 0.11 0.11 0.15 0.30 0.27 0.15 0.16 0.12 0.25 0.42 0.08 0.07 0.04 0.02 0.00 0.00 0.00 0.00 0.02 0.04 0.05 0.07 0.06 0.10 0.14 0.16 0.15 0.08 0.11 0.07 0.04 0.07 0.08 0.10 0.08 0.06 0.01 0.00 0.00 0.00 0.00
0.13 0.12 0.12 0.11 0.09 0.05 0.05 0.05 0.04 0.04 0.05 0.09 0.20 0.18 0.19 0.32 0.48 0.33 0.08 0.16 0.09 0.23 0.16 0.08 0.07 0.08 0.01 0.02 0.04 0.02 0.01 0.03 0.07 0.09 0.05 0.05 0.11 0.23 0.23 0.04 0.00 0.00 0.00 0.00 0.00 0.00 0.01 0.00 0.00 0.00 0.00 0.00 0.00 0.00
0.10 0.11 0.10 0.09 0.06 0.05 0.06 0.04 0.04 0.07 0.09 0.19 0.45 0.68 0.87 0.72 0.33 0.20 0.16 0.12 0.12 0.24 0.14 0.04 0.03 0.19 0.11 0.14 0.13 0.09 0.03 0.05 0.09 0.07 0.03 0.07 0.10 0.13 0.10 0.01 0.00 0.00 0.00 0.00 0.00 0.00 0.00 0.00 0.00 0.00 0.00 0.00 0.00 0.01
0.08 0.07 0.07 0.07 0.05 0.05 0.05 0.04 0.04 0.09 0.21 0.52 1.16 1.14 0.85 0.35 0.17 0.31 0.51 0.26 0.25 0.14 0.10 0.05 0.01 0.12 0.20 0.18 0.14 0.09 0.05 0.09 0.17 0.08 0.05 0.08 0.06 0.05 0.02 0.01 0.00 0.00 0.00 0.00 0.00 0.01 0.01 0.01 0.00 0.00 0.00 0.00 0.01 0.01
0.07 0.07 0.08 0.06 0.05 0.06 0.06 0.05 0.08 0.25 0.87 1.34 1.23 0.70 0.45 0.34 0.32 0.45 0.27 0.15 0.11 0.06 0.02 0.01 0.00 0.08 0.16 0.23 0.16 0.10 0.19 0.14 0.11 0.15 0.09 0.11 0.07 0.05 0.02 0.00 0.00 0.00 0.00 0.00 0.00 0.01 0.02 0.01 0.01 0.01 0.01 0.01 0.01 0.01
0.14 0.17 0.13 0.11 0.07 0.05 0.07 0.12 0.27 0.74 0.98 0.57 0.62 0.77 0.79 0.71 0.65 0.36 0.20 0.05 0.04 0.00 0.00 0.00 0.01 0.05 0.28 0.49 0.39 0.14 0.14 0.27 0.14 0.24 0.14 0.05 0.06 0.02 0.00 0.00 0.00 0.00 0.00 0.00 0.00 0.00 0.00 0.01 0.00 0.00 0.01 0.01 0.02 0.02
0.28 0.29 0.21 0.12 0.09 0.07 0.08 0.19 0.42 0.57 0.54 0.66 0.94 1.01 0.56 0.52 0.43 0.12 0.09 0.02 0.00 0.00 0.01 0.01 0.03 0.05 0.09 0.52 0.30 0.05 0.01 0.11 0.17 0.16 0.11 0.04 0.03 0.01 0.00 0.00 0.00 0.00 0.00 0.00 0.00 0.00 0.00 0.01 0.00 0.00 0.01 0.01 0.01 0.01
0.49 0.35 0.23 0.14 0.16 0.13 0.13 0.28 0.50 0.81 0.99 0.97 1.02 0.75 0.30 0.14 0.03 0.01 0.01 0.03 0.01 0.00 0.01 0.01 0.03 0.03 0.01 0.17 0.33 0.09 0.04 0.03 0.05 0.07 0.06 0.03 0.02 0.01 0.00 0.00 0.00 0.00 0.00 0.00 0.00 0.00 0.01 0.01 0.01 0.01 0.01 0.01 0.00 0.01
0.60 0.30 0.20 0.16 0.15 0.13 0.19 0.42 0.65 0.85 0.93 0.69 0.54 0.30 0.04 0.03 0.02 0.04 0.04 0.02 0.01 0.01 0.01 0.01 0.02 0.05 0.02 0.07 0.06 0.08 0.04 0.03 0.02 0.06 0.02 0.03 0.01 0.00 0.00 0.00 0.00 0.00 0.00 0.00 0.00 0.00 0.00 0.00 0.01 0.01 0.01 0.01 0.01 0.01
0.52 0.44 0.27 0.18 0.20 0.24 0.39 0.56 0.71 0.57 0.54 0.29 0.23 0.27 0.11 0.02 0.03 0.03 0.05 0.03 0.03 0.03 0.02 0.05 0.03 0.03 0.01 0.01 0.02 0.02 0.04 0.09 0.08 0.01 0.03 0.02 0.01 0.00 0.00 0.00 0.00 0.00 0.00 0.00 0.00 0.00 0.00 0.00 0.01 0.01 0.01 0.01 0.01 0.00
0.37 0.45 0.31 0.22 0.23 0.28 0.35 0.47 0.48 0.41 0.36 0.17 0.12 0.14 0.14 0.05 0.03 0.03 0.04 0.06 0.06 0.04 0.04 0.04 0.02 0.01 0.01 0.01 0.00 0.01 0.02 0.01 0.01 0.02 0.02 0.00 0.00 0.00 0.00 0.00 0.00 0.00 0.00 0.00 0.00 0.00 0.00 0.00 0.00 0.00 0.02 0.02 0.01 0.01
0.28 0.21 0.12 0.15 0.25 0.41 0.49 0.32 0.24 0.20 0.15 0.08 0.09 0.10 0.08 0.04 0.03 0.03 0.05 0.07 0.03 0.01 0.03 0.02 0.00 0.01 0.02 0.03 0.03 0.01 0.02 0.03 0.02 0.02 0.02 0.01 0.00 0.00 0.00 0.00 0.00 0.00 0.00 0.00 0.00 0.00 0.00 0.01 0.02 0.04 0.02 0.01 0.01 0.01
0.31 0.23 0.17 0.13 0.16 0.24 0.34 0.18 0.10 0.11 0.05 0.06 0.07 0.05 0.04 0.04 0.02 0.01 0.01 0.01 0.00 0.00 0.00 0.00 0.00 0.02 0.02 0.00 0.01 0.01 0.01 0.01 0.03 0.03 0.02 0.01 0.00 0.00 0.01 0.00 0.00 0.01 0.00 0.01 0.01 0.03 0.03 0.02 0.03 0.02 0.02 0.02 0.02 0.01
0.36 0.28 0.22 0.16 0.09 0.15 0.09 0.07 0.02 0.04 0.02 0.07 0.05 0.04 0.03 0.02 0.01 0.01 0.01 0.00 0.00 0.00 0.01 0.00 0.01 0.01 0.00 0.00 0.00 0.00 0.00 0.00 0.00 0.01 0.03 0.02 0.01 0.01 0.01 0.01 0.01 0.01 0.01 0.02 0.02 0.02 0.02 0.02 0.01 0.01 0.01 0.02 0.03 0.03
0.35 0.35 0.24 0.16 0.19 0.17 0.08 0.01 0.00 0.01 0.01 0.07 0.05 0.02 0.03 0.03 0.03 0.02 0.02 0.01 0.03 0.03 0.02 0.01 0.02 0.02 0.00 0.00 0.00 0.00 0.00 0.00 0.00 0.00 0.01 0.01 0.01 0.01 0.01 0.02 0.01 0.01 0.01 0.02 0.02 0.02 0.02 0.01 0.01 0.00 0.00 0.01 0.01 0.01
0.24 0.19 0.24 0.17 0.24 0.12 0.06 0.00 0.00 0.00 0.02 0.07 0.06 0.01 0.03 0.04 0.04 0.03 0.00 0.02 0.03 0.02 0.01 0.01 0.01 0.00 0.00 0.00 0.00 0.00 0.00 0.00 0.00 0.00 0.00 0.00 0.01 0.01 0.01 0.01 0.01 0.02 0.02 0.02 0.01 0.01 0.02 0.01 0.00 0.00 0.00 0.01 0.00 0.01
0.06 0.10 0.10 0.09 0.13 0.06 0.06 0.01 0.00 0.00 0.01 0.05 0.02 0.01 0.02 0.02 0.01 0.00 0.02 0.01 0.02 0.01 0.00 0.00 0.00 0.00 0.00 0.00 0.00 0.00 0.00 0.00 0.00 0.00 0.00 0.00 0.00 0.00 0.00 0.00 0.00 0.00 0.00 0.00 0.00 0.00 0.00 0.00 0.00 0.00 0.00 0.01 0.01 0.01
0.07 0.11 0.10 0.07 0.10 0.07 0.05 0.03 0.00 0.00 0.02 0.02 0.02 0.01 0.01 0.01 0.00 0.00 0.01 0.01 0.03 0.02 0.00 0.00 0.00 0.00 0.00 0.00 0.00 0.00 0.00 0.00 0.00 0.00 0.00 0.00 0.00 0.00 0.00 0.00 0.00 0.00 0.00 0.00 0.00 0.00 0.00 0.01 0.01 0.00 0.01 0.01 0.01 0.01
0.17 0.12 0.10 0.07 0.08 0.02 0.03 0.03 0.01 0.00 0.01 0.01 0.01 0.00 0.01 0.00 0.00 0.00 0.00 0.01 0.02 0.01 0.00 0.00 0.00 0.00 0.00 0.00 0.00 0.00 0.00 0.00 0.00 0.00 0.00 0.00 0.00 0.00 0.00 0.00 0.00 0.00 0.00 0.00 0.01 0.01 0.01 0.01 0.01 0.01 0.01 0.01 0.01 0.01
0.16 0.07 0.08 0.05 0.01 0.01 0.01 0.01 0.00 0.00 0.00 0.00 0.01 0.00 0.00 0.00 0.01 0.01 0.02 0.02 0.01 0.01 0.01 0.00 0.00 0.00 0.00 0.00 0.00 0.00 0.00 0.00 0.00 0.00 0.00 0.00 0.00 0.00 0.00 0.00 0.00 0.01 0.00 0.00 0.00 0.00 0.00 0.00 0.00 0.00 0.00 0.00 0.00 0.00
0.11 0.06 0.03 0.02 0.02 0.01 0.01 0.00 0.01 0.00 0.00 0.01 0.02 0.00 0.00 0.01 0.01 0.03 0.05 0.05 0.01 0.00 0.00 0.00 0.00 0.00 0.00 0.00 0.00 0.00 0.00 0.00 0.00 0.00 0.00 0.00 0.00 0.00 0.00 0.00 0.00 0.01 0.00 0.00 0.00 0.00 0.00 0.00 0.00 0.01 0.01 0.01 0.01 0.01
0.06 0.05 0.07 0.05 0.04 0.03 0.01 0.01 0.00 0.00 0.01 0.01 0.00 0.00 0.01 0.01 0.04 0.07 0.06 0.11 0.06 0.02 0.02 0.01 0.00 0.00 0.00 0.00 0.00 0.00 0.00 0.00 0.00 0.00 0.00 0.00 0.00 0.00 0.00 0.00 0.00 0.00 0.00 0.00 0.00 0.00 0.00 0.00 0.00 0.01 0.01 0.00 0.00 0.01
0.06 0.09 0.09 0.07 0.06 0.04 0.02 0.02 0.02 0.01 0.02 0.02 0.03 0.02 0.02 0.04 0.07 0.08 0.11 0.10 0.02 0.00 0.00 0.01 0.03 0.00 0.00 0.00 0.00 0.00 0.00 0.00 0.00 0.00 0.00 0.00 0.01 0.01 0.00 0.00 0.00 0.00 0.00 0.00 0.00 0.00 0.01 0.01 0.01 0.00 0.00 0.00 0.01 0.02
0.03 0.06 0.05 0.02 0.01 0.02 0.04 0.03 0.03 0.02 0.01 0.00 0.01 0.01 0.03 0.09 0.15 0.13 0.12 0.07 0.04 0.02 0.01 0.01 0.01 0.01 0.01 0.01 0.01 0.01 0.00 0.00 0.00 0.00 0.00 0.00 0.00 0.00 0.01 0.01 0.00 0.00 0.00 0.00 0.00 0.00 0.00 0.00 0.00 0.00 0.00 0.00 0.00 0.00
0.01 0.02 0.02 0.03 0.04 0.04 0.04 0.02 0.02 0.01 0.01 0.02 0.01 0.00 0.03 0.10 0.12 0.11 0.11 0.15 0.05 0.01 0.02 0.03 0.03 0.02 0.01 0.00 0.00 0.00 0.00 0.00 0.00 0.00 0.00 0.00 0.00 0.00 0.00 0.00 0.00 0.00 0.00 0.00 0.00 0.00 0.00 0.00 0.00 0.00 0.00 0.00 0.00 0.00
0.01 0.01 0.00 0.02 0.03 0.03 0.04 0.05 0.02 0.02 0.03 0.01 0.01 0.01 0.02 0.02 0.04 0.07 0.09 0.11 0.07 0.04 0.04 0.02 0.02 0.03 0.01 0.00 0.00 0.00 0.00 0.00 0.00 0.00 0.00 0.00 0.00 0.00 0.00 0.00 0.00 0.00 0.00 0.00 0.00 0.00 0.00 0.00 0.00 0.00 0.00 0.00 0.00 0.00
0.01 0.01 0.00 0.00 0.02 0.02 0.02 0.02 0.01 0.02 0.02 0.02 0.03 0.04 0.05 0.02 0.02 0.04 0.07 0.10 0.11 0.04 0.03 0.01 0.01 0.01 0.00 0.00 0.00 0.00 0.00 0.00 0.00 0.00 0.00 0.00 0.00 0.00 0.00 0.00 0.00 0.00 0.00 0.00 0.00 0.00 0.00 0.00 0.00 0.00 0.00 0.00 0.00 0.00

GFSWCAN_prec_precacc24_111.txt.gz
Total_Precipitation_Accumulation
0.24 0.20 0.16 0.08 0.03 0.03 0.03 0.04 0.04 0.04 0.03 0.02 0.02 0.01 0.00 0.00 0.03 0.20 0.25 0.06 0.07 0.06 0.01 0.00 0.00 0.00 0.00 0.01 0.01 0.00 0.02 0.01 0.00 0.03 0.03 0.02 0.03 0.01 0.14 0.08 0.02 0.02 0.06 0.03 0.02 0.03 0.05 0.01 0.00 0.05 0.12 0.10 0.06 0.07
0.27 0.19 0.12 0.11 0.06 0.03 0.03 0.04 0.03 0.03 0.03 0.02 0.02 0.01 0.00 0.00 0.01 0.13 0.25 0.13 0.13 0.14 0.02 0.00 0.00 0.00 0.00 0.00 0.01 0.00 0.01 0.03 0.03 0.07 0.05 0.03 0.03 0.02 0.04 0.26 0.03 0.06 0.05 0.05 0.07 0.13 0.17 0.06 0.06 0.10 0.06 0.06 0.11 0.10
0.26 0.17 0.11 0.06 0.08 0.06 0.03 0.03 0.02 0.03 0.04 0.04 0.02 0.02 0.01 0.01 0.02 0.09 0.18 0.17 0.30 0.20 0.03 0.00 0.02 0.01 0.00 0.00 0.00 0.01 0.06 0.03 0.04 0.02 0.04 0.07 0.08 0.06 0.09 0.15 0.07 0.05 0.02 0.12 0.43 0.45 0.19 0.10 0.07 0.08 0.10 0.21 0.19 0.08
0.26 0.16 0.10 0.06 0.07 0.06 0.04 0.02 0.02 0.02 0.03 0.05 0.04 0.02 0.02 0.02 0.04 0.11 0.17 0.09 0.16 0.19 0.05 0.05 0.02 0.01 0.00 0.00 0.00 0.00 0.02 0.00 0.01 0.03 0.03 0.05 0.04 0.07 0.08 0.12 0.06 0.03 0.03 0.13 0.38 0.30 0.23 0.17 0.21 0.16 0.12 0.08 0.06 0.02
0.24 0.19 0.12 0.07 0.06 0.05 0.04 0.03 0.01 0.02 0.04 0.06 0.04 0.04 0.03 0.04 0.07 0.19 0.24 0.13 0.08 0.18 0.14 0.03 0.04 0.01 0.00 0.00 0.00 0.00 0.00 0.00 0.01 0.04 0.10 0.09 0.09 0.08 0.09 0.17 0.08 0.05 0.11 0.14 0.21 0.21 0.32 0.33 0.38 0.31 0.22 0.17 0.10 0.06
0.22 0.19 0.15 0.10 0.08 0.06 0.04 0.03 0.02 0.03 0.05 0.08 0.07 0.08 0.04 0.08 0.20 0.29 0.39 0.22 0.16 0.26 0.33 0.06 0.06 0.02 0.00 0.00 0.00 0.00 0.00 0.01 0.02 0.05 0.11 0.10 0.07 0.14 0.08 0.15 0.12 0.25 0.16 0.18 0.21 0.21 0.29 0.34 0.29 0.20 0.16 0.09 0.02 0.02
0.19 0.18 0.18 0.14 0.09 0.05 0.04 0.04 0.03 0.04 0.04 0.07 0.10 0.10 0.07 0.10 0.25 0.26 0.15 0.16 0.11 0.23 0.41 0.08 0.07 0.04 0.00 0.00 0.00 0.00 0.00 0.02 0.02 0.04 0.07 0.06 0.10 0.13 0.14 0.10 0.04 0.06 0.05 0.03 0.06 0.07 0.09 0.06 0.05 0.00 0.00 0.00 0.00 0.00
0.16 0.15 0.15 0.13 0.10 0.05 0.05 0.04 0.04 0.04 0.05 0.10 0.19 0.15 0.14 0.26 0.38 0.29 0.08 0.16 0.09 0.22 0.15 0.08 0.07 0.08 0.01 0.02 0.03 0.02 0.01 0.01 0.04 0.09 0.05 0.04 0.10 0.19 0.21 0.03 0.00 0.00 0.00 0.00 0.00 0.00 0.01 0.00 0.00 0.00 0.00 0.00 0.00 0.00
0.12 0.14 0.13 0.11 0.06 0.05 0.05 0.04 0.04 0.06 0.08 0.19 0.39 0.62 0.67 0.47 0.25 0.18 0.17 0.13 0.11 0.24 0.14 0.04 0.03 0.16 0.08 0.12 0.10 0.08 0.03 0.04 0.08 0.07 0.03 0.06 0.09 0.13 0.10 0.00 0.00 0.00 0.00 0.00 0.00 0.00 0.00 0.00 0.00 0.00 0.00 0.00 0.00 0.00
0.10 0.09 0.09 0.08 0.05 0.05 0.04 0.03 0.04 0.08 0.18 0.44 0.96 0.99 0.63 0.26 0.16 0.27 0.41 0.19 0.18 0.11 0.08 0.04 0.01 0.09 0.11 0.15 0.11 0.08 0.05 0.08 0.16 0.07 0.03 0.04 0.05 0.06 0.03 0.00 0.00 0.00 0.00 0.00 0.00 0.01 0.01 0.00 0.00 0.00 0.00 0.00 0.00 0.01
0.07 0.07 0.07 0.05 0.04 0.05 0.05 0.04 0.07 0.20 0.57 0.89 0.93 0.63 0.38 0.31 0.26 0.35 0.19 0.11 0.07 0.05 0.02 0.01 0.00 0.08 0.10 0.17 0.15 0.10 0.15 0.13 0.10 0.16 0.06 0.08 0.06 0.04 0.02 0.00 0.00 0.00 0.00 0.00 0.00 0.00 0.01 0.01 0.00 0.00 0.00 0.01 0.01 0.01
0.10 0.10 0.12 0.10 0.07 0.05 0.05 0.06 0.17 0.53 0.63 0.36 0.55 0.69 0.69 0.64 0.52 0.31 0.14 0.04 0.03 0.00 0.00 0.00 0.00 0.05 0.18 0.30 0.36 0.13 0.11 0.22 0.13 0.18 0.09 0.05 0.05 0.02 0.00 0.00 0.00 0.00 0.00 0.00 0.00 0.00 0.00 0.00 0.00 0.00 0.00 0.01 0.01 0.01
0.17 0.23 0.21 0.12 0.08 0.04 0.03 0.11 0.27 0.48 0.47 0.65 0.88 0.94 0.49 0.40 0.38 0.11 0.07 0.01 0.00 0.00 0.01 0.01 0.03 0.05 0.04 0.28 0.27 0.05 0.01 0.10 0.16 0.13 0.09 0.04 0.02 0.01 0.00 0.00 0.00 0.00 0.00 0.00 0.00 0.00 0.00 0.01 0.00 0.00 0.00 0.01 0.00 0.01
0.42 0.31 0.20 0.11 0.09 0.06 0.06 0.20 0.42 0.72 0.96 0.92 0.93 0.70 0.25 0.13 0.03 0.00 0.01 0.03 0.01 0.00 0.00 0.01 0.03 0.03 0.01 0.15 0.30 0.07 0.04 0.03 0.04 0.06 0.06 0.02 0.01 0.01 0.00 0.00 0.00 0.00 0.00 0.00 0.00 0.00 0.01 0.01 0.00 0.01 0.00 0.00 0.00 0.00
0.56 0.25 0.17 0.12 0.11 0.12 0.18 0.41 0.62 0.83 0.93 0.68 0.55 0.30 0.04 0.03 0.02 0.03 0.04 0.02 0.01 0.00 0.01 0.01 0.02 0.04 0.01 0.07 0.06 0.08 0.05 0.03 0.02 0.06 0.02 0.03 0.01 0.00 0.00 0.00 0.00 0.00 0.00 0.00 0.00 0.00 0.00 0.00 0.00 0.01 0.01 0.00 0.00 0.00
0.52 0.42 0.22 0.15 0.18 0.24 0.38 0.56 0.70 0.57 0.54 0.29 0.23 0.28 0.11 0.02 0.02 0.02 0.04 0.02 0.01 0.01 0.02 0.05 0.03 0.03 0.01 0.01 0.02 0.02 0.04 0.09 0.08 0.01 0.02 0.02 0.01 0.00 0.00 0.00 0.00 0.00 0.00 0.00 0.00 0.00 0.00 0.00 0.01 0.01 0.01 0.00 0.00 0.00
0.39 0.44 0.32 0.24 0.22 0.26 0.34 0.47 0.48 0.41 0.36 0.17 0.11 0.14 0.15 0.06 0.02 0.02 0.02 0.04 0.03 0.04 0.04 0.04 0.02 0.01 0.01 0.01 0.00 0.01 0.02 0.01 0.01 0.02 0.02 0.00 0.00 0.00 0.00 0.00 0.00 0.00 0.00 0.00 0.00 0.00 0.00 0.00 0.00 0.00 0.02 0.01 0.01 0.01
0.28 0.22 0.15 0.16 0.25 0.41 0.49 0.32 0.24 0.20 0.15 0.07 0.08 0.10 0.09 0.06 0.02 0.02 0.04 0.05 0.03 0.01 0.03 0.02 0.00 0.01 0.02 0.03 0.03 0.00 0.01 0.03 0.02 0.01 0.01 0.00 0.00 0.00 0.00 0.00 0.00 0.00 0.00 0.00 0.00 0.00 0.00 0.00 0.02 0.04 0.01 0.01 0.01 0.01
0.31 0.23 0.17 0.13 0.16 0.24 0.34 0.18 0.10 0.11 0.04 0.06 0.06 0.05 0.04 0.04 0.02 0.02 0.01 0.01 0.00 0.00 0.00 0.00 0.00 0.02 0.02 0.00 0.00 0.00 0.01 0.01 0.03 0.03 0.02 0.01 0.00 0.00 0.01 0.00 0.00 0.01 0.00 0.00 0.01 0.03 0.03 0.01 0.02 0.01 0.01 0.01 0.02 0.01
0.36 0.28 0.22 0.16 0.10 0.15 0.09 0.07 0.02 0.04 0.02 0.07 0.05 0.04 0.02 0.02 0.01 0.01 0.02 0.00 0.00 0.00 0.01 0.00 0.01 0.00 0.00 0.00 0.00 0.00 0.00 0.00 0.00 0.01 0.03 0.02 0.01 0.01 0.01 0.01 0.01 0.01 0.01 0.01 0.01 0.01 0.01 0.01 0.01 0.00 0.00 0.01 0.02 0.03
0.38 0.38 0.26 0.16 0.19 0.18 0.09 0.01 0.00 0.02 0.01 0.08 0.06 0.02 0.03 0.03 0.03 0.02 0.02 0.01 0.03 0.03 0.02 0.00 0.01 0.01 0.00 0.00 0.00 0.00 0.00 0.00 0.00 0.00 0.01 0.01 0.01 0.01 0.01 0.02 0.01 0.01 0.01 0.01 0.01 0.02 0.02 0.01 0.01 0.00 0.00 0.01 0.01 0.01
0.26 0.22 0.25 0.17 0.25 0.15 0.12 0.00 0.00 0.00 0.02 0.08 0.07 0.02 0.03 0.05 0.04 0.03 0.00 0.02 0.03 0.01 0.00 0.00 0.00 0.00 0.00 0.00 0.00 0.00 0.00 0.00 0.00 0.00 0.00 0.00 0.01 0.01 0.01 0.01 0.01 0.01 0.01 0.02 0.01 0.01 0.02 0.01 0.00 0.00 0.00 0.01 0.00 0.01
0.07 0.10 0.10 0.11 0.20 0.12 0.12 0.01 0.01 0.01 0.02 0.07 0.05 0.04 0.03 0.02 0.01 0.00 0.02 0.01 0.01 0.01 0.00 0.00 0.00 0.00 0.00 0.00 0.00 0.00 0.00 0.00 0.00 0.00 0.00 0.00 0.00 0.00 0.00 0.00 0.00 0.00 0.00 0.00 0.00 0.00 0.00 0.00 0.00 0.00 0.00 0.01 0.01 0.01
0.07 0.11 0.10 0.07 0.11 0.10 0.10 0.04 0.01 0.01 0.02 0.03 0.03 0.03 0.01 0.01 0.00 0.00 0.01 0.00 0.02 0.02 0.00 0.00 0.00 0.00 0.00 0.00 0.00 0.00 0.00 0.00 0.00 0.00 0.00 0.00 0.00 0.00 0.00 0.00 0.00 0.00 0.00 0.00 0.00 0.00 0.00 0.01 0.01 0.00 0.01 0.01 0.01 0.01
0.17 0.12 0.10 0.07 0.10 0.04 0.04 0.04 0.02 0.00 0.01 0.01 0.01 0.00 0.01 0.00 0.00 0.00 0.00 0.01 0.02 0.01 0.00 0.00 0.00 0.00 0.00 0.00 0.00 0.00 0.00 0.00 0.00 0.00 0.00 0.00 0.00 0.00 0.00 0.00 0.00 0.00 0.00 0.00 0.01 0.01 0.01 0.01 0.01 0.01 0.01 0.01 0.01 0.01
0.16 0.07 0.08 0.05 0.02 0.01 0.01 0.01 0.00 0.00 0.00 0.01 0.01 0.00 0.00 0.00 0.01 0.01 0.02 0.02 0.01 0.01 0.01 0.00 0.00 0.00 0.00 0.00 0.00 0.00 0.00 0.00 0.00 0.00 0.00 0.00 0.00 0.00 0.00 0.00 0.00 0.01 0.00 0.00 0.00 0.00 0.00 0.00 0.00 0.00 0.00 0.00 0.00 0.00
0.11 0.06 0.03 0.02 0.02 0.01 0.01 0.00 0.01 0.00 0.00 0.01 0.02 0.00 0.00 0.01 0.01 0.02 0.04 0.05 0.02 0.00 0.00 0.00 0.00 0.00 0.00 0.00 0.00 0.00 0.00 0.00 0.00 0.00 0.00 0.00 0.00 0.00 0.00 0.00 0.00 0.01 0.00 0.00 0.00 0.00 0.00 0.00 0.00 0.01 0.01 0.01 0.01 0.01
0.07 0.05 0.07 0.06 0.04 0.03 0.02 0.01 0.00 0.00 0.01 0.01 0.00 0.00 0.01 0.01 0.04 0.06 0.06 0.12 0.06 0.02 0.02 0.01 0.00 0.00 0.00 0.00 0.00 0.00 0.00 0.00 0.00 0.00 0.00 0.00 0.00 0.00 0.00 0.00 0.00 0.00 0.00 0.00 0.00 0.00 0.00 0.00 0.00 0.00 0.00 0.00 0.01 0.01
0.07 0.11 0.14 0.12 0.09 0.06 0.03 0.02 0.02 0.01 0.02 0.02 0.03 0.02 0.02 0.03 0.07 0.08 0.11 0.11 0.02 0.01 0.01 0.02 0.03 0.01 0.00 0.00 0.00 0.00 0.00 0.00 0.00 0.00 0.00 0.00 0.01 0.01 0.00 0.00 0.00 0.00 0.00 0.00 0.00 0.00 0.00 0.01 0.01 0.00 0.00 0.00 0.01 0.02
0.03 0.08 0.11 0.08 0.06 0.05 0.04 0.04 0.03 0.02 0.01 0.00 0.00 0.01 0.02 0.06 0.12 0.13 0.13 0.08 0.06 0.03 0.02 0.02 0.02 0.01 0.01 0.01 0.02 0.02 0.01 0.00 0.00 0.00 0.00 0.00 0.00 0.00 0.01 0.01 0.00 0.00 0.00 0.00 0.00 0.00 0.00 0.00 0.00 0.00 0.00 0.00 0.00 0.00
0.02 0.03 0.05 0.06 0.07 0.07 0.05 0.04 0.03 0.01 0.02 0.02 0.01 0.00 0.02 0.08 0.10 0.10 0.11 0.16 0.06 0.02 0.02 0.04 0.05 0.03 0.02 0.01 0.01 0.01 0.01 0.00 0.00 0.00 0.00 0.00 0.00 0.00 0.00 0.00 0.00 0.00 0.00 0.00 0.00 0.00 0.00 0.00 0.00 0.00 0.00 0.00 0.00 0.00
0.05 0.05 0.04 0.05 0.06 0.07 0.06 0.06 0.03 0.02 0.03 0.02 0.01 0.01 0.03 0.02 0.04 0.07 0.09 0.12 0.08 0.05 0.05 0.02 0.02 0.05 0.03 0.02 0.01 0.00 0.00 0.00 0.00 0.00 0.00 0.00 0.00 0.00 0.00 0.00 0.00 0.00 0.00 0.00 0.00 0.00 0.00 0.00 0.00 0.00 0.00 0.00 0.00 0.00
0.02 0.02 0.03 0.02 0.04 0.04 0.03 0.04 0.02 0.02 0.03 0.02 0.02 0.04 0.05 0.02 0.02 0.04 0.07 0.10 0.12 0.04 0.03 0.02 0.02 0.03 0.01 0.00 0.00 0.00 0.00 0.00 0.00 0.00 0.00 0.00 0.00 0.00 0.00 0.00 0.00 0.00 0.00 0.00 0.00 0.00 0.00 0.00 0.00 0.00 0.00 0.00 0.00 0.00

GFSWCAN_prec_precacc24_114.txt.gz
Total_Precipitation_Accumulation
0.26 0.24 0.19 0.09 0.05 0.04 0.03 0.04 0.03 0.03 0.03 0.02 0.02 0.01 0.00 0.00 0.02 0.16 0.21 0.05 0.06 0.05 0.01 0.00 0.00 0.00 0.00 0.01 0.01 0.00 0.02 0.01 0.00 0.02 0.02 0.02 0.03 0.01 0.16 0.09 0.02 0.02 0.07 0.05 0.06 0.03 0.05 0.01 0.01 0.05 0.14 0.11 0.06 0.06
0.32 0.24 0.14 0.12 0.07 0.05 0.03 0.02 0.02 0.03 0.03 0.02 0.01 0.00 0.00 0.00 0.00 0.09 0.20 0.11 0.11 0.12 0.02 0.00 0.00 0.00 0.00 0.00 0.01 0.00 0.01 0.03 0.02 0.03 0.03 0.02 0.02 0.02 0.06 0.31 0.04 0.06 0.05 0.04 0.07 0.14 0.19 0.07 0.07 0.10 0.06 0.07 0.12 0.10
0.32 0.22 0.13 0.08 0.10 0.06 0.02 0.02 0.02 0.03 0.03 0.03 0.01 0.01 0.00 0.01 0.01 0.06 0.13 0.11 0.17 0.14 0.02 0.00 0.02 0.01 0.00 0.00 0.00 0.01 0.06 0.03 0.04 0.01 0.02 0.02 0.06 0.06 0.11 0.17 0.08 0.06 0.02 0.06 0.14 0.23 0.18 0.10 0.07 0.07 0.08 0.20 0.19 0.08
0.28 0.16 0.11 0.08 0.09 0.06 0.02 0.02 0.02 0.02 0.03 0.04 0.03 0.02 0.02 0.02 0.03 0.07 0.12 0.06 0.06 0.14 0.05 0.05 0.02 0.01 0.00 0.00 0.00 0.00 0.02 0.00 0.01 0.03 0.02 0.02 0.03 0.07 0.09 0.13 0.05 0.02 0.02 0.05 0.16 0.16 0.16 0.08 0.13 0.13 0.10 0.07 0.06 0.02
0.25 0.19 0.14 0.11 0.08 0.04 0.03 0.03 0.02 0.02 0.03 0.03 0.02 0.03 0.02 0.03 0.03 0.10 0.15 0.11 0.05 0.17 0.13 0.03 0.04 0.01 0.00 0.00 0.00 0.00 0.00 0.00 0.01 0.03 0.07 0.08 0.09 0.08 0.09 0.16 0.08 0.02 0.07 0.12 0.15 0.09 0.13 0.14 0.17 0.17 0.15 0.11 0.05 0.02
0.22 0.23 0.21 0.12 0.07 0.06 0.04 0.03 0.02 0.02 0.03 0.04 0.04 0.07 0.03 0.03 0.10 0.19 0.20 0.09 0.06 0.18 0.29 0.06 0.06 0.02 0.00 0.00 0.00 0.00 0.00 0.01 0.01 0.02 0.09 0.10 0.07 0.13 0.08 0.13 0.06 0.11 0.08 0.13 0.15 0.10 0.10 0.13 0.12 0.10 0.08 0.06 0.01 0.00
0.20 0.20 0.19 0.14 0.09 0.05 0.04 0.04 0.02 0.02 0.02 0.05 0.09 0.10 0.06 0.05 0.17 0.21 0.12 0.16 0.08 0.20 0.37 0.08 0.07 0.04 0.00 0.00 0.00 0.00 0.00 0.02 0.01 0.02 0.06 0.06 0.10 0.12 0.13 0.09 0.03 0.03 0.02 0.03 0.05 0.05 0.07 0.04 0.03 0.00 0.00 0.00 0.00 0.00
0.16 0.15 0.15 0.13 0.09 0.06 0.05 0.04 0.02 0.02 0.03 0.08 0.16 0.13 0.11 0.20 0.31 0.24 0.08 0.16 0.08 0.21 0.15 0.08 0.07 0.08 0.01 0.02 0.03 0.01 0.01 0.01 0.02 0.05 0.03 0.04 0.10 0.19 0.18 0.03 0.00 0.00 0.00 0.00 0.00 0.00 0.01 0.00 0.00 0.00 0.00 0.00 0.00 0.00
0.14 0.15 0.13 0.11 0.06 0.05 0.05 0.03 0.02 0.03 0.07 0.16 0.34 0.52 0.51 0.36 0.23 0.15 0.15 0.12 0.11 0.24 0.14 0.04 0.03 0.16 0.07 0.10 0.09 0.06 0.03 0.04 0.08 0.06 0.02 0.06 0.09 0.13 0.10 0.01 0.00 0.00 0.00 0.00 0.00 0.00 0.00 0.00 0.00 0.00 0.00 0.00 0.00 0.00
0.12 0.11 0.11 0.09 0.05 0.05 0.03 0.02 0.03 0.06 0.16 0.37 0.76 0.78 0.42 0.22 0.14 0.20 0.31 0.16 0.15 0.10 0.07 0.03 0.01 0.09 0.10 0.14 0.08 0.07 0.05 0.08 0.15 0.08 0.03 0.04 0.05 0.05 0.03 0.00 0.00 0.00 0.00 0.00 0.00 0.01 0.00 0.00 0.00 0.00 0.00 0.00 0.00 0.01
0.10 0.09 0.09 0.06 0.04 0.04 0.03 0.02 0.05 0.16 0.46 0.63 0.70 0.54 0.32 0.26 0.21 0.29 0.16 0.09 0.06 0.04 0.02 0.00 0.00 0.08 0.09 0.14 0.15 0.09 0.15 0.13 0.10 0.16 0.04 0.07 0.06 0.04 0.01 0.00 0.00 0.00 0.00 0.00 0.00 0.00 0.00 0.00 0.00 0.00 0.00 0.00 0.00 0.01
0.11 0.11 0.09 0.07 0.04 0.03 0.03 0.04 0.11 0.35 0.41 0.22 0.46 0.62 0.59 0.56 0.39 0.24 0.10 0.04 0.03 0.00 0.00 0.00 0.00 0.05 0.17 0.18 0.35 0.13 0.06 0.14 0.12 0.16 0.06 0.05 0.04 0.01 0.00 0.00 0.00 0.00 0.00 0.00 0.00 0.00 0.00 0.00 0.00 0.00 0.00 0.01 0.01 0.01
0.13 0.12 0.12 0.08 0.05 0.03 0.03 0.06 0.15 0.32 0.40 0.52 0.75 0.82 0.45 0.33 0.31 0.10 0.05 0.01 0.00 0.00 0.01 0.00 0.02 0.04 0.03 0.09 0.22 0.05 0.01 0.08 0.15 0.12 0.07 0.03 0.02 0.01 0.00 0.00 0.00 0.00 0.00 0.00 0.00 0.00 0.00 0.00 0.00 0.00 0.00 0.00 0.00 0.00
0.19 0.17 0.16 0.10 0.07 0.05 0.03 0.09 0.29 0.52 0.79 0.66 0.74 0.57 0.20 0.11 0.03 0.00 0.01 0.03 0.01 0.00 0.00 0.01 0.02 0.03 0.01 0.07 0.20 0.06 0.04 0.03 0.04 0.06 0.06 0.02 0.01 0.00 0.00 0.00 0.00 0.00 0.00 0.00 0.00 0.00 0.00 0.00 0.00 0.00 0.00 0.00 0.00 0.00
0.34 0.23 0.17 0.11 0.09 0.06 0.08 0.19 0.47 0.70 0.82 0.59 0.53 0.30 0.04 0.03 0.01 0.03 0.04 0.02 0.01 0.00 0.01 0.01 0.02 0.04 0.01 0.07 0.06 0.08 0.05 0.03 0.02 0.06 0.02 0.02 0.01 0.00 0.00 0.00 0.00 0.00 0.00 0.00 0.00 0.00 0.00 0.00 0.00 0.00 0.00 0.00 0.00 0.00
0.45 0.39 0.17 0.14 0.16 0.20 0.28 0.45 0.65 0.54 0.54 0.29 0.23 0.28 0.12 0.03 0.02 0.02 0.04 0.01 0.00 0.01 0.02 0.05 0.02 0.03 0.01 0.01 0.02 0.02 0.05 0.09 0.08 0.01 0.02 0.01 0.00 0.00 0.00 0.00 0.00 0.00 0.00 0.00 0.00 0.00 0.00 0.00 0.00 0.01 0.01 0.00 0.00 0.00
0.36 0.37 0.24 0.22 0.20 0.25 0.34 0.46 0.45 0.40 0.36 0.17 0.10 0.15 0.16 0.06 0.02 0.02 0.03 0.02 0.01 0.03 0.04 0.04 0.02 0.01 0.01 0.01 0.00 0.01 0.02 0.01 0.01 0.02 0.02 0.00 0.00 0.00 0.00 0.00 0.00 0.00 0.00 0.00 0.00 0.00 0.00 0.00 0.00 0.00 0.02 0.01 0.00 0.00
0.27 0.21 0.13 0.15 0.23 0.39 0.48 0.32 0.24 0.20 0.15 0.07 0.08 0.11 0.11 0.07 0.03 0.03 0.04 0.04 0.02 0.01 0.03 0.02 0.00 0.01 0.02 0.03 0.03 0.00 0.01 0.02 0.02 0.02 0.01 0.00 0.00 0.00 0.00 0.00 0.00 0.00 0.00 0.00 0.00 0.00 0.00 0.00 0.02 0.04 0.01 0.01 0.01 0.00
0.31 0.21 0.16 0.12 0.15 0.22 0.32 0.18 0.10 0.11 0.04 0.05 0.05 0.04 0.05 0.05 0.02 0.03 0.01 0.03 0.00 0.00 0.00 0.00 0.00 0.02 0.02 0.00 0.00 0.00 0.01 0.01 0.03 0.02 0.01 0.01 0.00 0.00 0.00 0.00 0.00 0.00 0.00 0.00 0.01 0.02 0.02 0.01 0.01 0.01 0.01 0.01 0.01 0.01
0.32 0.25 0.22 0.16 0.10 0.15 0.09 0.07 0.02 0.04 0.02 0.07 0.05 0.03 0.02 0.02 0.01 0.01 0.02 0.01 0.00 0.00 0.01 0.00 0.00 0.00 0.00 0.00 0.00 0.00 0.00 0.00 0.00 0.01 0.02 0.01 0.01 0.01 0.01 0.01 0.01 0.01 0.01 0.01 0.01 0.01 0.01 0.01 0.01 0.00 0.00 0.00 0.01 0.02
0.41 0.40 0.26 0.16 0.19 0.18 0.08 0.01 0.00 0.02 0.02 0.07 0.06 0.02 0.03 0.02 0.03 0.02 0.02 0.01 0.03 0.03 0.01 0.00 0.00 0.01 0.00 0.00 0.00 0.00 0.00 0.00 0.00 0.00 0.01 0.01 0.01 0.01 0.01 0.02 0.01 0.01 0.01 0.01 0.01 0.01 0.01 0.01 0.01 0.00 0.00 0.01 0.01 0.01
0.35 0.25 0.25 0.17 0.25 0.15 0.12 0.00 0.00 0.00 0.02 0.08 0.07 0.02 0.03 0.04 0.04 0.03 0.00 0.02 0.02 0.01 0.00 0.00 0.00 0.00 0.00 0.00 0.00 0.00 0.00 0.00 0.00 0.00 0.00 0.00 0.01 0.01 0.01 0.01 0.01 0.01 0.01 0.01 0.01 0.01 0.02 0.01 0.00 0.00 0.00 0.01 0.00 0.01
0.07 0.10 0.10 0.11 0.20 0.13 0.18 0.02 0.01 0.01 0.03 0.08 0.06 0.04 0.03 0.02 0.01 0.00 0.02 0.01 0.01 0.01 0.00 0.00 0.00 0.00 0.00 0.00 0.00 0.00 0.00 0.00 0.00 0.00 0.00 0.00 0.00 0.00 0.00 0.00 0.00 0.00 0.00 0.00 0.00 0.00 0.00 0.00 0.00 0.00 0.00 0.01 0.01 0.01
0.07 0.11 0.10 0.07 0.11 0.13 0.19 0.05 0.02 0.03 0.04 0.05 0.03 0.03 0.02 0.01 0.00 0.00 0.01 0.00 0.01 0.01 0.00 0.00 0.00 0.00 0.00 0.00 0.00 0.00 0.00 0.00 0.00 0.00 0.00 0.00 0.00 0.00 0.00 0.00 0.00 0.00 0.00 0.00 0.00 0.00 0.00 0.01 0.01 0.00 0.01 0.01 0.01 0.01
0.17 0.12 0.10 0.07 0.11 0.06 0.06 0.05 0.03 0.02 0.02 0.01 0.01 0.01 0.01 0.00 0.00 0.00 0.00 0.01 0.02 0.01 0.00 0.00 0.00 0.00 0.00 0.00 0.00 0.00 0.00 0.00 0.00 0.00 0.00 0.00 0.00 0.00 0.00 0.00 0.00 0.00 0.00 0.00 0.01 0.01 0.01 0.01 0.01 0.01 0.01 0.01 0.00 0.00
0.16 0.07 0.08 0.05 0.02 0.03 0.01 0.01 0.01 0.00 0.00 0.01 0.01 0.00 0.00 0.00 0.01 0.01 0.02 0.02 0.01 0.01 0.01 0.00 0.00 0.00 0.00 0.00 0.00 0.00 0.00 0.00 0.00 0.00 0.00 0.00 0.00 0.00 0.00 0.00 0.00 0.01 0.00 0.00 0.00 0.00 0.00 0.00 0.00 0.00 0.00 0.00 0.00 0.00
0.11 0.06 0.03 0.02 0.02 0.01 0.01 0.01 0.01 0.00 0.00 0.01 0.02 0.00 0.00 0.01 0.01 0.02 0.04 0.05 0.02 0.01 0.00 0.00 0.00 0.00 0.00 0.00 0.00 0.00 0.00 0.00 0.00 0.00 0.00 0.00 0.00 0.00 0.00 0.00 0.00 0.01 0.00 0.00 0.00 0.00 0.00 0.00 0.00 0.00 0.00 0.00 0.01 0.01
0.07 0.05 0.07 0.06 0.05 0.04 0.02 0.01 0.00 0.00 0.01 0.00 0.00 0.00 0.01 0.01 0.03 0.05 0.05 0.11 0.07 0.03 0.02 0.01 0.00 0.00 0.00 0.00 0.00 0.00 0.00 0.00 0.00 0.00 0.00 0.00 0.00 0.00 0.00 0.00 0.00 0.00 0.00 0.00 0.00 0.00 0.00 0.00 0.00 0.00 0.00 0.00 0.00 0.01
0.07 0.12 0.14 0.13 0.11 0.06 0.03 0.02 0.01 0.01 0.01 0.02 0.03 0.02 0.02 0.03 0.06 0.07 0.10 0.11 0.03 0.01 0.01 0.02 0.04 0.01 0.00 0.00 0.00 0.00 0.00 0.00 0.00 0.00 0.00 0.00 0.01 0.01 0.00 0.00 0.00 0.00 0.00 0.00 0.00 0.00 0.00 0.00 0.01 0.00 0.00 0.00 0.01 0.01
0.03 0.08 0.12 0.10 0.09 0.06 0.04 0.03 0.03 0.02 0.01 0.00 0.00 0.01 0.02 0.04 0.08 0.12 0.13 0.08 0.06 0.03 0.02 0.02 0.03 0.01 0.01 0.01 0.03 0.03 0.02 0.00 0.00 0.00 0.00 0.00 0.00 0.00 0.00 0.00 0.00 0.00 0.00 0.00 0.00 0.00 0.00 0.00 0.00 0.00 0.00 0.00 0.00 0.00
0.02 0.03 0.05 0.07 0.07 0.07 0.06 0.05 0.04 0.02 0.02 0.02 0.01 0.00 0.02 0.06 0.08 0.08 0.11 0.16 0.06 0.02 0.02 0.04 0.06 0.04 0.03 0.02 0.02 0.02 0.02 0.00 0.00 0.00 0.00 0.00 0.00 0.00 0.00 0.00 0.00 0.00 0.00 0.00 0.00 0.00 0.00 0.00 0.00 0.00 0.00 0.00 0.00 0.00
0.06 0.06 0.05 0.07 0.08 0.08 0.08 0.08 0.05 0.03 0.04 0.02 0.02 0.01 0.03 0.02 0.04 0.06 0.09 0.12 0.08 0.05 0.05 0.02 0.03 0.06 0.05 0.04 0.03 0.01 0.00 0.00 0.00 0.00 0.00 0.00 0.00 0.00 0.00 0.00 0.00 0.00 0.00 0.00 0.00 0.00 0.00 0.00 0.00 0.00 0.00 0.00 0.00 0.00
0.03 0.03 0.04 0.04 0.05 0.05 0.06 0.07 0.04 0.03 0.03 0.02 0.03 0.04 0.05 0.02 0.02 0.04 0.07 0.11 0.12 0.05 0.03 0.02 0.03 0.04 0.02 0.01 0.00 0.00 0.00 0.00 0.00 0.00 0.00 0.00 0.00 0.00 0.00 0.00 0.00 0.00 0.00 0.00 0.00 0.00 0.00 0.00 0.00 0.00 0.00 0.00 0.00 0.00

GFSWCAN_prec_precacc24_117.txt.gz
Total_Precipitation_Accumulation
0.29 0.25 0.22 0.20 0.17 0.14 0.14 0.14 0.10 0.07 0.05 0.04 0.04 0.02 0.00 0.00 0.00 0.08 0.16 0.03 0.03 0.04 0.01 0.00 0.00 0.00 0.00 0.01 0.01 0.00 0.02 0.01 0.00 0.02 0.02 0.02 0.03 0.01 0.17 0.10 0.03 0.02 0.08 0.08 0.12 0.09 0.08 0.03 0.03 0.06 0.15 0.12 0.06 0.06
0.36 0.26 0.19 0.22 0.17 0.12 0.07 0.03 0.02 0.03 0.03 0.02 0.01 0.00 0.00 0.00 0.00 0.04 0.16 0.10 0.08 0.07 0.02 0.00 0.00 0.00 0.00 0.00 0.01 0.00 0.01 0.03 0.02 0.03 0.02 0.01 0.02 0.02 0.07 0.37 0.04 0.05 0.04 0.07 0.10 0.14 0.16 0.09 0.09 0.11 0.06 0.07 0.11 0.08
0.36 0.24 0.18 0.14 0.14 0.09 0.03 0.02 0.01 0.02 0.03 0.03 0.01 0.01 0.00 0.00 0.01 0.03 0.11 0.10 0.11 0.06 0.01 0.00 0.02 0.01 0.00 0.00 0.00 0.01 0.06 0.03 0.04 0.01 0.02 0.02 0.04 0.05 0.12 0.19 0.10 0.08 0.02 0.06 0.13 0.13 0.07 0.08 0.06 0.06 0.04 0.08 0.14 0.05
0.32 0.20 0.17 0.15 0.13 0.08 0.03 0.02 0.01 0.02 0.03 0.04 0.02 0.01 0.01 0.01 0.02 0.05 0.09 0.05 0.04 0.06 0.03 0.05 0.02 0.01 0.00 0.00 0.00 0.00 0.02 0.00 0.01 0.03 0.02 0.02 0.02 0.07 0.09 0.13 0.05 0.03 0.03 0.05 0.12 0.11 0.08 0.05 0.06 0.06 0.03 0.02 0.02 0.01
0.26 0.21 0.20 0.16 0.10 0.05 0.02 0.02 0.01 0.01 0.03 0.03 0.02 0.02 0.01 0.01 0.01 0.06 0.11 0.10 0.04 0.11 0.11 0.03 0.04 0.01 0.00 0.00 0.00 0.00 0.00 0.00 0.01 0.03 0.06 0.07 0.09 0.07 0.08 0.14 0.08 0.01 0.04 0.10 0.12 0.05 0.08 0.07 0.06 0.04 0.03 0.03 0.01 0.00
0.20 0.28 0.26 0.13 0.08 0.05 0.03 0.02 0.02 0.02 0.03 0.03 0.01 0.03 0.02 0.02 0.06 0.13 0.11 0.05 0.03 0.09 0.18 0.05 0.06 0.02 0.00 0.00 0.00 0.00 0.00 0.01 0.01 0.01 0.05 0.08 0.07 0.12 0.07 0.12 0.06 0.04 0.03 0.08 0.10 0.04 0.03 0.05 0.04 0.02 0.02 0.02 0.00 0.00
0.26 0.28 0.22 0.15 0.10 0.05 0.03 0.04 0.03 0.03 0.02 0.03 0.03 0.06 0.05 0.03 0.09 0.13 0.07 0.16 0.06 0.12 0.19 0.07 0.07 0.04 0.00 0.00 0.00 0.00 0.00 0.02 0.01 0.02 0.05 0.06 0.10 0.12 0.12 0.09 0.03 0.01 0.02 0.02 0.04 0.04 0.05 0.02 0.01 0.00 0.00 0.00 0.00 0.00
0.22 0.17 0.16 0.13 0.09 0.06 0.05 0.05 0.03 0.02 0.02 0.04 0.06 0.08 0.08 0.08 0.12 0.11 0.05 0.16 0.07 0.17 0.13 0.08 0.08 0.08 0.01 0.02 0.03 0.01 0.01 0.01 0.02 0.05 0.03 0.04 0.10 0.18 0.18 0.03 0.00 0.00 0.00 0.00 0.00 0.00 0.01 0.00 0.00 0.00 0.00 0.00 0.00 0.00
0.13 0.14 0.13 0.11 0.05 0.04 0.06 0.03 0.03 0.03 0.03 0.07 0.16 0.31 0.35 0.27 0.18 0.11 0.12 0.11 0.11 0.23 0.14 0.04 0.03 0.16 0.06 0.07 0.07 0.04 0.03 0.03 0.08 0.05 0.02 0.06 0.09 0.12 0.11 0.01 0.00 0.00 0.00 0.00 0.00 0.00 0.00 0.00 0.00 0.00 0.00 0.00 0.00 0.00
0.12 0.11 0.11 0.08 0.04 0.04 0.04 0.03 0.04 0.04 0.07 0.20 0.48 0.48 0.35 0.17 0.11 0.15 0.22 0.14 0.13 0.10 0.06 0.02 0.01 0.09 0.09 0.11 0.07 0.05 0.05 0.08 0.15 0.08 0.03 0.03 0.04 0.05 0.02 0.00 0.00 0.00 0.00 0.00 0.00 0.01 0.00 0.00 0.00 0.00 0.00 0.00 0.00 0.00
0.11 0.09 0.08 0.05 0.04 0.03 0.04 0.03 0.04 0.10 0.23 0.36 0.46 0.33 0.25 0.18 0.19 0.23 0.14 0.07 0.05 0.03 0.01 0.00 0.00 0.08 0.09 0.12 0.14 0.09 0.14 0.13 0.10 0.17 0.04 0.06 0.06 0.03 0.01 0.00 0.00 0.00 0.00 0.00 0.00 0.00 0.00 0.00 0.00 0.00 0.00 0.00 0.00 0.00
0.13 0.11 0.09 0.06 0.03 0.03 0.03 0.03 0.06 0.15 0.19 0.13 0.34 0.56 0.52 0.39 0.31 0.21 0.09 0.03 0.03 0.00 0.00 0.00 0.00 0.05 0.17 0.13 0.32 0.13 0.05 0.08 0.11 0.14 0.04 0.05 0.04 0.01 0.00 0.00 0.00 0.00 0.00 0.00 0.00 0.00 0.00 0.00 0.00 0.00 0.00 0.00 0.01 0.00
0.16 0.12 0.11 0.07 0.04 0.02 0.02 0.03 0.04 0.14 0.31 0.43 0.62 0.75 0.41 0.28 0.25 0.09 0.04 0.01 0.00 0.00 0.01 0.00 0.01 0.04 0.03 0.05 0.16 0.05 0.01 0.06 0.12 0.11 0.07 0.03 0.02 0.00 0.00 0.00 0.00 0.00 0.00 0.00 0.00 0.00 0.00 0.00 0.00 0.00 0.00 0.00 0.00 0.00
0.16 0.13 0.13 0.09 0.06 0.04 0.02 0.05 0.13 0.30 0.63 0.51 0.54 0.43 0.18 0.10 0.03 0.00 0.01 0.03 0.01 0.00 0.00 0.01 0.02 0.02 0.01 0.02 0.10 0.06 0.04 0.02 0.04 0.06 0.06 0.01 0.01 0.00 0.00 0.00 0.00 0.00 0.00 0.00 0.00 0.00 0.00 0.00 0.00 0.00 0.00 0.00 0.00 0.00
0.19 0.15 0.17 0.11 0.07 0.04 0.05 0.12 0.24 0.44 0.61 0.40 0.39 0.24 0.04 0.04 0.02 0.03 0.04 0.02 0.01 0.00 0.01 0.01 0.01 0.03 0.01 0.05 0.05 0.07 0.04 0.03 0.02 0.06 0.02 0.02 0.01 0.00 0.00 0.00 0.00 0.00 0.00 0.00 0.00 0.00 0.00 0.00 0.00 0.00 0.00 0.00 0.00 0.00
0.30 0.37 0.16 0.12 0.09 0.09 0.13 0.25 0.48 0.44 0.39 0.24 0.21 0.28 0.12 0.03 0.02 0.01 0.04 0.01 0.00 0.01 0.02 0.05 0.02 0.02 0.01 0.01 0.02 0.02 0.05 0.09 0.08 0.01 0.02 0.01 0.00 0.00 0.00 0.00 0.00 0.00 0.00 0.00 0.00 0.00 0.00 0.00 0.00 0.01 0.01 0.00 0.00 0.00
0.34 0.28 0.19 0.16 0.12 0.15 0.24 0.39 0.38 0.34 0.24 0.15 0.11 0.15 0.16 0.06 0.02 0.02 0.03 0.01 0.00 0.02 0.04 0.04 0.02 0.01 0.01 0.01 0.00 0.01 0.02 0.01 0.01 0.02 0.02 0.00 0.00 0.00 0.00 0.00 0.00 0.00 0.00 0.00 0.00 0.00 0.00 0.00 0.00 0.00 0.02 0.01 0.00 0.00
0.25 0.15 0.08 0.11 0.19 0.36 0.43 0.28 0.20 0.19 0.12 0.06 0.08 0.11 0.11 0.08 0.04 0.06 0.05 0.03 0.01 0.01 0.03 0.02 0.00 0.01 0.02 0.03 0.03 0.00 0.01 0.02 0.02 0.01 0.01 0.00 0.00 0.00 0.00 0.00 0.00 0.00 0.00 0.00 0.00 0.00 0.00 0.00 0.02 0.04 0.01 0.01 0.01 0.00
0.29 0.16 0.12 0.10 0.15 0.21 0.26 0.16 0.10 0.11 0.04 0.04 0.04 0.04 0.06 0.04 0.02 0.03 0.02 0.04 0.01 0.00 0.00 0.00 0.00 0.02 0.02 0.00 0.00 0.00 0.01 0.01 0.02 0.02 0.01 0.00 0.00 0.00 0.00 0.00 0.00 0.00 0.00 0.00 0.01 0.02 0.02 0.00 0.01 0.00 0.01 0.01 0.01 0.01
0.31 0.23 0.21 0.16 0.09 0.13 0.09 0.06 0.02 0.04 0.02 0.04 0.03 0.03 0.02 0.01 0.01 0.01 0.02 0.02 0.00 0.00 0.01 0.00 0.00 0.00 0.00 0.00 0.00 0.00 0.00 0.00 0.00 0.01 0.02 0.01 0.01 0.00 0.00 0.01 0.01 0.00 0.00 0.01 0.01 0.00 0.00 0.01 0.01 0.00 0.00 0.00 0.01 0.01
0.41 0.40 0.26 0.16 0.19 0.17 0.08 0.01 0.00 0.02 0.02 0.06 0.05 0.02 0.02 0.02 0.02 0.02 0.02 0.01 0.03 0.03 0.01 0.00 0.00 0.00 0.00 0.00 0.00 0.00 0.00 0.00 0.00 0.00 0.01 0.01 0.00 0.01 0.01 0.02 0.01 0.01 0.01 0.01 0.01 0.01 0.01 0.01 0.01 0.00 0.00 0.01 0.01 0.01
0.36 0.25 0.25 0.17 0.25 0.15 0.12 0.00 0.00 0.00 0.02 0.07 0.07 0.02 0.02 0.03 0.03 0.02 0.00 0.02 0.02 0.00 0.00 0.00 0.00 0.00 0.00 0.00 0.00 0.00 0.00 0.00 0.00 0.00 0.00 0.00 0.00 0.00 0.01 0.01 0.01 0.01 0.01 0.01 0.01 0.01 0.02 0.01 0.00 0.00 0.00 0.01 0.00 0.01
0.07 0.10 0.10 0.11 0.20 0.13 0.20 0.02 0.01 0.02 0.03 0.08 0.06 0.04 0.03 0.02 0.01 0.00 0.02 0.01 0.01 0.00 0.00 0.00 0.00 0.00 0.00 0.00 0.00 0.00 0.00 0.00 0.00 0.00 0.00 0.00 0.00 0.00 0.00 0.00 0.00 0.00 0.00 0.00 0.00 0.00 0.00 0.00 0.00 0.00 0.00 0.01 0.01 0.01
0.07 0.11 0.10 0.07 0.11 0.13 0.23 0.06 0.03 0.04 0.04 0.06 0.04 0.04 0.02 0.01 0.00 0.00 0.01 0.00 0.01 0.00 0.00 0.00 0.00 0.00 0.00 0.00 0.00 0.00 0.00 0.00 0.00 0.00 0.00 0.00 0.00 0.00 0.00 0.00 0.00 0.00 0.00 0.00 0.00 0.00 0.00 0.01 0.01 0.00 0.01 0.01 0.01 0.01
0.17 0.12 0.10 0.07 0.11 0.06 0.09 0.06 0.04 0.02 0.02 0.02 0.02 0.01 0.01 0.00 0.00 0.00 0.00 0.01 0.01 0.01 0.00 0.00 0.00 0.00 0.00 0.00 0.00 0.00 0.00 0.00 0.00 0.00 0.00 0.00 0.00 0.00 0.00 0.00 0.00 0.00 0.00 0.00 0.01 0.01 0.01 0.01 0.01 0.01 0.01 0.01 0.00 0.00
0.16 0.07 0.08 0.05 0.02 0.03 0.02 0.02 0.01 0.00 0.01 0.03 0.02 0.00 0.00 0.00 0.01 0.01 0.02 0.02 0.01 0.01 0.01 0.00 0.00 0.00 0.00 0.00 0.00 0.00 0.00 0.00 0.00 0.00 0.00 0.00 0.00 0.00 0.00 0.00 0.00 0.01 0.00 0.00 0.00 0.00 0.00 0.00 0.00 0.00 0.00 0.00 0.00 0.00
0.11 0.06 0.03 0.02 0.02 0.02 0.01 0.01 0.01 0.00 0.00 0.01 0.02 0.00 0.00 0.01 0.01 0.02 0.04 0.05 0.02 0.01 0.01 0.00 0.00 0.00 0.00 0.00 0.00 0.00 0.00 0.00 0.00 0.00 0.00 0.00 0.00 0.00 0.00 0.00 0.00 0.01 0.00 0.00 0.00 0.00 0.00 0.00 0.00 0.00 0.00 0.00 0.00 0.01
0.07 0.05 0.07 0.06 0.05 0.04 0.02 0.01 0.00 0.00 0.00 0.00 0.00 0.00 0.01 0.01 0.03 0.04 0.05 0.11 0.07 0.03 0.02 0.01 0.00 0.00 0.00 0.00 0.00 0.00 0.00 0.00 0.00 0.00 0.00 0.00 0.00 0.00 0.00 0.00 0.00 0.00 0.00 0.00 0.00 0.00 0.00 0.00 0.00 0.00 0.00 0.00 0.00 0.01
0.07 0.12 0.14 0.13 0.11 0.07 0.03 0.02 0.01 0.01 0.00 0.01 0.03 0.02 0.01 0.02 0.05 0.06 0.09 0.11 0.03 0.01 0.01 0.02 0.04 0.01 0.00 0.01 0.01 0.01 0.00 0.00 0.00 0.00 0.00 0.00 0.01 0.01 0.00 0.00 0.00 0.00 0.00 0.00 0.00 0.00 0.00 0.00 0.00 0.00 0.00 0.00 0.01 0.01
0.03 0.08 0.12 0.10 0.09 0.06 0.04 0.03 0.03 0.01 0.00 0.00 0.00 0.00 0.01 0.03 0.06 0.11 0.13 0.08 0.06 0.03 0.02 0.03 0.04 0.02 0.01 0.01 0.04 0.04 0.03 0.00 0.00 0.00 0.00 0.00 0.00 0.00 0.00 0.00 0.00 0.00 0.00 0.00 0.00 0.00 0.00 0.00 0.00 0.00 0.00 0.00 0.00 0.00
0.02 0.03 0.05 0.07 0.07 0.07 0.06 0.05 0.04 0.02 0.02 0.03 0.01 0.01 0.02 0.04 0.06 0.06 0.10 0.15 0.07 0.03 0.03 0.04 0.06 0.05 0.03 0.03 0.02 0.02 0.03 0.01 0.00 0.00 0.00 0.00 0.00 0.00 0.00 0.00 0.00 0.00 0.00 0.00 0.00 0.00 0.00 0.00 0.00 0.00 0.00 0.00 0.00 0.00
0.06 0.06 0.05 0.07 0.08 0.09 0.10 0.11 0.06 0.04 0.04 0.03 0.02 0.02 0.03 0.03 0.04 0.06 0.08 0.12 0.09 0.06 0.06 0.03 0.03 0.07 0.07 0.07 0.05 0.02 0.00 0.00 0.00 0.00 0.00 0.00 0.00 0.00 0.00 0.00 0.00 0.00 0.00 0.00 0.00 0.00 0.00 0.00 0.00 0.00 0.00 0.00 0.00 0.00
0.04 0.04 0.05 0.05 0.05 0.05 0.07 0.09 0.05 0.04 0.03 0.03 0.03 0.04 0.05 0.02 0.03 0.04 0.07 0.11 0.13 0.06 0.05 0.03 0.04 0.06 0.04 0.03 0.01 0.01 0.00 0.00 0.00 0.00 0.00 0.00 0.00 0.00 0.00 0.00 0.00 0.00 0.00 0.00 0.00 0.00 0.00 0.00 0.00 0.00 0.00 0.00 0.00 0.00

GFSWCAN_prec_precacc24_123.txt.gz
Total_Precipitation_Accumulation
0.55 0.46 0.34 0.31 0.40 0.55 0.85 0.74 0.50 0.44 0.38 0.34 0.34 0.25 0.17 0.13 0.05 0.03 0.07 0.01 0.02 0.04 0.05 0.03 0.01 0.01 0.01 0.01 0.01 0.00 0.01 0.01 0.00 0.01 0.01 0.00 0.00 0.00 0.15 0.09 0.02 0.01 0.08 0.08 0.14 0.14 0.13 0.07 0.16 0.17 0.15 0.11 0.06 0.05
0.57 0.44 0.35 0.33 0.38 0.46 0.50 0.49 0.37 0.32 0.33 0.28 0.18 0.10 0.06 0.03 0.01 0.00 0.05 0.02 0.02 0.04 0.04 0.01 0.00 0.00 0.00 0.00 0.00 0.00 0.01 0.03 0.01 0.01 0.01 0.00 0.00 0.01 0.07 0.33 0.03 0.03 0.03 0.06 0.11 0.14 0.16 0.15 0.18 0.14 0.05 0.06 0.07 0.03
0.53 0.42 0.29 0.24 0.33 0.34 0.31 0.35 0.31 0.30 0.23 0.16 0.10 0.06 0.03 0.01 0.01 0.00 0.05 0.02 0.01 0.05 0.02 0.01 0.01 0.01 0.00 0.00 0.00 0.00 0.06 0.02 0.02 0.01 0.01 0.01 0.01 0.03 0.10 0.20 0.10 0.07 0.01 0.03 0.12 0.16 0.11 0.15 0.16 0.11 0.06 0.03 0.01 0.01
0.43 0.30 0.27 0.31 0.33 0.29 0.26 0.29 0.27 0.21 0.14 0.10 0.05 0.03 0.01 0.00 0.00 0.00 0.02 0.02 0.01 0.02 0.01 0.03 0.02 0.01 0.00 0.00 0.00 0.00 0.01 0.00 0.00 0.01 0.02 0.01 0.00 0.04 0.06 0.11 0.04 0.02 0.03 0.04 0.10 0.15 0.12 0.13 0.13 0.08 0.03 0.01 0.00 0.00
0.31 0.31 0.35 0.32 0.26 0.26 0.26 0.21 0.15 0.09 0.05 0.04 0.01 0.01 0.00 0.00 0.00 0.00 0.03 0.04 0.03 0.06 0.05 0.01 0.03 0.00 0.00 0.00 0.00 0.00 0.00 0.00 0.00 0.01 0.04 0.02 0.03 0.03 0.03 0.10 0.06 0.01 0.02 0.07 0.10 0.04 0.08 0.10 0.10 0.05 0.02 0.00 0.00 0.00
0.26 0.32 0.31 0.24 0.21 0.20 0.17 0.10 0.04 0.02 0.02 0.02 0.01 0.03 0.01 0.00 0.00 0.02 0.03 0.02 0.01 0.04 0.05 0.02 0.04 0.02 0.00 0.00 0.00 0.00 0.00 0.00 0.01 0.00 0.01 0.01 0.03 0.05 0.04 0.10 0.06 0.01 0.01 0.01 0.03 0.02 0.03 0.05 0.04 0.02 0.01 0.00 0.00 0.00
0.27 0.27 0.21 0.19 0.15 0.10 0.05 0.03 0.02 0.01 0.01 0.02 0.03 0.03 0.00 0.00 0.02 0.04 0.03 0.12 0.03 0.06 0.04 0.02 0.08 0.05 0.00 0.00 0.00 0.00 0.00 0.01 0.00 0.01 0.01 0.02 0.04 0.07 0.09 0.08 0.03 0.01 0.02 0.01 0.00 0.02 0.07 0.04 0.02 0.00 0.00 0.00 0.00 0.00
0.22 0.15 0.15 0.13 0.09 0.05 0.04 0.04 0.02 0.01 0.02 0.03 0.04 0.01 0.00 0.01 0.01 0.01 0.02 0.13 0.04 0.04 0.02 0.02 0.10 0.09 0.01 0.01 0.02 0.01 0.01 0.00 0.00 0.01 0.01 0.01 0.04 0.13 0.15 0.03 0.00 0.00 0.00 0.00 0.00 0.00 0.01 0.00 0.00 0.00 0.00 0.00 0.00 0.00
0.13 0.13 0.11 0.10 0.06 0.04 0.05 0.03 0.02 0.02 0.03 0.04 0.05 0.02 0.03 0.03 0.02 0.02 0.03 0.04 0.06 0.16 0.08 0.03 0.03 0.13 0.05 0.04 0.05 0.02 0.01 0.01 0.03 0.02 0.01 0.03 0.07 0.10 0.10 0.02 0.00 0.00 0.00 0.00 0.00 0.00 0.00 0.00 0.00 0.00 0.00 0.00 0.00 0.00
0.12 0.11 0.10 0.08 0.04 0.03 0.02 0.02 0.03 0.04 0.06 0.06 0.05 0.06 0.07 0.03 0.02 0.05 0.05 0.04 0.04 0.03 0.04 0.02 0.01 0.07 0.05 0.04 0.03 0.01 0.02 0.02 0.10 0.05 0.02 0.02 0.04 0.04 0.02 0.00 0.00 0.00 0.00 0.00 0.00 0.01 0.00 0.00 0.00 0.00 0.00 0.00 0.00 0.00
0.12 0.11 0.10 0.06 0.04 0.03 0.02 0.02 0.04 0.07 0.07 0.05 0.04 0.07 0.12 0.07 0.10 0.16 0.10 0.03 0.01 0.02 0.01 0.00 0.00 0.05 0.06 0.05 0.07 0.05 0.09 0.08 0.08 0.15 0.04 0.05 0.05 0.02 0.00 0.00 0.00 0.00 0.00 0.00 0.00 0.00 0.00 0.00 0.00 0.00 0.00 0.00 0.00 0.00
0.12 0.12 0.08 0.05 0.04 0.03 0.02 0.02 0.04 0.04 0.04 0.01 0.04 0.34 0.33 0.18 0.20 0.16 0.07 0.02 0.02 0.00 0.00 0.00 0.00 0.03 0.15 0.11 0.26 0.11 0.04 0.04 0.08 0.12 0.02 0.04 0.03 0.00 0.00 0.00 0.00 0.00 0.00 0.00 0.00 0.00 0.00 0.00 0.00 0.00 0.00 0.00 0.00 0.00
0.14 0.11 0.10 0.05 0.03 0.01 0.00 0.01 0.01 0.06 0.08 0.04 0.22 0.51 0.24 0.13 0.20 0.08 0.03 0.01 0.00 0.00 0.01 0.00 0.01 0.03 0.02 0.01 0.05 0.02 0.01 0.03 0.07 0.07 0.04 0.03 0.01 0.00 0.00 0.00 0.00 0.00 0.00 0.00 0.00 0.00 0.00 0.00 0.00 0.00 0.00 0.00 0.00 0.00
0.15 0.12 0.12 0.07 0.03 0.02 0.01 0.03 0.07 0.08 0.09 0.15 0.26 0.31 0.15 0.08 0.03 0.01 0.01 0.02 0.01 0.01 0.01 0.00 0.01 0.02 0.00 0.00 0.01 0.02 0.03 0.02 0.02 0.04 0.05 0.01 0.00 0.00 0.00 0.00 0.00 0.00 0.00 0.00 0.00 0.00 0.00 0.00 0.00 0.00 0.00 0.00 0.00 0.00
0.18 0.15 0.16 0.10 0.04 0.02 0.03 0.08 0.07 0.03 0.12 0.18 0.25 0.21 0.05 0.05 0.04 0.04 0.04 0.02 0.01 0.01 0.00 0.01 0.01 0.02 0.00 0.01 0.01 0.04 0.03 0.02 0.01 0.05 0.02 0.02 0.00 0.00 0.00 0.00 0.00 0.00 0.00 0.00 0.00 0.00 0.00 0.00 0.00 0.00 0.00 0.00 0.00 0.00
0.22 0.23 0.11 0.11 0.06 0.04 0.08 0.07 0.04 0.07 0.13 0.15 0.19 0.30 0.15 0.07 0.05 0.03 0.04 0.01 0.00 0.01 0.01 0.03 0.01 0.02 0.00 0.01 0.01 0.01 0.04 0.08 0.07 0.01 0.02 0.01 0.00 0.00 0.00 0.00 0.00 0.00 0.00 0.00 0.00 0.00 0.00 0.00 0.00 0.00 0.00 0.00 0.00 0.00
0.11 0.09 0.14 0.14 0.09 0.07 0.04 0.04 0.06 0.10 0.11 0.13 0.12 0.16 0.18 0.09 0.04 0.03 0.03 0.02 0.00 0.01 0.02 0.03 0.01 0.01 0.01 0.00 0.00 0.01 0.02 0.01 0.01 0.01 0.01 0.00 0.00 0.00 0.00 0.00 0.00 0.00 0.00 0.00 0.00 0.00 0.00 0.00 0.00 0.00 0.01 0.00 0.00 0.00
0.04 0.07 0.07 0.09 0.08 0.08 0.07 0.05 0.06 0.10 0.09 0.06 0.10 0.12 0.12 0.09 0.05 0.06 0.05 0.02 0.01 0.00 0.03 0.02 0.00 0.01 0.01 0.03 0.03 0.01 0.00 0.02 0.01 0.01 0.01 0.00 0.00 0.00 0.00 0.00 0.00 0.00 0.00 0.00 0.00 0.00 0.00 0.00 0.01 0.04 0.01 0.00 0.01 0.00
0.07 0.05 0.04 0.03 0.03 0.04 0.05 0.02 0.08 0.11 0.04 0.05 0.06 0.05 0.06 0.06 0.03 0.04 0.02 0.04 0.01 0.00 0.00 0.00 0.00 0.02 0.02 0.00 0.01 0.00 0.00 0.01 0.02 0.02 0.01 0.00 0.00 0.00 0.00 0.00 0.00 0.00 0.00 0.00 0.01 0.02 0.01 0.00 0.00 0.00 0.00 0.00 0.00 0.00
0.06 0.03 0.01 0.02 0.05 0.12 0.05 0.02 0.02 0.04 0.02 0.04 0.04 0.03 0.01 0.01 0.01 0.01 0.01 0.01 0.01 0.00 0.00 0.00 0.01 0.00 0.00 0.00 0.00 0.00 0.00 0.00 0.00 0.01 0.02 0.01 0.00 0.00 0.00 0.00 0.01 0.00 0.00 0.00 0.00 0.00 0.00 0.00 0.00 0.00 0.00 0.00 0.00 0.01
0.19 0.16 0.11 0.06 0.14 0.16 0.07 0.00 0.00 0.02 0.01 0.04 0.04 0.02 0.01 0.01 0.01 0.01 0.00 0.00 0.02 0.02 0.02 0.00 0.00 0.00 0.00 0.00 0.00 0.00 0.00 0.00 0.00 0.00 0.01 0.00 0.00 0.00 0.00 0.01 0.00 0.00 0.00 0.00 0.00 0.00 0.01 0.00 0.00 0.00 0.00 0.01 0.01 0.00
0.29 0.16 0.14 0.14 0.23 0.15 0.11 0.00 0.00 0.00 0.02 0.05 0.05 0.02 0.01 0.02 0.01 0.01 0.00 0.01 0.02 0.01 0.00 0.00 0.00 0.00 0.00 0.00 0.00 0.00 0.00 0.00 0.00 0.00 0.00 0.00 0.00 0.00 0.00 0.00 0.00 0.00 0.00 0.00 0.00 0.00 0.01 0.01 0.00 0.00 0.01 0.01 0.00 0.00
0.07 0.09 0.07 0.08 0.20 0.11 0.17 0.02 0.01 0.02 0.03 0.07 0.06 0.04 0.02 0.01 0.00 0.00 0.00 0.01 0.00 0.00 0.00 0.00 0.00 0.00 0.00 0.00 0.00 0.00 0.00 0.00 0.00 0.00 0.00 0.00 0.00 0.00 0.00 0.00 0.00 0.00 0.00 0.00 0.00 0.00 0.01 0.01 0.00 0.01 0.00 0.00 0.01 0.00
0.06 0.10 0.06 0.04 0.11 0.12 0.22 0.06 0.03 0.04 0.04 0.06 0.04 0.04 0.02 0.01 0.00 0.00 0.01 0.00 0.00 0.00 0.00 0.00 0.00 0.00 0.00 0.00 0.00 0.00 0.00 0.00 0.00 0.00 0.00 0.00 0.00 0.00 0.00 0.00 0.00 0.00 0.00 0.00 0.00 0.01 0.01 0.01 0.01 0.00 0.00 0.01 0.00 0.00
0.14 0.08 0.05 0.05 0.11 0.06 0.09 0.07 0.04 0.03 0.03 0.02 0.02 0.02 0.02 0.00 0.00 0.00 0.00 0.00 0.00 0.00 0.00 0.00 0.00 0.00 0.00 0.00 0.00 0.00 0.00 0.00 0.00 0.00 0.00 0.00 0.00 0.00 0.00 0.00 0.00 0.00 0.00 0.00 0.01 0.01 0.01 0.01 0.00 0.00 0.00 0.00 0.00 0.00
0.16 0.06 0.07 0.04 0.02 0.03 0.02 0.02 0.01 0.01 0.02 0.04 0.02 0.01 0.00 0.00 0.01 0.01 0.02 0.02 0.01 0.01 0.01 0.01 0.00 0.00 0.00 0.00 0.00 0.00 0.00 0.00 0.00 0.00 0.00 0.00 0.00 0.00 0.00 0.00 0.00 0.01 0.00 0.00 0.00 0.00 0.00 0.00 0.00 0.00 0.00 0.00 0.00 0.00
0.11 0.05 0.03 0.02 0.02 0.02 0.02 0.01 0.01 0.00 0.01 0.01 0.02 0.01 0.01 0.01 0.01 0.02 0.03 0.04 0.02 0.01 0.01 0.01 0.00 0.00 0.00 0.00 0.00 0.00 0.00 0.00 0.00 0.00 0.00 0.00 0.00 0.00 0.00 0.00 0.00 0.01 0.00 0.00 0.00 0.00 0.00 0.00 0.00 0.00 0.00 0.00 0.00 0.00
0.07 0.05 0.07 0.06 0.05 0.04 0.02 0.02 0.01 0.00 0.01 0.00 0.00 0.00 0.01 0.01 0.03 0.03 0.03 0.10 0.07 0.03 0.03 0.02 0.00 0.00 0.00 0.00 0.00 0.00 0.01 0.00 0.00 0.00 0.00 0.01 0.01 0.00 0.00 0.00 0.00 0.00 0.00 0.00 0.00 0.00 0.00 0.00 0.00 0.00 0.00 0.00 0.00 0.01
0.07 0.12 0.14 0.13 0.11 0.07 0.03 0.02 0.01 0.00 0.00 0.01 0.03 0.02 0.01 0.02 0.04 0.04 0.07 0.09 0.03 0.02 0.02 0.03 0.05 0.02 0.01 0.01 0.02 0.02 0.02 0.01 0.01 0.01 0.01 0.02 0.03 0.03 0.00 0.00 0.00 0.00 0.00 0.00 0.00 0.00 0.00 0.00 0.00 0.00 0.00 0.00 0.01 0.01
0.03 0.08 0.12 0.10 0.09 0.06 0.03 0.02 0.02 0.00 0.00 0.00 0.00 0.00 0.01 0.02 0.03 0.07 0.09 0.06 0.06 0.04 0.03 0.04 0.05 0.03 0.03 0.03 0.05 0.06 0.05 0.03 0.02 0.01 0.01 0.02 0.01 0.01 0.01 0.00 0.00 0.00 0.00 0.00 0.00 0.00 0.00 0.00 0.00 0.00 0.00 0.00 0.00 0.00
0.02 0.04 0.05 0.07 0.07 0.06 0.05 0.05 0.04 0.02 0.02 0.03 0.01 0.01 0.01 0.02 0.03 0.04 0.08 0.14 0.06 0.03 0.04 0.05 0.07 0.06 0.05 0.04 0.03 0.03 0.05 0.02 0.00 0.00 0.00 0.00 0.00 0.00 0.00 0.00 0.00 0.00 0.00 0.00 0.00 0.00 0.00 0.00 0.00 0.00 0.00 0.00 0.00 0.00
0.07 0.07 0.06 0.08 0.08 0.09 0.10 0.11 0.07 0.04 0.04 0.02 0.02 0.02 0.03 0.02 0.03 0.04 0.06 0.11 0.09 0.07 0.07 0.05 0.05 0.10 0.10 0.11 0.09 0.06 0.03 0.01 0.00 0.00 0.00 0.00 0.00 0.00 0.00 0.00 0.00 0.00 0.00 0.00 0.00 0.00 0.00 0.00 0.00 0.00 0.00 0.00 0.00 0.00
0.05 0.07 0.08 0.08 0.07 0.07 0.08 0.12 0.06 0.04 0.03 0.02 0.03 0.04 0.06 0.03 0.03 0.04 0.05 0.10 0.13 0.08 0.07 0.06 0.07 0.09 0.09 0.07 0.05 0.04 0.02 0.00 0.00 0.00 0.00 0.00 0.00 0.00 0.00 0.00 0.00 0.00 0.00 0.00 0.00 0.00 0.00 0.00 0.00 0.00 0.00 0.00 0.00 0.00

GFSWCAN_prec_precacc24_126.txt.gz
Total_Precipitation_Accumulation
0.52 0.47 0.37 0.34 0.43 0.64 1.03 0.92 0.57 0.47 0.42 0.36 0.35 0.28 0.28 0.48 0.42 0.15 0.12 0.03 0.04 0.07 0.06 0.02 0.01 0.01 0.01 0.00 0.01 0.00 0.00 0.00 0.00 0.00 0.00 0.00 0.00 0.00 0.14 0.09 0.02 0.01 0.05 0.08 0.14 0.14 0.14 0.07 0.16 0.17 0.13 0.08 0.05 0.04
0.65 0.53 0.40 0.38 0.51 0.68 0.75 0.73 0.44 0.36 0.39 0.32 0.21 0.22 0.35 0.45 0.45 0.23 0.16 0.05 0.02 0.04 0.04 0.01 0.00 0.00 0.00 0.00 0.00 0.00 0.01 0.02 0.01 0.00 0.00 0.00 0.00 0.00 0.06 0.24 0.03 0.03 0.02 0.07 0.11 0.14 0.15 0.15 0.19 0.14 0.05 0.06 0.07 0.02
0.66 0.51 0.35 0.33 0.56 0.62 0.59 0.57 0.36 0.32 0.28 0.23 0.16 0.17 0.25 0.34 0.42 0.26 0.13 0.06 0.06 0.07 0.06 0.04 0.01 0.00 0.00 0.00 0.00 0.00 0.03 0.01 0.00 0.00 0.00 0.00 0.00 0.01 0.08 0.18 0.09 0.06 0.01 0.02 0.10 0.15 0.11 0.15 0.17 0.13 0.08 0.06 0.03 0.01
0.52 0.37 0.33 0.42 0.62 0.56 0.47 0.51 0.34 0.25 0.18 0.16 0.11 0.11 0.17 0.23 0.22 0.07 0.02 0.03 0.02 0.02 0.06 0.08 0.01 0.00 0.00 0.00 0.00 0.00 0.00 0.00 0.00 0.00 0.00 0.00 0.00 0.01 0.04 0.09 0.03 0.02 0.02 0.03 0.10 0.14 0.11 0.14 0.14 0.12 0.08 0.04 0.01 0.00
0.36 0.41 0.46 0.48 0.56 0.55 0.44 0.42 0.26 0.15 0.10 0.08 0.04 0.04 0.05 0.04 0.03 0.00 0.00 0.01 0.01 0.03 0.04 0.03 0.02 0.00 0.00 0.00 0.00 0.00 0.00 0.00 0.00 0.00 0.01 0.01 0.00 0.01 0.02 0.05 0.03 0.01 0.02 0.06 0.08 0.03 0.07 0.11 0.12 0.09 0.07 0.04 0.01 0.00
0.38 0.46 0.42 0.43 0.53 0.44 0.30 0.23 0.12 0.06 0.04 0.03 0.01 0.02 0.01 0.00 0.00 0.01 0.06 0.03 0.01 0.02 0.02 0.05 0.03 0.01 0.00 0.00 0.00 0.00 0.00 0.00 0.00 0.00 0.00 0.00 0.01 0.02 0.03 0.06 0.05 0.01 0.01 0.00 0.02 0.02 0.03 0.06 0.07 0.06 0.05 0.02 0.00 0.00
0.35 0.38 0.38 0.42 0.39 0.23 0.11 0.06 0.04 0.02 0.01 0.02 0.02 0.04 0.00 0.00 0.00 0.02 0.03 0.05 0.01 0.03 0.02 0.02 0.06 0.05 0.00 0.00 0.00 0.00 0.00 0.00 0.00 0.00 0.00 0.00 0.00 0.03 0.05 0.04 0.03 0.01 0.02 0.00 0.00 0.01 0.06 0.05 0.03 0.01 0.00 0.00 0.00 0.00
0.33 0.33 0.33 0.28 0.17 0.06 0.03 0.03 0.01 0.01 0.02 0.03 0.03 0.00 0.00 0.00 0.00 0.00 0.01 0.08 0.03 0.01 0.00 0.01 0.07 0.07 0.00 0.00 0.00 0.00 0.00 0.00 0.00 0.00 0.00 0.00 0.01 0.06 0.09 0.03 0.00 0.00 0.00 0.00 0.00 0.00 0.00 0.00 0.00 0.00 0.00 0.00 0.00 0.00
0.22 0.21 0.16 0.10 0.05 0.03 0.03 0.02 0.02 0.02 0.02 0.03 0.04 0.01 0.00 0.00 0.00 0.01 0.03 0.02 0.03 0.05 0.01 0.01 0.02 0.05 0.03 0.02 0.02 0.01 0.00 0.00 0.00 0.00 0.00 0.01 0.04 0.06 0.09 0.02 0.00 0.00 0.00 0.00 0.00 0.00 0.00 0.00 0.00 0.00 0.00 0.00 0.00 0.00
0.14 0.11 0.08 0.07 0.03 0.02 0.01 0.01 0.02 0.02 0.04 0.05 0.02 0.00 0.00 0.00 0.01 0.03 0.02 0.01 0.01 0.01 0.01 0.01 0.00 0.02 0.02 0.02 0.02 0.01 0.01 0.00 0.04 0.02 0.01 0.01 0.04 0.04 0.02 0.00 0.00 0.00 0.00 0.00 0.00 0.00 0.00 0.00 0.00 0.00 0.00 0.00 0.00 0.00
0.11 0.10 0.08 0.05 0.02 0.01 0.01 0.02 0.02 0.05 0.05 0.02 0.00 0.02 0.04 0.03 0.03 0.05 0.05 0.01 0.00 0.01 0.01 0.00 0.00 0.01 0.03 0.03 0.02 0.01 0.03 0.03 0.05 0.11 0.03 0.05 0.04 0.02 0.00 0.00 0.00 0.00 0.00 0.00 0.00 0.00 0.00 0.00 0.00 0.00 0.00 0.00 0.00 0.00
0.11 0.11 0.07 0.04 0.02 0.02 0.01 0.02 0.03 0.02 0.02 0.01 0.01 0.16 0.18 0.08 0.08 0.10 0.05 0.01 0.01 0.00 0.00 0.01 0.01 0.01 0.08 0.06 0.16 0.06 0.03 0.02 0.06 0.08 0.02 0.04 0.04 0.00 0.00 0.00 0.00 0.00 0.00 0.00 0.00 0.00 0.00 0.00 0.00 0.00 0.00 0.00 0.00 0.00
0.12 0.09 0.08 0.04 0.02 0.01 0.00 0.00 0.01 0.04 0.05 0.00 0.07 0.28 0.12 0.07 0.12 0.05 0.02 0.00 0.00 0.00 0.01 0.01 0.01 0.02 0.02 0.01 0.04 0.01 0.01 0.02 0.05 0.05 0.02 0.03 0.01 0.00 0.00 0.00 0.00 0.00 0.00 0.00 0.00 0.00 0.00 0.00 0.00 0.00 0.00 0.00 0.00 0.00
0.12 0.09 0.09 0.05 0.02 0.02 0.01 0.02 0.05 0.04 0.03 0.02 0.08 0.17 0.07 0.06 0.02 0.01 0.01 0.01 0.00 0.01 0.01 0.01 0.01 0.01 0.00 0.00 0.01 0.00 0.01 0.01 0.02 0.02 0.04 0.01 0.00 0.00 0.00 0.00 0.00 0.00 0.00 0.00 0.00 0.00 0.00 0.00 0.00 0.00 0.00 0.00 0.00 0.00
0.14 0.13 0.14 0.08 0.03 0.01 0.02 0.06 0.03 0.01 0.03 0.05 0.08 0.12 0.04 0.05 0.03 0.02 0.04 0.01 0.02 0.01 0.00 0.00 0.00 0.00 0.00 0.00 0.01 0.01 0.02 0.01 0.01 0.04 0.03 0.01 0.00 0.00 0.00 0.00 0.00 0.00 0.00 0.00 0.00 0.00 0.00 0.00 0.00 0.00 0.00 0.00 0.00 0.00
0.19 0.20 0.09 0.10 0.05 0.04 0.05 0.03 0.01 0.00 0.02 0.05 0.09 0.25 0.16 0.08 0.06 0.04 0.04 0.02 0.01 0.01 0.00 0.01 0.00 0.00 0.00 0.00 0.01 0.01 0.01 0.05 0.06 0.01 0.01 0.00 0.00 0.00 0.00 0.00 0.00 0.00 0.00 0.00 0.00 0.00 0.00 0.00 0.00 0.00 0.00 0.00 0.00 0.00
0.08 0.08 0.13 0.13 0.06 0.03 0.01 0.02 0.00 0.01 0.03 0.05 0.10 0.17 0.20 0.09 0.05 0.05 0.04 0.02 0.00 0.01 0.01 0.01 0.01 0.00 0.00 0.00 0.00 0.00 0.01 0.01 0.01 0.01 0.01 0.00 0.00 0.00 0.00 0.00 0.00 0.00 0.00 0.00 0.00 0.00 0.00 0.00 0.00 0.00 0.00 0.00 0.00 0.00
0.02 0.06 0.06 0.07 0.03 0.04 0.05 0.02 0.01 0.02 0.06 0.07 0.13 0.15 0.13 0.10 0.06 0.07 0.05 0.03 0.02 0.00 0.01 0.01 0.00 0.00 0.00 0.01 0.02 0.01 0.01 0.02 0.01 0.01 0.01 0.00 0.00 0.00 0.00 0.00 0.00 0.00 0.00 0.00 0.00 0.00 0.00 0.00 0.01 0.02 0.01 0.00 0.00 0.00
0.05 0.03 0.03 0.01 0.00 0.02 0.03 0.00 0.04 0.08 0.05 0.06 0.08 0.06 0.06 0.06 0.03 0.04 0.02 0.04 0.01 0.00 0.00 0.00 0.00 0.01 0.01 0.01 0.01 0.00 0.00 0.00 0.02 0.01 0.01 0.00 0.00 0.00 0.00 0.00 0.00 0.00 0.00 0.00 0.00 0.01 0.01 0.00 0.00 0.00 0.00 0.00 0.00 0.00
0.05 0.01 0.00 0.01 0.03 0.07 0.04 0.01 0.01 0.04 0.03 0.05 0.05 0.03 0.02 0.01 0.01 0.01 0.01 0.01 0.01 0.00 0.00 0.00 0.01 0.01 0.00 0.00 0.00 0.00 0.00 0.00 0.00 0.01 0.02 0.01 0.00 0.00 0.00 0.00 0.00 0.00 0.00 0.00 0.00 0.00 0.00 0.00 0.00 0.00 0.00 0.00 0.00 0.01
0.14 0.13 0.08 0.04 0.08 0.12 0.07 0.00 0.00 0.02 0.02 0.04 0.04 0.02 0.01 0.00 0.01 0.01 0.00 0.00 0.01 0.02 0.02 0.01 0.00 0.00 0.00 0.00 0.00 0.00 0.00 0.00 0.00 0.00 0.00 0.01 0.00 0.00 0.00 0.01 0.00 0.00 0.00 0.00 0.00 0.00 0.00 0.00 0.00 0.00 0.00 0.01 0.01 0.01
0.17 0.12 0.10 0.08 0.18 0.13 0.11 0.00 0.00 0.00 0.02 0.05 0.05 0.02 0.01 0.01 0.01 0.01 0.00 0.01 0.02 0.01 0.00 0.00 0.00 0.00 0.00 0.00 0.00 0.00 0.00 0.00 0.00 0.00 0.00 0.00 0.00 0.00 0.00 0.00 0.00 0.00 0.00 0.00 0.00 0.00 0.01 0.01 0.00 0.00 0.02 0.01 0.00 0.00
0.02 0.02 0.02 0.05 0.15 0.09 0.16 0.02 0.01 0.02 0.03 0.06 0.05 0.04 0.02 0.01 0.00 0.00 0.00 0.01 0.01 0.00 0.00 0.00 0.00 0.00 0.00 0.00 0.00 0.00 0.00 0.00 0.00 0.00 0.00 0.00 0.00 0.00 0.00 0.00 0.00 0.00 0.00 0.00 0.00 0.01 0.02 0.01 0.00 0.01 0.01 0.01 0.01 0.00
0.00 0.01 0.01 0.02 0.09 0.09 0.20 0.05 0.03 0.04 0.04 0.05 0.03 0.03 0.02 0.01 0.00 0.00 0.01 0.00 0.00 0.00 0.00 0.00 0.00 0.00 0.00 0.00 0.00 0.00 0.00 0.00 0.00 0.00 0.00 0.00 0.00 0.00 0.00 0.00 0.00 0.00 0.00 0.00 0.01 0.01 0.01 0.01 0.00 0.01 0.01 0.00 0.00 0.00
0.02 0.01 0.01 0.03 0.10 0.06 0.08 0.06 0.04 0.03 0.03 0.02 0.02 0.01 0.01 0.00 0.00 0.00 0.00 0.01 0.00 0.00 0.00 0.00 0.00 0.00 0.00 0.00 0.00 0.00 0.00 0.00 0.00 0.00 0.00 0.00 0.00 0.00 0.00 0.00 0.00 0.00 0.00 0.01 0.01 0.01 0.01 0.01 0.01 0.01 0.00 0.00 0.00 0.00
0.08 0.03 0.03 0.02 0.02 0.03 0.02 0.02 0.01 0.01 0.02 0.04 0.02 0.00 0.00 0.00 0.01 0.01 0.02 0.02 0.01 0.01 0.01 0.01 0.01 0.00 0.00 0.00 0.00 0.00 0.00 0.00 0.00 0.00 0.00 0.00 0.00 0.00 0.00 0.01 0.01 0.01 0.01 0.01 0.01 0.01 0.00 0.00 0.00 0.00 0.00 0.00 0.00 0.00
0.08 0.04 0.01 0.01 0.02 0.02 0.01 0.01 0.01 0.00 0.01 0.03 0.03 0.01 0.00 0.01 0.01 0.01 0.03 0.03 0.02 0.01 0.01 0.01 0.00 0.00 0.00 0.00 0.00 0.00 0.00 0.00 0.00 0.00 0.00 0.00 0.00 0.01 0.01 0.01 0.01 0.01 0.00 0.00 0.00 0.00 0.00 0.00 0.00 0.00 0.00 0.00 0.00 0.00
0.07 0.04 0.06 0.06 0.05 0.04 0.02 0.02 0.01 0.01 0.01 0.00 0.01 0.01 0.01 0.01 0.02 0.03 0.03 0.07 0.04 0.02 0.03 0.02 0.01 0.00 0.00 0.00 0.01 0.01 0.01 0.00 0.00 0.00 0.00 0.01 0.01 0.00 0.00 0.00 0.00 0.00 0.00 0.00 0.00 0.00 0.00 0.00 0.00 0.00 0.00 0.00 0.00 0.01
0.07 0.12 0.14 0.13 0.11 0.07 0.03 0.02 0.02 0.01 0.00 0.01 0.03 0.03 0.01 0.01 0.03 0.03 0.06 0.07 0.03 0.02 0.02 0.03 0.05 0.02 0.01 0.02 0.02 0.03 0.02 0.02 0.01 0.01 0.01 0.02 0.03 0.03 0.01 0.00 0.00 0.00 0.00 0.00 0.00 0.00 0.00 0.00 0.00 0.00 0.00 0.00 0.00 0.01
0.03 0.08 0.12 0.10 0.09 0.06 0.03 0.02 0.01 0.00 0.00 0.00 0.00 0.00 0.00 0.01 0.03 0.06 0.07 0.04 0.04 0.03 0.03 0.04 0.05 0.04 0.03 0.03 0.05 0.07 0.07 0.04 0.03 0.04 0.03 0.02 0.02 0.02 0.01 0.00 0.00 0.00 0.00 0.00 0.00 0.00 0.00 0.00 0.00 0.00 0.00 0.00 0.00 0.00
0.02 0.04 0.05 0.07 0.07 0.06 0.05 0.05 0.04 0.02 0.02 0.02 0.01 0.01 0.01 0.02 0.03 0.03 0.05 0.09 0.04 0.03 0.03 0.05 0.07 0.07 0.06 0.05 0.04 0.04 0.06 0.03 0.01 0.00 0.00 0.00 0.01 0.01 0.01 0.00 0.00 0.00 0.00 0.00 0.00 0.00 0.00 0.00 0.00 0.00 0.00 0.00 0.00 0.00
0.07 0.08 0.06 0.08 0.08 0.08 0.09 0.10 0.06 0.04 0.03 0.02 0.02 0.02 0.02 0.02 0.03 0.05 0.06 0.09 0.07 0.07 0.08 0.06 0.06 0.11 0.11 0.12 0.10 0.07 0.03 0.02 0.00 0.00 0.00 0.00 0.00 0.00 0.00 0.00 0.00 0.00 0.00 0.00 0.00 0.00 0.00 0.00 0.00 0.00 0.00 0.00 0.00 0.00
0.06 0.07 0.08 0.08 0.07 0.07 0.08 0.12 0.06 0.04 0.03 0.02 0.03 0.04 0.05 0.03 0.04 0.05 0.05 0.08 0.11 0.09 0.08 0.07 0.09 0.11 0.11 0.09 0.07 0.06 0.04 0.02 0.01 0.00 0.00 0.00 0.00 0.00 0.00 0.00 0.00 0.00 0.00 0.00 0.00 0.00 0.00 0.00 0.00 0.00 0.00 0.00 0.00 0.00

GFSWCAN_prec_precacc24_132.txt.gz
Total_Precipitation_Accumulation
0.43 0.41 0.36 0.35 0.44 0.64 1.03 0.92 0.57 0.48 0.43 0.38 0.37 0.30 0.30 0.49 0.44 0.22 0.12 0.03 0.10 0.12 0.07 0.03 0.01 0.03 0.02 0.02 0.02 0.01 0.02 0.02 0.02 0.04 0.03 0.00 0.00 0.01 0.11 0.07 0.02 0.01 0.05 0.09 0.15 0.15 0.14 0.07 0.16 0.16 0.09 0.04 0.02 0.01
0.54 0.46 0.36 0.37 0.52 0.69 0.77 0.77 0.50 0.41 0.42 0.33 0.22 0.23 0.37 0.46 0.47 0.29 0.17 0.05 0.10 0.15 0.08 0.02 0.01 0.00 0.01 0.02 0.03 0.02 0.01 0.00 0.00 0.00 0.00 0.00 0.00 0.00 0.07 0.23 0.07 0.07 0.03 0.08 0.10 0.12 0.12 0.14 0.17 0.11 0.03 0.04 0.04 0.01
0.54 0.45 0.32 0.34 0.59 0.67 0.71 0.77 0.52 0.41 0.34 0.25 0.16 0.19 0.28 0.38 0.47 0.37 0.20 0.10 0.19 0.25 0.19 0.07 0.02 0.00 0.00 0.01 0.02 0.05 0.03 0.00 0.00 0.00 0.00 0.01 0.01 0.01 0.05 0.13 0.14 0.10 0.01 0.02 0.08 0.12 0.09 0.14 0.16 0.12 0.08 0.05 0.03 0.02
0.40 0.30 0.33 0.47 0.70 0.71 0.73 0.76 0.54 0.45 0.29 0.24 0.14 0.13 0.22 0.34 0.38 0.31 0.24 0.12 0.14 0.19 0.21 0.17 0.03 0.01 0.00 0.00 0.00 0.00 0.00 0.00 0.00 0.01 0.02 0.01 0.01 0.03 0.05 0.07 0.03 0.03 0.02 0.03 0.08 0.12 0.10 0.14 0.13 0.11 0.08 0.05 0.03 0.02
0.30 0.40 0.48 0.56 0.70 0.78 0.72 0.77 0.51 0.36 0.31 0.26 0.15 0.16 0.23 0.33 0.31 0.29 0.25 0.13 0.07 0.07 0.12 0.14 0.03 0.04 0.03 0.01 0.00 0.00 0.00 0.00 0.00 0.01 0.02 0.01 0.01 0.01 0.02 0.03 0.02 0.01 0.02 0.04 0.06 0.02 0.06 0.09 0.11 0.10 0.07 0.06 0.03 0.03
0.41 0.47 0.44 0.56 0.75 0.74 0.68 0.75 0.51 0.48 0.45 0.29 0.17 0.18 0.26 0.33 0.32 0.37 0.55 0.28 0.08 0.07 0.07 0.14 0.11 0.03 0.05 0.04 0.02 0.01 0.00 0.00 0.01 0.00 0.00 0.00 0.01 0.01 0.02 0.02 0.02 0.01 0.01 0.00 0.01 0.02 0.03 0.06 0.07 0.06 0.05 0.03 0.01 0.01
0.38 0.41 0.47 0.64 0.73 0.68 0.75 0.63 0.50 0.51 0.39 0.30 0.21 0.17 0.21 0.28 0.30 0.31 0.41 0.35 0.11 0.10 0.08 0.13 0.15 0.08 0.02 0.02 0.00 0.00 0.00 0.00 0.00 0.00 0.00 0.00 0.00 0.01 0.01 0.01 0.01 0.01 0.02 0.00 0.00 0.01 0.06 0.05 0.04 0.01 0.00 0.00 0.00 0.00
0.42 0.46 0.57 0.58 0.45 0.60 0.64 0.38 0.41 0.34 0.25 0.19 0.16 0.19 0.25 0.29 0.28 0.14 0.03 0.02 0.06 0.14 0.07 0.13 0.21 0.13 0.05 0.02 0.00 0.00 0.00 0.00 0.00 0.00 0.00 0.00 0.00 0.02 0.02 0.02 0.00 0.00 0.00 0.00 0.00 0.00 0.00 0.00 0.00 0.00 0.00 0.00 0.00 0.00
0.46 0.49 0.42 0.33 0.44 0.51 0.27 0.19 0.25 0.19 0.13 0.14 0.21 0.26 0.30 0.30 0.29 0.14 0.04 0.02 0.04 0.12 0.05 0.05 0.08 0.09 0.02 0.01 0.00 0.00 0.00 0.00 0.00 0.00 0.00 0.00 0.02 0.01 0.02 0.02 0.00 0.00 0.00 0.00 0.00 0.00 0.00 0.00 0.00 0.00 0.00 0.00 0.00 0.00
0.23 0.22 0.23 0.34 0.40 0.25 0.14 0.06 0.08 0.09 0.07 0.07 0.10 0.17 0.30 0.16 0.09 0.12 0.20 0.25 0.18 0.12 0.02 0.00 0.00 0.01 0.01 0.01 0.02 0.01 0.00 0.00 0.01 0.01 0.00 0.01 0.03 0.02 0.01 0.00 0.00 0.00 0.00 0.00 0.00 0.00 0.00 0.00 0.00 0.00 0.00 0.00 0.00 0.00
0.15 0.14 0.14 0.14 0.11 0.07 0.05 0.03 0.02 0.02 0.01 0.00 0.02 0.14 0.15 0.05 0.06 0.09 0.16 0.15 0.15 0.09 0.03 0.01 0.00 0.00 0.00 0.01 0.01 0.01 0.01 0.00 0.02 0.04 0.01 0.02 0.02 0.00 0.00 0.00 0.00 0.00 0.00 0.00 0.00 0.00 0.00 0.00 0.00 0.00 0.00 0.00 0.00 0.00
0.10 0.08 0.05 0.04 0.03 0.01 0.01 0.01 0.00 0.00 0.00 0.00 0.04 0.09 0.05 0.01 0.01 0.01 0.00 0.00 0.01 0.02 0.01 0.01 0.01 0.01 0.02 0.01 0.00 0.00 0.01 0.01 0.05 0.03 0.02 0.03 0.02 0.00 0.00 0.00 0.00 0.00 0.00 0.00 0.00 0.00 0.00 0.00 0.00 0.00 0.00 0.00 0.00 0.00
0.09 0.06 0.04 0.01 0.01 0.01 0.00 0.00 0.00 0.00 0.00 0.00 0.01 0.01 0.01 0.01 0.01 0.00 0.00 0.00 0.00 0.01 0.01 0.01 0.02 0.01 0.00 0.01 0.02 0.00 0.01 0.01 0.02 0.04 0.02 0.02 0.00 0.00 0.00 0.00 0.00 0.00 0.00 0.00 0.00 0.00 0.00 0.00 0.00 0.00 0.00 0.00 0.00 0.00
0.08 0.05 0.04 0.02 0.01 0.01 0.01 0.01 0.01 0.00 0.00 0.00 0.00 0.01 0.01 0.01 0.01 0.01 0.00 0.00 0.00 0.01 0.01 0.01 0.00 0.00 0.00 0.00 0.01 0.00 0.01 0.01 0.02 0.01 0.03 0.01 0.00 0.00 0.00 0.00 0.00 0.00 0.00 0.00 0.00 0.00 0.00 0.00 0.00 0.00 0.00 0.00 0.00 0.00
0.08 0.06 0.07 0.04 0.02 0.01 0.01 0.02 0.00 0.00 0.00 0.00 0.00 0.01 0.03 0.04 0.04 0.01 0.01 0.01 0.02 0.01 0.00 0.00 0.00 0.00 0.00 0.00 0.00 0.01 0.01 0.01 0.00 0.02 0.02 0.00 0.00 0.00 0.00 0.00 0.00 0.00 0.00 0.00 0.00 0.00 0.00 0.00 0.00 0.00 0.00 0.00 0.00 0.00
0.12 0.10 0.05 0.06 0.03 0.01 0.01 0.00 0.00 0.00 0.00 0.00 0.03 0.09 0.10 0.09 0.09 0.06 0.03 0.02 0.02 0.01 0.00 0.00 0.00 0.00 0.00 0.00 0.00 0.00 0.00 0.01 0.01 0.00 0.00 0.00 0.00 0.00 0.00 0.00 0.00 0.00 0.00 0.00 0.00 0.00 0.00 0.00 0.00 0.00 0.00 0.00 0.00 0.00
0.03 0.05 0.09 0.07 0.02 0.00 0.00 0.00 0.00 0.00 0.00 0.02 0.07 0.09 0.11 0.11 0.14 0.09 0.04 0.01 0.01 0.01 0.00 0.00 0.00 0.00 0.00 0.00 0.00 0.00 0.01 0.01 0.00 0.01 0.00 0.00 0.00 0.00 0.00 0.00 0.00 0.00 0.00 0.00 0.00 0.00 0.00 0.00 0.00 0.00 0.00 0.00 0.00 0.00
0.00 0.02 0.03 0.02 0.00 0.00 0.00 0.00 0.00 0.00 0.03 0.07 0.11 0.13 0.11 0.15 0.11 0.08 0.05 0.03 0.02 0.00 0.00 0.00 0.00 0.00 0.00 0.01 0.01 0.01 0.00 0.01 0.01 0.01 0.01 0.00 0.00 0.00 0.00 0.00 0.00 0.00 0.00 0.00 0.00 0.00 0.00 0.00 0.00 0.00 0.00 0.00 0.00 0.00
0.01 0.01 0.01 0.00 0.00 0.00 0.00 0.00 0.00 0.02 0.08 0.09 0.12 0.10 0.08 0.10 0.05 0.05 0.02 0.04 0.01 0.00 0.00 0.00 0.00 0.01 0.01 0.01 0.00 0.00 0.00 0.00 0.01 0.01 0.01 0.00 0.00 0.00 0.00 0.00 0.00 0.00 0.00 0.00 0.00 0.00 0.00 0.00 0.00 0.00 0.00 0.00 0.00 0.00
0.00 0.00 0.00 0.00 0.00 0.00 0.00 0.00 0.00 0.01 0.05 0.08 0.08 0.04 0.03 0.03 0.01 0.01 0.01 0.01 0.01 0.00 0.00 0.01 0.02 0.01 0.00 0.00 0.00 0.00 0.00 0.00 0.00 0.01 0.02 0.02 0.01 0.00 0.00 0.00 0.00 0.00 0.00 0.00 0.00 0.00 0.00 0.00 0.00 0.00 0.00 0.00 0.01 0.01
0.07 0.06 0.02 0.00 0.00 0.00 0.01 0.00 0.00 0.01 0.02 0.04 0.03 0.02 0.03 0.01 0.01 0.01 0.00 0.00 0.01 0.02 0.03 0.01 0.00 0.00 0.00 0.00 0.00 0.00 0.00 0.00 0.00 0.00 0.00 0.01 0.00 0.00 0.00 0.00 0.00 0.00 0.00 0.00 0.00 0.00 0.00 0.00 0.00 0.00 0.00 0.01 0.01 0.01
0.12 0.05 0.01 0.00 0.01 0.04 0.07 0.00 0.00 0.00 0.01 0.03 0.02 0.01 0.01 0.01 0.00 0.00 0.00 0.01 0.04 0.04 0.01 0.01 0.00 0.00 0.00 0.00 0.00 0.00 0.00 0.00 0.00 0.00 0.00 0.00 0.00 0.00 0.00 0.00 0.00 0.00 0.00 0.00 0.00 0.00 0.00 0.01 0.00 0.00 0.02 0.01 0.01 0.01
0.00 0.00 0.00 0.01 0.07 0.07 0.15 0.02 0.01 0.02 0.02 0.04 0.04 0.03 0.02 0.00 0.00 0.00 0.00 0.02 0.05 0.04 0.00 0.00 0.00 0.00 0.00 0.00 0.00 0.00 0.00 0.00 0.00 0.00 0.00 0.00 0.00 0.00 0.00 0.00 0.00 0.00 0.00 0.00 0.00 0.01 0.03 0.01 0.01 0.01 0.01 0.01 0.01 0.01
0.00 0.00 0.00 0.00 0.01 0.07 0.18 0.04 0.03 0.04 0.04 0.05 0.03 0.03 0.02 0.01 0.00 0.00 0.01 0.03 0.04 0.03 0.00 0.00 0.00 0.00 0.00 0.00 0.00 0.00 0.00 0.00 0.00 0.00 0.00 0.00 0.00 0.01 0.00 0.00 0.00 0.00 0.00 0.00 0.01 0.02 0.01 0.02 0.01 0.01 0.01 0.01 0.01 0.01
0.00 0.00 0.00 0.00 0.03 0.04 0.06 0.04 0.04 0.02 0.03 0.02 0.02 0.01 0.01 0.00 0.00 0.00 0.01 0.03 0.01 0.01 0.01 0.00 0.00 0.00 0.00 0.00 0.00 0.00 0.00 0.00 0.00 0.00 0.00 0.00 0.00 0.01 0.02 0.02 0.02 0.03 0.01 0.01 0.02 0.02 0.02 0.02 0.02 0.01 0.00 0.00 0.00 0.00
0.00 0.00 0.00 0.00 0.01 0.02 0.01 0.01 0.01 0.01 0.02 0.04 0.02 0.00 0.00 0.00 0.00 0.01 0.02 0.03 0.02 0.02 0.03 0.03 0.02 0.00 0.00 0.00 0.00 0.00 0.00 0.00 0.00 0.00 0.01 0.00 0.00 0.00 0.01 0.01 0.02 0.04 0.03 0.01 0.01 0.01 0.01 0.02 0.01 0.00 0.00 0.00 0.00 0.00
0.00 0.00 0.00 0.00 0.01 0.01 0.01 0.01 0.00 0.00 0.01 0.03 0.02 0.00 0.00 0.01 0.02 0.01 0.02 0.02 0.02 0.02 0.02 0.03 0.01 0.00 0.00 0.00 0.00 0.00 0.00 0.00 0.00 0.00 0.01 0.01 0.01 0.01 0.01 0.01 0.01 0.01 0.01 0.01 0.00 0.00 0.00 0.00 0.00 0.00 0.00 0.00 0.00 0.00
0.01 0.00 0.00 0.01 0.01 0.01 0.01 0.01 0.01 0.01 0.02 0.01 0.01 0.01 0.01 0.02 0.02 0.01 0.01 0.01 0.02 0.02 0.02 0.02 0.01 0.00 0.00 0.00 0.01 0.01 0.01 0.00 0.00 0.00 0.00 0.02 0.03 0.02 0.01 0.01 0.00 0.00 0.00 0.00 0.00 0.00 0.00 0.00 0.00 0.00 0.00 0.00 0.00 0.00
0.01 0.03 0.05 0.06 0.06 0.03 0.01 0.01 0.01 0.01 0.00 0.00 0.02 0.03 0.00 0.00 0.01 0.01 0.01 0.02 0.02 0.03 0.02 0.03 0.04 0.01 0.01 0.02 0.02 0.03 0.02 0.02 0.01 0.01 0.01 0.03 0.04 0.06 0.03 0.01 0.01 0.00 0.00 0.00 0.00 0.00 0.00 0.00 0.00 0.00 0.00 0.00 0.00 0.00
0.00 0.02 0.07 0.08 0.08 0.06 0.03 0.01 0.01 0.00 0.00 0.00 0.00 0.00 0.00 0.01 0.02 0.02 0.02 0.02 0.04 0.04 0.03 0.03 0.05 0.04 0.03 0.03 0.05 0.09 0.09 0.06 0.04 0.04 0.03 0.02 0.02 0.03 0.02 0.01 0.00 0.00 0.00 0.00 0.00 0.01 0.00 0.00 0.00 0.00 0.00 0.00 0.00 0.00
0.02 0.02 0.03 0.04 0.05 0.05 0.05 0.05 0.04 0.02 0.01 0.01 0.01 0.01 0.02 0.02 0.03 0.03 0.02 0.03 0.04 0.04 0.03 0.04 0.06 0.08 0.06 0.05 0.04 0.05 0.07 0.04 0.01 0.01 0.01 0.00 0.01 0.01 0.01 0.01 0.00 0.00 0.00 0.00 0.00 0.00 0.00 0.00 0.00 0.00 0.00 0.00 0.00 0.00
0.06 0.07 0.06 0.07 0.08 0.08 0.08 0.07 0.05 0.03 0.02 0.02 0.02 0.02 0.03 0.02 0.04 0.05 0.04 0.05 0.05 0.07 0.08 0.08 0.07 0.13 0.14 0.13 0.12 0.08 0.04 0.03 0.02 0.02 0.01 0.00 0.01 0.01 0.00 0.00 0.00 0.00 0.00 0.00 0.00 0.00 0.00 0.00 0.00 0.00 0.00 0.00 0.00 0.00
0.06 0.07 0.09 0.08 0.07 0.07 0.08 0.11 0.06 0.04 0.03 0.02 0.04 0.04 0.05 0.04 0.06 0.05 0.03 0.05 0.08 0.11 0.11 0.11 0.12 0.12 0.13 0.12 0.10 0.09 0.07 0.05 0.04 0.02 0.01 0.00 0.00 0.00 0.00 0.00 0.00 0.00 0.00 0.00 0.00 0.00 0.00 0.00 0.00 0.00 0.00 0.00 0.00 0.00

GFSWCAN_prec_precacc24_138.txt.gz
Total_Precipitation_Accumulation
0.39 0.36 0.32 0.35 0.45 0.65 1.04 0.93 0.58 0.48 0.44 0.41 0.41 0.36 0.35 0.51 0.49 0.26 0.13 0.04 0.36 0.45 0.09 0.03 0.01 0.03 0.02 0.02 0.02 0.01 0.04 0.03 0.03 0.07 0.06 0.02 0.00 0.00 0.03 0.04 0.02 0.02 0.04 0.08 0.13 0.20 0.14 0.06 0.15 0.15 0.06 0.01 0.00 0.00
0.46 0.40 0.35 0.38 0.52 0.69 0.77 0.78 0.52 0.42 0.42 0.34 0.26 0.27 0.45 0.50 0.52 0.36 0.18 0.05 0.12 0.38 0.22 0.05 0.01 0.00 0.01 0.02 0.03 0.03 0.02 0.01 0.03 0.02 0.01 0.00 0.00 0.00 0.03 0.13 0.06 0.07 0.02 0.06 0.09 0.10 0.07 0.11 0.14 0.08 0.02 0.02 0.01 0.00
0.45 0.39 0.31 0.34 0.58 0.66 0.72 0.78 0.53 0.42 0.34 0.26 0.19 0.23 0.34 0.45 0.53 0.51 0.27 0.11 0.22 0.32 0.30 0.10 0.04 0.00 0.00 0.01 0.03 0.07 0.04 0.01 0.01 0.05 0.06 0.04 0.02 0.01 0.02 0.06 0.12 0.13 0.03 0.04 0.11 0.10 0.07 0.12 0.14 0.11 0.07 0.05 0.03 0.01
0.36 0.30 0.33 0.47 0.69 0.72 0.74 0.77 0.56 0.46 0.30 0.26 0.16 0.16 0.27 0.40 0.47 0.48 0.42 0.14 0.16 0.24 0.29 0.20 0.03 0.02 0.01 0.00 0.00 0.00 0.01 0.01 0.01 0.03 0.09 0.09 0.04 0.03 0.04 0.05 0.04 0.06 0.09 0.07 0.11 0.10 0.08 0.12 0.13 0.11 0.08 0.05 0.03 0.02
0.25 0.39 0.47 0.52 0.69 0.80 0.74 0.79 0.53 0.38 0.32 0.27 0.17 0.19 0.28 0.40 0.40 0.52 0.49 0.16 0.10 0.11 0.17 0.16 0.03 0.04 0.03 0.01 0.00 0.00 0.01 0.02 0.04 0.09 0.11 0.05 0.01 0.02 0.02 0.03 0.03 0.01 0.02 0.06 0.08 0.03 0.06 0.09 0.11 0.10 0.07 0.06 0.03 0.03
0.35 0.42 0.39 0.53 0.75 0.75 0.70 0.77 0.53 0.50 0.46 0.30 0.19 0.21 0.31 0.39 0.47 0.74 0.96 0.39 0.09 0.11 0.13 0.27 0.16 0.03 0.05 0.04 0.02 0.01 0.01 0.02 0.09 0.11 0.07 0.02 0.01 0.05 0.08 0.02 0.01 0.01 0.01 0.01 0.01 0.02 0.03 0.06 0.07 0.06 0.05 0.03 0.01 0.01
0.32 0.36 0.43 0.62 0.72 0.69 0.79 0.71 0.61 0.59 0.43 0.33 0.23 0.20 0.25 0.33 0.47 0.53 0.57 0.39 0.11 0.16 0.26 0.22 0.18 0.08 0.03 0.05 0.07 0.03 0.01 0.03 0.07 0.10 0.08 0.02 0.00 0.03 0.05 0.01 0.01 0.01 0.02 0.00 0.00 0.01 0.05 0.05 0.04 0.01 0.00 0.00 0.00 0.00
0.38 0.42 0.53 0.57 0.50 0.79 0.90 0.70 0.75 0.60 0.35 0.23 0.21 0.23 0.29 0.37 0.41 0.22 0.09 0.05 0.06 0.19 0.26 0.30 0.27 0.16 0.10 0.07 0.10 0.05 0.04 0.04 0.08 0.09 0.06 0.02 0.01 0.05 0.06 0.01 0.00 0.00 0.00 0.00 0.00 0.00 0.00 0.00 0.00 0.00 0.00 0.00 0.00 0.00
0.43 0.45 0.41 0.39 0.68 0.86 0.66 0.77 0.85 0.48 0.30 0.22 0.30 0.38 0.48 0.54 0.51 0.21 0.06 0.14 0.08 0.20 0.23 0.16 0.18 0.13 0.07 0.06 0.03 0.08 0.06 0.10 0.06 0.06 0.02 0.01 0.02 0.01 0.01 0.01 0.00 0.00 0.00 0.00 0.00 0.00 0.00 0.00 0.00 0.00 0.01 0.00 0.00 0.00
0.24 0.28 0.44 0.81 0.95 0.73 0.60 0.58 0.52 0.34 0.24 0.29 0.46 0.83 1.08 0.50 0.19 0.18 0.43 0.94 0.68 0.26 0.15 0.04 0.01 0.03 0.03 0.05 0.07 0.08 0.08 0.05 0.04 0.01 0.00 0.01 0.02 0.00 0.00 0.00 0.00 0.00 0.00 0.00 0.00 0.00 0.00 0.00 0.00 0.00 0.00 0.00 0.00 0.00
0.30 0.38 0.50 0.58 0.57 0.47 0.42 0.37 0.27 0.24 0.38 0.74 0.84 0.71 0.39 0.17 0.25 0.40 0.75 0.98 0.60 0.29 0.13 0.03 0.00 0.01 0.01 0.06 0.03 0.03 0.05 0.04 0.03 0.02 0.01 0.01 0.01 0.00 0.00 0.00 0.00 0.00 0.00 0.00 0.00 0.00 0.00 0.00 0.00 0.00 0.00 0.00 0.00 0.00
0.29 0.31 0.31 0.29 0.24 0.20 0.17 0.19 0.20 0.41 0.58 0.42 0.28 0.31 0.23 0.28 0.30 0.26 0.29 0.32 0.27 0.07 0.06 0.02 0.01 0.01 0.03 0.07 0.04 0.04 0.02 0.01 0.04 0.02 0.02 0.02 0.02 0.00 0.00 0.00 0.00 0.00 0.00 0.00 0.00 0.00 0.00 0.00 0.00 0.00 0.00 0.00 0.00 0.00
0.21 0.19 0.13 0.07 0.04 0.06 0.11 0.14 0.19 0.18 0.07 0.04 0.06 0.14 0.16 0.20 0.12 0.12 0.09 0.07 0.15 0.02 0.01 0.01 0.02 0.02 0.01 0.02 0.03 0.03 0.02 0.02 0.01 0.02 0.01 0.02 0.00 0.00 0.00 0.00 0.00 0.00 0.00 0.00 0.00 0.00 0.00 0.00 0.00 0.00 0.00 0.00 0.00 0.00
0.11 0.08 0.08 0.05 0.04 0.08 0.10 0.09 0.03 0.01 0.00 0.01 0.05 0.05 0.05 0.05 0.03 0.03 0.00 0.00 0.00 0.01 0.01 0.01 0.00 0.00 0.01 0.00 0.01 0.01 0.01 0.01 0.02 0.01 0.03 0.01 0.00 0.00 0.00 0.00 0.00 0.00 0.00 0.00 0.00 0.00 0.00 0.00 0.00 0.00 0.00 0.00 0.00 0.00
0.04 0.03 0.03 0.03 0.02 0.01 0.01 0.00 0.00 0.00 0.00 0.01 0.00 0.01 0.03 0.05 0.04 0.01 0.01 0.01 0.02 0.01 0.00 0.00 0.00 0.00 0.01 0.00 0.00 0.00 0.01 0.01 0.00 0.02 0.02 0.00 0.00 0.00 0.00 0.00 0.00 0.00 0.00 0.00 0.00 0.00 0.00 0.00 0.00 0.00 0.00 0.00 0.00 0.00
0.05 0.04 0.03 0.02 0.01 0.01 0.00 0.00 0.00 0.00 0.00 0.00 0.04 0.09 0.10 0.08 0.09 0.06 0.03 0.02 0.02 0.01 0.00 0.00 0.01 0.02 0.02 0.00 0.00 0.00 0.00 0.01 0.01 0.00 0.00 0.00 0.00 0.00 0.00 0.00 0.00 0.00 0.00 0.00 0.00 0.00 0.00 0.00 0.00 0.00 0.00 0.00 0.00 0.00
0.01 0.04 0.03 0.01 0.00 0.00 0.00 0.00 0.00 0.00 0.00 0.03 0.09 0.11 0.11 0.11 0.14 0.09 0.02 0.01 0.01 0.01 0.00 0.00 0.00 0.00 0.00 0.00 0.00 0.00 0.01 0.01 0.00 0.01 0.00 0.00 0.00 0.00 0.00 0.00 0.00 0.00 0.00 0.00 0.00 0.00 0.00 0.00 0.00 0.00 0.00 0.00 0.00 0.00
0.00 0.01 0.00 0.00 0.00 0.00 0.00 0.00 0.00 0.00 0.05 0.11 0.18 0.16 0.11 0.15 0.11 0.07 0.03 0.01 0.02 0.00 0.00 0.00 0.00 0.00 0.00 0.01 0.01 0.01 0.01 0.01 0.01 0.01 0.01 0.00 0.00 0.00 0.00 0.00 0.00 0.00 0.00 0.00 0.00 0.00 0.00 0.00 0.00 0.00 0.00 0.00 0.00 0.00
0.00 0.00 0.00 0.00 0.00 0.00 0.00 0.00 0.00 0.03 0.12 0.17 0.25 0.16 0.13 0.15 0.05 0.03 0.01 0.01 0.01 0.00 0.00 0.00 0.00 0.01 0.01 0.01 0.00 0.00 0.00 0.00 0.01 0.01 0.01 0.00 0.00 0.00 0.00 0.00 0.00 0.00 0.00 0.00 0.00 0.00 0.00 0.00 0.00 0.00 0.00 0.00 0.00 0.00
0.00 0.00 0.00 0.00 0.00 0.00 0.00 0.00 0.00 0.02 0.11 0.23 0.20 0.07 0.07 0.08 0.02 0.01 0.01 0.01 0.01 0.00 0.00 0.01 0.02 0.01 0.00 0.00 0.00 0.00 0.00 0.00 0.00 0.01 0.03 0.02 0.01 0.00 0.00 0.00 0.00 0.00 0.00 0.00 0.00 0.00 0.00 0.00 0.00 0.00 0.00 0.00 0.01 0.01
0.00 0.00 0.00 0.00 0.00 0.00 0.00 0.00 0.00 0.01 0.08 0.19 0.12 0.02 0.05 0.01 0.01 0.01 0.00 0.00 0.01 0.02 0.03 0.02 0.01 0.00 0.00 0.00 0.00 0.00 0.00 0.00 0.00 0.00 0.00 0.02 0.01 0.00 0.00 0.00 0.00 0.00 0.00 0.00 0.00 0.00 0.00 0.00 0.00 0.00 0.00 0.01 0.01 0.01
0.01 0.00 0.00 0.00 0.00 0.00 0.00 0.00 0.00 0.00 0.01 0.05 0.01 0.01 0.01 0.01 0.00 0.00 0.00 0.01 0.04 0.06 0.02 0.01 0.00 0.00 0.00 0.00 0.00 0.00 0.00 0.00 0.00 0.00 0.00 0.00 0.01 0.01 0.01 0.00 0.00 0.00 0.00 0.00 0.00 0.00 0.00 0.00 0.00 0.00 0.02 0.01 0.01 0.02
0.00 0.00 0.00 0.00 0.00 0.00 0.02 0.01 0.00 0.01 0.00 0.01 0.01 0.00 0.00 0.00 0.00 0.00 0.00 0.03 0.09 0.07 0.00 0.00 0.00 0.00 0.00 0.00 0.00 0.00 0.00 0.00 0.00 0.00 0.00 0.00 0.00 0.00 0.00 0.00 0.00 0.00 0.00 0.00 0.00 0.01 0.03 0.01 0.01 0.01 0.01 0.01 0.02 0.02
0.00 0.00 0.00 0.00 0.00 0.00 0.04 0.02 0.01 0.01 0.02 0.01 0.01 0.01 0.01 0.00 0.00 0.00 0.02 0.04 0.07 0.08 0.01 0.00 0.00 0.00 0.00 0.00 0.00 0.00 0.00 0.00 0.00 0.00 0.00 0.00 0.00 0.01 0.00 0.00 0.00 0.00 0.00 0.00 0.01 0.02 0.01 0.02 0.01 0.01 0.02 0.02 0.02 0.02
0.00 0.00 0.00 0.00 0.00 0.00 0.03 0.01 0.01 0.01 0.02 0.01 0.01 0.01 0.01 0.00 0.00 0.01 0.01 0.05 0.04 0.04 0.04 0.00 0.00 0.00 0.00 0.00 0.00 0.00 0.00 0.00 0.00 0.01 0.01 0.00 0.00 0.02 0.03 0.03 0.03 0.03 0.01 0.01 0.02 0.02 0.03 0.03 0.04 0.03 0.03 0.03 0.02 0.02
0.00 0.00 0.00 0.00 0.00 0.01 0.01 0.00 0.01 0.01 0.02 0.04 0.02 0.00 0.00 0.00 0.00 0.02 0.02 0.04 0.03 0.03 0.05 0.05 0.02 0.00 0.00 0.00 0.00 0.00 0.00 0.00 0.00 0.00 0.02 0.01 0.00 0.00 0.01 0.02 0.03 0.06 0.04 0.01 0.01 0.01 0.02 0.03 0.03 0.03 0.03 0.03 0.02 0.01
0.00 0.00 0.00 0.00 0.00 0.00 0.01 0.01 0.00 0.00 0.01 0.03 0.02 0.00 0.00 0.01 0.02 0.02 0.03 0.03 0.03 0.03 0.04 0.05 0.03 0.01 0.00 0.00 0.00 0.01 0.00 0.00 0.00 0.00 0.02 0.01 0.01 0.01 0.01 0.01 0.01 0.01 0.01 0.02 0.02 0.01 0.01 0.02 0.02 0.02 0.02 0.02 0.01 0.00
0.00 0.00 0.00 0.00 0.00 0.00 0.01 0.01 0.01 0.02 0.03 0.02 0.02 0.02 0.01 0.02 0.03 0.03 0.02 0.02 0.02 0.02 0.03 0.04 0.03 0.00 0.00 0.00 0.01 0.01 0.02 0.01 0.00 0.01 0.01 0.02 0.04 0.02 0.01 0.01 0.01 0.00 0.01 0.01 0.01 0.01 0.01 0.00 0.01 0.01 0.00 0.00 0.00 0.00
0.00 0.00 0.00 0.00 0.00 0.00 0.01 0.01 0.02 0.02 0.02 0.01 0.02 0.03 0.01 0.01 0.02 0.02 0.02 0.02 0.02 0.02 0.03 0.04 0.05 0.02 0.01 0.02 0.03 0.03 0.04 0.02 0.01 0.01 0.02 0.03 0.05 0.07 0.05 0.02 0.01 0.01 0.00 0.00 0.00 0.00 0.00 0.00 0.00 0.00 0.00 0.00 0.00 0.00
0.00 0.00 0.00 0.00 0.01 0.02 0.02 0.01 0.01 0.01 0.00 0.00 0.00 0.01 0.01 0.02 0.03 0.03 0.02 0.02 0.03 0.04 0.04 0.03 0.04 0.03 0.03 0.03 0.04 0.08 0.10 0.07 0.04 0.04 0.03 0.02 0.02 0.03 0.03 0.02 0.01 0.01 0.01 0.00 0.01 0.01 0.00 0.00 0.00 0.00 0.00 0.00 0.00 0.00
0.00 0.00 0.00 0.01 0.02 0.02 0.02 0.02 0.02 0.01 0.00 0.01 0.01 0.01 0.02 0.03 0.04 0.03 0.02 0.03 0.03 0.05 0.05 0.04 0.04 0.05 0.05 0.04 0.03 0.03 0.05 0.04 0.02 0.01 0.01 0.00 0.01 0.01 0.02 0.02 0.02 0.01 0.00 0.00 0.00 0.00 0.00 0.00 0.00 0.00 0.00 0.00 0.00 0.00
0.02 0.02 0.02 0.02 0.03 0.02 0.03 0.03 0.03 0.02 0.01 0.02 0.02 0.02 0.03 0.02 0.04 0.04 0.03 0.03 0.05 0.07 0.09 0.10 0.08 0.11 0.11 0.10 0.09 0.07 0.04 0.03 0.03 0.03 0.02 0.01 0.01 0.01 0.01 0.01 0.01 0.00 0.00 0.00 0.00 0.00 0.00 0.00 0.00 0.00 0.00 0.00 0.00 0.00
0.04 0.05 0.05 0.04 0.03 0.04 0.04 0.06 0.03 0.02 0.03 0.03 0.05 0.06 0.06 0.05 0.06 0.05 0.03 0.04 0.07 0.11 0.12 0.12 0.12 0.11 0.13 0.14 0.13 0.11 0.08 0.07 0.06 0.05 0.04 0.02 0.01 0.01 0.01 0.01 0.00 0.00 0.00 0.00 0.00 0.00 0.00 0.00 0.00 0.00 0.00 0.00 0.00 0.00

GFSWCAN_prec_precacc24_141.txt.gz
Total_Precipitation_Accumulation
0.36 0.32 0.29 0.26 0.36 0.66 1.07 0.87 0.52 0.44 0.42 0.40 0.39 0.35 0.35 0.52 0.54 0.34 0.14 0.04 0.38 0.55 0.13 0.03 0.01 0.03 0.02 0.02 0.02 0.01 0.04 0.03 0.03 0.07 0.07 0.02 0.00 0.00 0.02 0.03 0.01 0.02 0.03 0.05 0.07 0.16 0.12 0.04 0.13 0.14 0.05 0.00 0.00 0.00
0.41 0.38 0.31 0.29 0.44 0.65 0.77 0.80 0.53 0.42 0.41 0.35 0.26 0.27 0.45 0.50 0.53 0.44 0.31 0.06 0.12 0.40 0.28 0.06 0.01 0.00 0.01 0.02 0.03 0.03 0.02 0.01 0.03 0.02 0.01 0.00 0.00 0.00 0.02 0.08 0.06 0.07 0.02 0.04 0.04 0.07 0.05 0.08 0.12 0.07 0.02 0.02 0.01 0.00
0.40 0.37 0.27 0.29 0.54 0.65 0.74 0.80 0.54 0.42 0.34 0.26 0.19 0.23 0.34 0.45 0.53 0.54 0.40 0.17 0.23 0.33 0.33 0.11 0.05 0.01 0.01 0.01 0.03 0.07 0.04 0.01 0.01 0.06 0.17 0.12 0.05 0.01 0.01 0.05 0.11 0.11 0.02 0.04 0.09 0.08 0.06 0.11 0.13 0.10 0.07 0.05 0.02 0.01
0.31 0.27 0.28 0.41 0.66 0.70 0.74 0.78 0.57 0.47 0.30 0.26 0.16 0.16 0.27 0.40 0.47 0.51 0.58 0.24 0.17 0.26 0.30 0.20 0.03 0.02 0.01 0.00 0.00 0.00 0.01 0.02 0.02 0.03 0.10 0.11 0.05 0.03 0.04 0.04 0.03 0.05 0.07 0.06 0.10 0.09 0.08 0.12 0.12 0.11 0.08 0.05 0.03 0.02
0.24 0.37 0.41 0.48 0.68 0.81 0.75 0.80 0.54 0.39 0.33 0.27 0.17 0.19 0.28 0.41 0.41 0.59 0.65 0.28 0.13 0.12 0.20 0.17 0.03 0.04 0.03 0.01 0.00 0.00 0.01 0.02 0.04 0.10 0.12 0.06 0.01 0.03 0.03 0.04 0.02 0.00 0.02 0.05 0.07 0.03 0.06 0.08 0.11 0.09 0.07 0.06 0.03 0.03
0.34 0.36 0.33 0.53 0.76 0.75 0.70 0.78 0.54 0.51 0.47 0.31 0.20 0.22 0.31 0.40 0.50 0.84 1.34 0.64 0.17 0.15 0.16 0.28 0.16 0.03 0.05 0.04 0.02 0.01 0.01 0.03 0.10 0.12 0.08 0.03 0.01 0.06 0.11 0.03 0.01 0.00 0.00 0.00 0.01 0.02 0.03 0.06 0.07 0.06 0.05 0.03 0.01 0.01
0.25 0.26 0.41 0.62 0.73 0.70 0.80 0.73 0.62 0.60 0.45 0.35 0.24 0.22 0.27 0.37 0.52 0.72 0.77 0.49 0.16 0.19 0.27 0.22 0.18 0.08 0.03 0.05 0.07 0.03 0.01 0.03 0.07 0.10 0.09 0.02 0.01 0.06 0.10 0.01 0.00 0.00 0.00 0.00 0.00 0.01 0.05 0.05 0.04 0.01 0.00 0.00 0.00 0.00
0.31 0.40 0.52 0.57 0.50 0.80 0.90 0.71 0.77 0.61 0.37 0.24 0.23 0.26 0.34 0.44 0.49 0.48 0.19 0.07 0.07 0.20 0.26 0.31 0.26 0.15 0.11 0.08 0.12 0.07 0.05 0.05 0.09 0.10 0.06 0.02 0.02 0.09 0.10 0.00 0.00 0.00 0.00 0.00 0.00 0.00 0.00 0.00 0.00 0.00 0.00 0.00 0.00 0.00
0.43 0.45 0.40 0.39 0.68 0.86 0.66 0.78 0.87 0.51 0.33 0.26 0.37 0.46 0.58 0.71 0.73 0.52 0.16 0.16 0.08 0.21 0.23 0.16 0.18 0.12 0.08 0.06 0.04 0.12 0.11 0.14 0.08 0.08 0.03 0.03 0.04 0.03 0.01 0.00 0.00 0.00 0.00 0.00 0.00 0.00 0.00 0.00 0.00 0.00 0.01 0.00 0.00 0.00
0.24 0.28 0.45 0.82 0.96 0.74 0.61 0.58 0.54 0.37 0.28 0.36 0.60 0.96 1.25 0.62 0.24 0.37 0.64 1.01 0.72 0.29 0.15 0.04 0.01 0.04 0.05 0.07 0.09 0.10 0.12 0.07 0.09 0.03 0.02 0.06 0.03 0.00 0.00 0.00 0.00 0.00 0.00 0.00 0.00 0.00 0.00 0.00 0.00 0.00 0.00 0.00 0.00 0.00
0.32 0.40 0.54 0.62 0.59 0.49 0.43 0.37 0.28 0.29 0.47 0.94 1.11 0.75 0.43 0.18 0.28 0.51 0.85 1.00 0.61 0.38 0.14 0.03 0.00 0.01 0.01 0.08 0.05 0.05 0.11 0.07 0.05 0.02 0.02 0.02 0.01 0.00 0.00 0.00 0.00 0.00 0.00 0.00 0.00 0.00 0.00 0.00 0.00 0.00 0.00 0.00 0.00 0.00
0.57 0.54 0.51 0.44 0.33 0.24 0.19 0.20 0.22 0.50 0.79 0.56 0.31 0.34 0.25 0.28 0.33 0.29 0.31 0.33 0.27 0.09 0.06 0.02 0.01 0.01 0.03 0.09 0.13 0.12 0.07 0.06 0.06 0.01 0.02 0.02 0.02 0.00 0.00 0.00 0.00 0.00 0.00 0.00 0.00 0.00 0.00 0.00 0.00 0.00 0.00 0.00 0.00 0.00
0.33 0.31 0.23 0.18 0.18 0.17 0.16 0.18 0.25 0.24 0.10 0.07 0.11 0.17 0.18 0.20 0.14 0.13 0.09 0.08 0.16 0.03 0.01 0.01 0.02 0.02 0.01 0.03 0.12 0.20 0.09 0.03 0.01 0.02 0.01 0.02 0.00 0.00 0.00 0.00 0.00 0.00 0.00 0.00 0.00 0.00 0.00 0.00 0.00 0.00 0.00 0.00 0.00 0.00
0.11 0.09 0.11 0.17 0.29 0.25 0.19 0.15 0.06 0.02 0.01 0.03 0.11 0.08 0.05 0.05 0.04 0.03 0.00 0.00 0.00 0.01 0.01 0.01 0.00 0.00 0.01 0.01 0.02 0.03 0.03 0.01 0.02 0.01 0.03 0.01 0.00 0.00 0.00 0.00 0.00 0.00 0.00 0.00 0.00 0.00 0.00 0.00 0.00 0.00 0.00 0.00 0.00 0.00
0.04 0.06 0.12 0.20 0.16 0.10 0.04 0.01 0.00 0.00 0.00 0.02 0.03 0.01 0.03 0.05 0.04 0.01 0.01 0.01 0.02 0.01 0.00 0.00 0.00 0.00 0.01 0.01 0.01 0.00 0.01 0.00 0.00 0.02 0.02 0.00 0.00 0.00 0.00 0.00 0.00 0.00 0.00 0.00 0.00 0.00 0.00 0.00 0.00 0.00 0.00 0.00 0.00 0.00
0.01 0.02 0.03 0.02 0.02 0.02 0.01 0.00 0.00 0.00 0.02 0.01 0.05 0.08 0.09 0.07 0.08 0.06 0.03 0.02 0.02 0.01 0.00 0.00 0.01 0.02 0.02 0.00 0.00 0.00 0.00 0.01 0.01 0.00 0.00 0.00 0.00 0.00 0.00 0.00 0.00 0.00 0.00 0.00 0.00 0.00 0.00 0.00 0.00 0.00 0.00 0.00 0.00 0.00
0.00 0.02 0.01 0.00 0.00 0.00 0.00 0.00 0.01 0.01 0.07 0.06 0.09 0.10 0.11 0.11 0.14 0.08 0.02 0.01 0.01 0.01 0.00 0.00 0.00 0.00 0.00 0.00 0.00 0.00 0.01 0.01 0.00 0.01 0.00 0.00 0.00 0.00 0.00 0.00 0.00 0.00 0.00 0.00 0.00 0.00 0.00 0.00 0.00 0.00 0.00 0.00 0.00 0.00
0.00 0.00 0.00 0.00 0.00 0.00 0.01 0.02 0.03 0.01 0.08 0.13 0.19 0.17 0.11 0.14 0.10 0.04 0.00 0.01 0.02 0.00 0.00 0.00 0.00 0.00 0.00 0.01 0.01 0.01 0.01 0.01 0.01 0.01 0.01 0.00 0.00 0.00 0.00 0.00 0.00 0.00 0.00 0.00 0.00 0.00 0.00 0.00 0.00 0.00 0.00 0.00 0.00 0.00
0.00 0.00 0.00 0.00 0.00 0.01 0.02 0.03 0.02 0.06 0.15 0.20 0.27 0.17 0.13 0.16 0.05 0.02 0.00 0.00 0.01 0.01 0.00 0.00 0.00 0.01 0.01 0.01 0.00 0.00 0.00 0.00 0.02 0.02 0.02 0.00 0.00 0.00 0.00 0.00 0.00 0.00 0.00 0.00 0.00 0.00 0.00 0.00 0.00 0.00 0.00 0.00 0.00 0.00
0.00 0.00 0.00 0.00 0.00 0.00 0.00 0.01 0.01 0.04 0.15 0.26 0.23 0.10 0.09 0.11 0.05 0.02 0.02 0.02 0.02 0.02 0.02 0.01 0.02 0.01 0.00 0.00 0.00 0.00 0.00 0.00 0.01 0.02 0.03 0.02 0.01 0.00 0.00 0.00 0.00 0.00 0.00 0.00 0.00 0.01 0.00 0.00 0.00 0.00 0.00 0.00 0.01 0.01
0.00 0.00 0.00 0.00 0.00 0.00 0.00 0.00 0.01 0.04 0.14 0.28 0.19 0.05 0.08 0.03 0.04 0.02 0.04 0.03 0.03 0.04 0.04 0.03 0.02 0.00 0.00 0.00 0.00 0.00 0.00 0.00 0.00 0.00 0.01 0.02 0.01 0.00 0.00 0.00 0.00 0.00 0.00 0.00 0.00 0.01 0.00 0.00 0.00 0.00 0.00 0.01 0.01 0.01
0.00 0.00 0.00 0.00 0.00 0.00 0.00 0.00 0.00 0.00 0.06 0.13 0.03 0.03 0.05 0.05 0.05 0.01 0.00 0.01 0.05 0.06 0.02 0.01 0.00 0.00 0.00 0.00 0.00 0.00 0.00 0.00 0.00 0.00 0.00 0.00 0.01 0.01 0.01 0.00 0.00 0.00 0.00 0.00 0.00 0.00 0.00 0.00 0.00 0.00 0.02 0.01 0.01 0.02
0.00 0.00 0.00 0.00 0.00 0.00 0.01 0.00 0.00 0.01 0.03 0.03 0.02 0.03 0.02 0.01 0.02 0.00 0.01 0.03 0.09 0.08 0.00 0.00 0.00 0.00 0.00 0.00 0.00 0.00 0.00 0.00 0.00 0.00 0.00 0.00 0.00 0.00 0.00 0.00 0.00 0.00 0.00 0.00 0.00 0.01 0.03 0.01 0.01 0.01 0.01 0.01 0.02 0.02
0.00 0.00 0.00 0.00 0.00 0.00 0.01 0.00 0.01 0.00 0.01 0.00 0.00 0.01 0.01 0.00 0.00 0.00 0.02 0.04 0.08 0.09 0.01 0.00 0.00 0.00 0.00 0.00 0.00 0.00 0.00 0.00 0.00 0.00 0.00 0.00 0.01 0.02 0.00 0.00 0.00 0.00 0.00 0.00 0.01 0.02 0.01 0.02 0.01 0.01 0.02 0.02 0.02 0.02
0.00 0.00 0.00 0.00 0.00 0.00 0.00 0.00 0.01 0.00 0.01 0.01 0.01 0.00 0.00 0.00 0.00 0.01 0.01 0.05 0.05 0.06 0.05 0.00 0.00 0.00 0.00 0.00 0.00 0.00 0.00 0.00 0.00 0.01 0.02 0.00 0.00 0.02 0.04 0.03 0.03 0.03 0.01 0.01 0.02 0.02 0.03 0.03 0.04 0.03 0.03 0.03 0.03 0.03
0.00 0.00 0.00 0.00 0.00 0.01 0.00 0.00 0.01 0.01 0.01 0.02 0.01 0.00 0.00 0.00 0.00 0.02 0.03 0.05 0.04 0.05 0.06 0.05 0.02 0.00 0.00 0.00 0.00 0.00 0.00 0.00 0.00 0.00 0.03 0.01 0.00 0.00 0.01 0.02 0.03 0.06 0.04 0.01 0.01 0.01 0.03 0.03 0.03 0.03 0.04 0.04 0.03 0.02
0.00 0.00 0.00 0.00 0.00 0.00 0.01 0.00 0.00 0.00 0.01 0.03 0.02 0.00 0.00 0.01 0.02 0.03 0.03 0.04 0.04 0.04 0.05 0.05 0.04 0.01 0.00 0.00 0.00 0.01 0.00 0.00 0.00 0.00 0.02 0.02 0.01 0.01 0.01 0.01 0.01 0.01 0.02 0.02 0.02 0.01 0.01 0.02 0.02 0.02 0.02 0.02 0.02 0.01
0.00 0.00 0.00 0.00 0.00 0.00 0.00 0.01 0.01 0.02 0.03 0.02 0.02 0.02 0.01 0.02 0.03 0.03 0.03 0.03 0.02 0.02 0.03 0.05 0.05 0.01 0.00 0.00 0.01 0.01 0.02 0.01 0.00 0.01 0.01 0.02 0.04 0.02 0.01 0.01 0.01 0.00 0.02 0.02 0.02 0.01 0.01 0.00 0.01 0.01 0.01 0.01 0.01 0.00
0.00 0.00 0.00 0.00 0.00 0.00 0.01 0.01 0.02 0.03 0.03 0.01 0.02 0.03 0.01 0.01 0.03 0.02 0.03 0.02 0.02 0.02 0.03 0.05 0.07 0.03 0.02 0.02 0.03 0.03 0.04 0.03 0.01 0.01 0.01 0.03 0.05 0.08 0.05 0.02 0.02 0.01 0.00 0.01 0.01 0.00 0.00 0.00 0.00 0.00 0.00 0.00 0.00 0.00
0.00 0.00 0.00 0.00 0.00 0.01 0.03 0.02 0.02 0.02 0.01 0.01 0.00 0.01 0.01 0.02 0.03 0.03 0.02 0.02 0.04 0.05 0.04 0.04 0.04 0.03 0.03 0.03 0.04 0.08 0.10 0.07 0.04 0.04 0.03 0.02 0.02 0.03 0.03 0.03 0.02 0.01 0.01 0.00 0.01 0.01 0.00 0.00 0.00 0.00 0.00 0.00 0.00 0.00
0.00 0.00 0.00 0.01 0.02 0.02 0.02 0.02 0.01 0.00 0.00 0.00 0.00 0.01 0.02 0.03 0.04 0.03 0.02 0.03 0.03 0.05 0.05 0.04 0.04 0.05 0.04 0.03 0.03 0.03 0.05 0.05 0.02 0.01 0.01 0.00 0.01 0.01 0.02 0.02 0.02 0.01 0.00 0.00 0.00 0.00 0.00 0.00 0.00 0.00 0.00 0.00 0.00 0.00
0.01 0.02 0.02 0.03 0.03 0.01 0.01 0.01 0.01 0.01 0.01 0.01 0.02 0.02 0.03 0.02 0.04 0.04 0.03 0.03 0.04 0.06 0.09 0.10 0.08 0.10 0.09 0.07 0.07 0.06 0.03 0.03 0.03 0.03 0.02 0.01 0.01 0.01 0.01 0.01 0.01 0.00 0.00 0.00 0.00 0.00 0.00 0.00 0.00 0.00 0.00 0.00 0.00 0.00
0.03 0.03 0.03 0.03 0.03 0.03 0.03 0.04 0.02 0.02 0.03 0.03 0.05 0.06 0.06 0.05 0.06 0.05 0.03 0.04 0.06 0.10 0.11 0.12 0.12 0.10 0.12 0.14 0.13 0.11 0.08 0.07 0.06 0.06 0.04 0.02 0.02 0.01 0.01 0.01 0.00 0.00 0.00 0.00 0.00 0.00 0.00 0.00 0.00 0.00 0.00 0.00 0.00 0.00

GFSWCAN_prec_precacc24_144.txt.gz
Total_Precipitation_Accumulation
0.27 0.23 0.19 0.20 0.37 0.71 1.38 0.99 0.31 0.22 0.27 0.24 0.28 0.31 0.39 0.56 0.57 0.38 0.17 0.04 0.41 0.61 0.15 0.03 0.01 0.03 0.02 0.02 0.02 0.01 0.05 0.03 0.03 0.08 0.07 0.02 0.00 0.00 0.01 0.03 0.01 0.02 0.03 0.05 0.07 0.15 0.10 0.01 0.05 0.09 0.06 0.00 0.00 0.00
0.36 0.28 0.20 0.20 0.43 0.71 0.99 1.18 0.49 0.28 0.28 0.25 0.27 0.33 0.52 0.56 0.57 0.48 0.36 0.06 0.12 0.42 0.33 0.06 0.01 0.00 0.01 0.02 0.03 0.03 0.03 0.01 0.03 0.03 0.01 0.01 0.01 0.01 0.02 0.05 0.05 0.07 0.02 0.04 0.03 0.04 0.01 0.02 0.05 0.04 0.02 0.01 0.01 0.00
0.35 0.26 0.19 0.23 0.52 0.75 0.95 1.08 0.63 0.36 0.27 0.22 0.20 0.31 0.41 0.48 0.54 0.54 0.42 0.18 0.23 0.34 0.33 0.12 0.05 0.01 0.01 0.01 0.03 0.07 0.05 0.03 0.03 0.08 0.18 0.14 0.07 0.02 0.02 0.04 0.10 0.11 0.02 0.03 0.06 0.03 0.01 0.05 0.09 0.09 0.06 0.05 0.02 0.01
0.24 0.19 0.23 0.37 0.63 0.75 0.89 0.88 0.63 0.47 0.30 0.26 0.17 0.17 0.30 0.42 0.49 0.51 0.58 0.25 0.19 0.27 0.31 0.20 0.03 0.02 0.01 0.00 0.01 0.00 0.01 0.02 0.03 0.05 0.13 0.13 0.07 0.04 0.04 0.04 0.03 0.05 0.07 0.06 0.06 0.03 0.03 0.07 0.09 0.10 0.08 0.05 0.03 0.02
0.18 0.30 0.36 0.45 0.65 0.79 0.80 0.86 0.58 0.42 0.34 0.28 0.18 0.20 0.29 0.42 0.43 0.61 0.66 0.28 0.14 0.15 0.25 0.17 0.03 0.04 0.03 0.01 0.00 0.00 0.01 0.04 0.08 0.13 0.14 0.07 0.03 0.04 0.04 0.04 0.02 0.00 0.01 0.05 0.06 0.01 0.03 0.05 0.08 0.09 0.07 0.06 0.03 0.03
0.28 0.32 0.31 0.51 0.73 0.74 0.71 0.80 0.57 0.53 0.47 0.31 0.20 0.22 0.32 0.41 0.52 0.85 1.35 0.65 0.18 0.24 0.27 0.30 0.16 0.03 0.05 0.04 0.02 0.01 0.01 0.04 0.14 0.17 0.11 0.05 0.02 0.07 0.12 0.03 0.00 0.00 0.00 0.00 0.01 0.01 0.02 0.04 0.06 0.06 0.05 0.03 0.01 0.01
0.22 0.26 0.40 0.61 0.73 0.70 0.80 0.74 0.63 0.61 0.46 0.35 0.25 0.22 0.28 0.38 0.53 0.72 0.76 0.49 0.16 0.26 0.41 0.26 0.16 0.08 0.03 0.05 0.07 0.03 0.01 0.04 0.09 0.13 0.10 0.03 0.02 0.08 0.11 0.01 0.00 0.00 0.00 0.00 0.00 0.01 0.04 0.04 0.04 0.01 0.00 0.00 0.00 0.00
0.28 0.40 0.52 0.57 0.51 0.80 0.91 0.73 0.78 0.62 0.37 0.25 0.24 0.26 0.36 0.47 0.51 0.49 0.19 0.08 0.08 0.26 0.33 0.33 0.24 0.14 0.11 0.08 0.12 0.07 0.06 0.07 0.11 0.11 0.07 0.03 0.03 0.10 0.11 0.00 0.00 0.00 0.00 0.00 0.00 0.00 0.00 0.00 0.00 0.00 0.00 0.00 0.00 0.00
0.42 0.46 0.41 0.40 0.69 0.86 0.66 0.79 0.89 0.51 0.34 0.27 0.39 0.50 0.66 0.78 0.74 0.53 0.17 0.24 0.14 0.22 0.26 0.17 0.18 0.12 0.08 0.07 0.05 0.13 0.17 0.21 0.10 0.09 0.03 0.03 0.05 0.04 0.01 0.00 0.00 0.00 0.00 0.00 0.00 0.00 0.00 0.00 0.00 0.00 0.01 0.00 0.00 0.00
0.23 0.28 0.45 0.82 0.97 0.75 0.61 0.59 0.56 0.38 0.30 0.43 0.71 1.04 1.34 0.68 0.24 0.44 0.79 1.26 0.92 0.34 0.16 0.04 0.01 0.04 0.06 0.07 0.09 0.10 0.14 0.11 0.13 0.04 0.03 0.07 0.03 0.00 0.00 0.00 0.00 0.00 0.00 0.00 0.00 0.00 0.00 0.00 0.00 0.00 0.00 0.00 0.00 0.00
0.32 0.40 0.54 0.61 0.59 0.50 0.44 0.38 0.31 0.33 0.54 1.05 1.33 0.80 0.47 0.20 0.32 0.68 1.02 1.12 0.69 0.43 0.15 0.03 0.00 0.01 0.02 0.09 0.08 0.09 0.15 0.12 0.07 0.02 0.04 0.03 0.01 0.00 0.00 0.00 0.00 0.00 0.00 0.00 0.00 0.00 0.00 0.00 0.00 0.00 0.00 0.00 0.00 0.00
0.58 0.55 0.52 0.45 0.33 0.24 0.20 0.23 0.27 0.58 0.86 0.64 0.35 0.37 0.29 0.31 0.42 0.42 0.36 0.34 0.27 0.10 0.06 0.02 0.01 0.01 0.03 0.10 0.15 0.15 0.10 0.09 0.10 0.03 0.06 0.02 0.02 0.00 0.00 0.00 0.00 0.00 0.00 0.00 0.00 0.00 0.00 0.00 0.00 0.00 0.00 0.00 0.00 0.00
0.41 0.35 0.25 0.19 0.19 0.18 0.17 0.21 0.26 0.25 0.11 0.09 0.12 0.19 0.19 0.21 0.17 0.16 0.11 0.08 0.16 0.03 0.01 0.01 0.02 0.03 0.02 0.03 0.13 0.24 0.21 0.11 0.02 0.02 0.02 0.02 0.00 0.00 0.00 0.00 0.00 0.00 0.00 0.00 0.00 0.00 0.00 0.00 0.00 0.00 0.00 0.00 0.00 0.00
0.16 0.14 0.16 0.21 0.30 0.26 0.20 0.17 0.07 0.05 0.02 0.05 0.13 0.09 0.06 0.05 0.04 0.03 0.00 0.00 0.00 0.01 0.01 0.01 0.01 0.02 0.02 0.02 0.04 0.06 0.07 0.05 0.05 0.02 0.03 0.01 0.00 0.00 0.00 0.00 0.00 0.00 0.00 0.00 0.00 0.00 0.00 0.00 0.00 0.00 0.00 0.00 0.00 0.00
0.07 0.09 0.20 0.25 0.18 0.11 0.06 0.02 0.01 0.00 0.02 0.04 0.07 0.02 0.03 0.04 0.03 0.01 0.01 0.01 0.02 0.01 0.00 0.01 0.05 0.04 0.04 0.04 0.01 0.02 0.01 0.01 0.00 0.02 0.02 0.00 0.00 0.00 0.00 0.00 0.00 0.00 0.00 0.00 0.00 0.00 0.00 0.00 0.00 0.00 0.00 0.00 0.00 0.00
0.03 0.06 0.06 0.04 0.04 0.03 0.01 0.01 0.02 0.03 0.05 0.04 0.06 0.08 0.08 0.06 0.07 0.05 0.02 0.02 0.02 0.01 0.01 0.02 0.07 0.06 0.05 0.02 0.00 0.00 0.00 0.01 0.01 0.00 0.00 0.00 0.00 0.00 0.00 0.00 0.00 0.00 0.00 0.00 0.00 0.00 0.00 0.00 0.00 0.00 0.00 0.00 0.00 0.00
0.01 0.02 0.02 0.01 0.01 0.02 0.02 0.03 0.05 0.05 0.12 0.10 0.12 0.10 0.10 0.10 0.13 0.07 0.02 0.01 0.01 0.01 0.00 0.01 0.02 0.01 0.00 0.00 0.00 0.00 0.01 0.01 0.00 0.00 0.00 0.00 0.00 0.00 0.00 0.00 0.00 0.00 0.00 0.00 0.00 0.00 0.00 0.00 0.00 0.00 0.00 0.00 0.00 0.00
0.00 0.01 0.01 0.01 0.02 0.04 0.04 0.03 0.06 0.05 0.14 0.21 0.25 0.17 0.10 0.14 0.09 0.03 0.00 0.01 0.02 0.00 0.00 0.00 0.00 0.00 0.00 0.01 0.01 0.01 0.01 0.01 0.01 0.01 0.01 0.00 0.00 0.00 0.00 0.00 0.00 0.00 0.00 0.00 0.00 0.00 0.00 0.00 0.00 0.00 0.00 0.00 0.00 0.00
0.00 0.00 0.00 0.00 0.01 0.02 0.05 0.05 0.07 0.14 0.16 0.21 0.27 0.18 0.13 0.15 0.04 0.01 0.00 0.01 0.01 0.01 0.01 0.01 0.01 0.01 0.02 0.01 0.00 0.00 0.00 0.00 0.02 0.02 0.02 0.01 0.00 0.00 0.00 0.00 0.00 0.00 0.00 0.00 0.00 0.00 0.00 0.00 0.00 0.00 0.00 0.00 0.00 0.00
0.00 0.00 0.00 0.00 0.00 0.01 0.06 0.12 0.05 0.10 0.18 0.28 0.24 0.11 0.10 0.13 0.06 0.02 0.03 0.03 0.06 0.08 0.06 0.03 0.03 0.01 0.00 0.00 0.00 0.00 0.00 0.00 0.01 0.03 0.05 0.04 0.01 0.00 0.00 0.00 0.00 0.00 0.00 0.00 0.00 0.01 0.00 0.00 0.00 0.00 0.00 0.00 0.01 0.01
0.00 0.00 0.00 0.00 0.01 0.02 0.08 0.10 0.09 0.08 0.19 0.33 0.24 0.08 0.12 0.07 0.10 0.11 0.16 0.13 0.12 0.11 0.06 0.03 0.02 0.01 0.00 0.00 0.00 0.00 0.00 0.00 0.01 0.01 0.01 0.03 0.01 0.00 0.00 0.00 0.00 0.00 0.00 0.00 0.00 0.01 0.01 0.00 0.00 0.00 0.01 0.01 0.01 0.01
0.00 0.00 0.01 0.02 0.03 0.02 0.03 0.04 0.05 0.03 0.09 0.18 0.10 0.06 0.10 0.11 0.10 0.07 0.08 0.06 0.09 0.08 0.02 0.01 0.00 0.00 0.00 0.00 0.00 0.00 0.00 0.00 0.00 0.01 0.00 0.00 0.01 0.01 0.01 0.00 0.00 0.00 0.00 0.01 0.01 0.01 0.01 0.01 0.00 0.00 0.02 0.01 0.01 0.02
0.00 0.00 0.01 0.01 0.01 0.01 0.02 0.02 0.04 0.03 0.10 0.07 0.04 0.04 0.05 0.05 0.05 0.01 0.03 0.04 0.10 0.08 0.00 0.00 0.00 0.00 0.00 0.00 0.00 0.00 0.00 0.00 0.00 0.00 0.00 0.00 0.00 0.01 0.01 0.01 0.00 0.01 0.01 0.00 0.00 0.01 0.03 0.01 0.01 0.01 0.01 0.01 0.02 0.02
0.00 0.00 0.00 0.00 0.00 0.00 0.00 0.00 0.01 0.01 0.03 0.01 0.01 0.03 0.02 0.01 0.00 0.00 0.02 0.04 0.09 0.10 0.01 0.00 0.00 0.00 0.00 0.00 0.00 0.00 0.00 0.00 0.00 0.01 0.01 0.00 0.01 0.03 0.01 0.00 0.00 0.01 0.00 0.00 0.01 0.02 0.01 0.02 0.01 0.01 0.02 0.02 0.02 0.02
0.00 0.00 0.00 0.00 0.00 0.00 0.00 0.00 0.00 0.00 0.02 0.02 0.01 0.01 0.01 0.00 0.00 0.01 0.02 0.06 0.05 0.06 0.05 0.01 0.00 0.00 0.00 0.00 0.00 0.00 0.00 0.00 0.00 0.01 0.03 0.00 0.01 0.03 0.04 0.03 0.03 0.03 0.01 0.01 0.03 0.02 0.03 0.03 0.04 0.04 0.03 0.03 0.03 0.03
0.00 0.00 0.00 0.00 0.00 0.00 0.00 0.00 0.00 0.01 0.01 0.01 0.01 0.00 0.00 0.00 0.00 0.02 0.03 0.05 0.04 0.05 0.07 0.05 0.02 0.00 0.00 0.00 0.00 0.00 0.00 0.00 0.00 0.00 0.03 0.02 0.00 0.00 0.01 0.02 0.03 0.06 0.04 0.01 0.01 0.02 0.03 0.03 0.03 0.03 0.04 0.04 0.03 0.02
0.00 0.00 0.00 0.00 0.00 0.00 0.01 0.00 0.00 0.00 0.01 0.03 0.02 0.00 0.00 0.01 0.02 0.03 0.03 0.04 0.04 0.04 0.05 0.06 0.04 0.01 0.00 0.00 0.00 0.00 0.00 0.00 0.00 0.00 0.02 0.02 0.01 0.01 0.01 0.01 0.01 0.01 0.02 0.02 0.02 0.01 0.01 0.02 0.02 0.02 0.02 0.03 0.03 0.02
0.00 0.00 0.00 0.00 0.00 0.00 0.01 0.01 0.01 0.02 0.03 0.02 0.02 0.02 0.01 0.02 0.03 0.04 0.03 0.03 0.02 0.02 0.03 0.05 0.05 0.02 0.00 0.00 0.01 0.01 0.02 0.01 0.01 0.01 0.01 0.02 0.04 0.02 0.01 0.01 0.01 0.00 0.02 0.02 0.02 0.01 0.01 0.01 0.01 0.01 0.01 0.01 0.01 0.01
0.00 0.00 0.00 0.00 0.00 0.00 0.01 0.02 0.03 0.03 0.03 0.02 0.02 0.03 0.01 0.02 0.03 0.03 0.03 0.02 0.02 0.02 0.03 0.05 0.07 0.03 0.02 0.02 0.03 0.03 0.04 0.02 0.01 0.01 0.01 0.03 0.04 0.07 0.05 0.03 0.02 0.01 0.01 0.01 0.01 0.00 0.00 0.00 0.00 0.00 0.00 0.00 0.01 0.00
0.00 0.00 0.00 0.00 0.00 0.02 0.03 0.02 0.03 0.03 0.01 0.01 0.00 0.01 0.01 0.03 0.03 0.03 0.02 0.02 0.04 0.05 0.04 0.04 0.04 0.04 0.03 0.03 0.04 0.09 0.09 0.07 0.04 0.04 0.03 0.02 0.02 0.03 0.04 0.03 0.02 0.02 0.01 0.00 0.01 0.02 0.01 0.00 0.00 0.00 0.00 0.00 0.00 0.00
0.00 0.00 0.00 0.01 0.02 0.03 0.02 0.01 0.01 0.01 0.00 0.00 0.00 0.01 0.02 0.03 0.04 0.03 0.02 0.02 0.03 0.05 0.05 0.05 0.04 0.04 0.03 0.03 0.03 0.03 0.05 0.04 0.02 0.01 0.01 0.00 0.01 0.02 0.03 0.02 0.02 0.01 0.00 0.00 0.00 0.00 0.00 0.00 0.00 0.00 0.00 0.00 0.00 0.00
0.01 0.01 0.02 0.02 0.03 0.02 0.01 0.01 0.01 0.01 0.01 0.01 0.02 0.02 0.03 0.02 0.04 0.04 0.02 0.02 0.04 0.06 0.08 0.10 0.08 0.10 0.08 0.06 0.05 0.04 0.02 0.03 0.03 0.03 0.02 0.01 0.01 0.01 0.01 0.01 0.01 0.01 0.00 0.00 0.00 0.00 0.00 0.00 0.00 0.00 0.00 0.00 0.00 0.00
0.02 0.01 0.02 0.02 0.02 0.03 0.03 0.03 0.02 0.02 0.03 0.03 0.05 0.06 0.06 0.04 0.06 0.05 0.03 0.03 0.05 0.09 0.10 0.11 0.11 0.09 0.11 0.12 0.11 0.09 0.08 0.07 0.07 0.06 0.04 0.02 0.02 0.01 0.02 0.02 0.01 0.00 0.00 0.00 0.00 0.00 0.00 0.00 0.00 0.00 0.00 0.00 0.00 0.00

GFSWCAN_prec_precacc24_147.txt.gz
Total_Precipitation_Accumulation
0.11 0.11 0.15 0.18 0.27 0.51 0.94 0.70 0.26 0.16 0.20 0.23 0.48 0.49 0.31 0.49 0.60 0.39 0.18 0.07 0.45 0.65 0.13 0.01 0.01 0.02 0.02 0.02 0.03 0.01 0.05 0.03 0.03 0.08 0.07 0.02 0.00 0.00 0.01 0.02 0.00 0.01 0.03 0.04 0.07 0.13 0.06 0.01 0.01 0.03 0.05 0.00 0.00 0.00
0.20 0.19 0.15 0.16 0.33 0.58 0.79 1.11 0.39 0.25 0.20 0.20 0.33 0.57 0.64 0.59 0.61 0.51 0.39 0.06 0.13 0.46 0.33 0.05 0.01 0.00 0.01 0.02 0.04 0.04 0.03 0.02 0.03 0.03 0.01 0.01 0.01 0.00 0.02 0.04 0.05 0.06 0.02 0.03 0.02 0.03 0.00 0.00 0.01 0.00 0.01 0.01 0.01 0.00
0.23 0.18 0.16 0.18 0.42 0.71 0.83 1.26 0.60 0.32 0.23 0.22 0.27 0.47 0.62 0.60 0.61 0.55 0.47 0.19 0.23 0.35 0.36 0.12 0.05 0.01 0.01 0.01 0.03 0.08 0.06 0.06 0.06 0.10 0.21 0.16 0.09 0.03 0.02 0.03 0.10 0.10 0.02 0.03 0.05 0.01 0.00 0.01 0.01 0.02 0.03 0.04 0.02 0.01
0.17 0.18 0.18 0.24 0.50 0.80 1.02 1.21 0.81 0.49 0.32 0.30 0.26 0.39 0.55 0.58 0.57 0.54 0.62 0.28 0.19 0.28 0.34 0.22 0.03 0.02 0.01 0.00 0.01 0.01 0.03 0.03 0.07 0.08 0.16 0.16 0.08 0.04 0.04 0.04 0.04 0.05 0.09 0.07 0.05 0.01 0.01 0.02 0.02 0.04 0.05 0.05 0.03 0.02
0.14 0.27 0.27 0.32 0.55 0.86 1.05 1.15 0.90 0.56 0.43 0.38 0.32 0.40 0.52 0.58 0.50 0.66 0.67 0.29 0.14 0.16 0.26 0.18 0.03 0.04 0.03 0.01 0.00 0.00 0.01 0.07 0.13 0.18 0.16 0.08 0.03 0.05 0.05 0.04 0.03 0.00 0.01 0.04 0.04 0.01 0.02 0.02 0.03 0.04 0.05 0.05 0.03 0.03
0.25 0.30 0.27 0.43 0.63 0.78 0.95 1.08 0.81 0.72 0.59 0.40 0.31 0.33 0.40 0.45 0.54 0.87 1.35 0.65 0.19 0.24 0.28 0.30 0.15 0.03 0.05 0.04 0.03 0.02 0.02 0.07 0.19 0.22 0.14 0.06 0.02 0.08 0.12 0.03 0.00 0.00 0.00 0.00 0.00 0.00 0.00 0.01 0.03 0.03 0.04 0.03 0.01 0.01
0.20 0.24 0.38 0.58 0.69 0.71 0.96 0.89 0.73 0.69 0.50 0.37 0.26 0.23 0.28 0.38 0.53 0.73 0.77 0.49 0.16 0.26 0.41 0.27 0.16 0.07 0.03 0.06 0.08 0.05 0.03 0.06 0.12 0.16 0.12 0.05 0.03 0.09 0.11 0.01 0.00 0.00 0.00 0.00 0.00 0.00 0.01 0.01 0.02 0.01 0.00 0.00 0.00 0.00
0.28 0.38 0.50 0.56 0.51 0.81 0.95 0.79 0.83 0.65 0.38 0.25 0.24 0.27 0.37 0.48 0.51 0.49 0.20 0.08 0.09 0.26 0.34 0.35 0.25 0.14 0.12 0.10 0.14 0.09 0.08 0.10 0.13 0.12 0.07 0.03 0.03 0.12 0.12 0.00 0.00 0.00 0.00 0.00 0.00 0.00 0.00 0.00 0.00 0.00 0.00 0.00 0.00 0.00
0.42 0.45 0.40 0.39 0.69 0.87 0.67 0.81 0.91 0.53 0.34 0.28 0.41 0.51 0.67 0.78 0.75 0.55 0.18 0.25 0.15 0.23 0.28 0.18 0.18 0.12 0.08 0.08 0.07 0.16 0.21 0.25 0.13 0.11 0.03 0.04 0.05 0.05 0.01 0.00 0.00 0.00 0.00 0.00 0.00 0.00 0.00 0.00 0.00 0.00 0.01 0.00 0.00 0.00
0.23 0.28 0.45 0.83 0.98 0.75 0.62 0.60 0.58 0.40 0.32 0.45 0.73 1.05 1.35 0.69 0.26 0.45 0.81 1.28 0.95 0.36 0.17 0.05 0.02 0.07 0.06 0.08 0.11 0.12 0.15 0.12 0.16 0.05 0.04 0.08 0.03 0.00 0.00 0.00 0.00 0.00 0.00 0.00 0.00 0.00 0.00 0.00 0.00 0.00 0.00 0.00 0.00 0.00
0.31 0.40 0.54 0.62 0.61 0.50 0.45 0.40 0.34 0.37 0.57 1.07 1.34 0.82 0.49 0.23 0.35 0.73 1.07 1.18 0.77 0.49 0.16 0.03 0.00 0.03 0.03 0.12 0.12 0.12 0.18 0.15 0.10 0.04 0.06 0.04 0.01 0.00 0.00 0.00 0.00 0.00 0.00 0.00 0.00 0.00 0.00 0.00 0.00 0.00 0.00 0.00 0.00 0.00
0.56 0.54 0.53 0.47 0.35 0.25 0.21 0.24 0.29 0.60 0.88 0.65 0.37 0.39 0.33 0.38 0.47 0.47 0.47 0.41 0.31 0.13 0.07 0.02 0.01 0.02 0.06 0.15 0.21 0.19 0.13 0.13 0.13 0.08 0.10 0.03 0.01 0.00 0.00 0.00 0.00 0.00 0.00 0.00 0.00 0.00 0.00 0.00 0.00 0.00 0.00 0.00 0.00 0.00
0.40 0.35 0.25 0.21 0.20 0.19 0.18 0.22 0.29 0.26 0.12 0.14 0.18 0.23 0.25 0.27 0.27 0.23 0.18 0.13 0.18 0.08 0.03 0.02 0.02 0.04 0.05 0.04 0.15 0.27 0.23 0.15 0.06 0.05 0.03 0.02 0.00 0.00 0.00 0.00 0.00 0.00 0.00 0.00 0.00 0.00 0.00 0.00 0.00 0.00 0.00 0.00 0.00 0.00
0.17 0.14 0.16 0.22 0.31 0.28 0.23 0.18 0.08 0.06 0.05 0.12 0.16 0.12 0.10 0.09 0.07 0.05 0.02 0.03 0.01 0.01 0.01 0.01 0.03 0.04 0.05 0.04 0.06 0.08 0.08 0.07 0.09 0.05 0.02 0.01 0.01 0.00 0.00 0.00 0.00 0.00 0.00 0.00 0.00 0.00 0.00 0.00 0.00 0.00 0.00 0.00 0.00 0.00
0.08 0.09 0.20 0.26 0.19 0.13 0.06 0.02 0.01 0.01 0.07 0.07 0.08 0.03 0.03 0.05 0.03 0.02 0.02 0.04 0.03 0.01 0.01 0.04 0.09 0.08 0.08 0.08 0.02 0.03 0.03 0.02 0.01 0.02 0.03 0.01 0.00 0.00 0.00 0.00 0.00 0.00 0.00 0.00 0.00 0.00 0.00 0.00 0.00 0.00 0.00 0.00 0.00 0.00
0.04 0.08 0.07 0.05 0.04 0.03 0.01 0.02 0.05 0.08 0.11 0.08 0.08 0.09 0.08 0.04 0.06 0.04 0.03 0.03 0.03 0.01 0.03 0.04 0.12 0.15 0.11 0.05 0.04 0.01 0.00 0.01 0.01 0.01 0.01 0.00 0.00 0.00 0.00 0.00 0.00 0.00 0.00 0.00 0.00 0.00 0.00 0.00 0.00 0.00 0.00 0.00 0.00 0.00
0.03 0.03 0.02 0.02 0.02 0.03 0.03 0.09 0.13 0.12 0.14 0.11 0.14 0.12 0.11 0.10 0.13 0.07 0.01 0.01 0.01 0.01 0.00 0.02 0.04 0.06 0.04 0.03 0.01 0.01 0.01 0.01 0.02 0.00 0.00 0.00 0.00 0.00 0.00 0.00 0.00 0.00 0.00 0.00 0.00 0.00 0.00 0.00 0.00 0.00 0.00 0.00 0.00 0.00
0.01 0.02 0.01 0.02 0.03 0.07 0.08 0.07 0.11 0.07 0.15 0.21 0.27 0.19 0.12 0.14 0.08 0.03 0.00 0.01 0.01 0.00 0.00 0.00 0.02 0.02 0.02 0.02 0.01 0.01 0.01 0.01 0.01 0.01 0.01 0.00 0.00 0.00 0.00 0.00 0.00 0.00 0.00 0.00 0.00 0.00 0.00 0.00 0.00 0.00 0.00 0.00 0.00 0.00
0.01 0.01 0.01 0.01 0.01 0.03 0.07 0.07 0.10 0.18 0.17 0.21 0.27 0.18 0.14 0.15 0.04 0.01 0.00 0.01 0.01 0.01 0.01 0.01 0.02 0.02 0.02 0.02 0.01 0.00 0.00 0.00 0.02 0.02 0.01 0.01 0.00 0.00 0.00 0.00 0.00 0.00 0.00 0.00 0.00 0.00 0.00 0.00 0.00 0.00 0.00 0.00 0.00 0.00
0.00 0.00 0.00 0.00 0.01 0.04 0.09 0.14 0.06 0.12 0.24 0.31 0.25 0.12 0.11 0.13 0.06 0.02 0.04 0.03 0.07 0.09 0.09 0.04 0.03 0.02 0.01 0.01 0.00 0.00 0.00 0.00 0.01 0.03 0.05 0.05 0.02 0.00 0.00 0.00 0.00 0.00 0.00 0.00 0.00 0.01 0.00 0.00 0.00 0.00 0.00 0.00 0.00 0.00
0.01 0.01 0.01 0.02 0.04 0.06 0.13 0.18 0.12 0.09 0.21 0.35 0.25 0.09 0.13 0.08 0.12 0.14 0.19 0.15 0.14 0.13 0.06 0.03 0.02 0.01 0.00 0.00 0.00 0.00 0.00 0.00 0.01 0.01 0.01 0.03 0.02 0.00 0.00 0.00 0.00 0.00 0.00 0.00 0.00 0.01 0.01 0.00 0.00 0.00 0.01 0.01 0.02 0.01
0.00 0.01 0.04 0.05 0.06 0.03 0.04 0.08 0.13 0.10 0.14 0.23 0.15 0.09 0.14 0.15 0.16 0.14 0.16 0.15 0.13 0.09 0.02 0.01 0.00 0.00 0.00 0.00 0.00 0.00 0.00 0.00 0.00 0.01 0.01 0.01 0.02 0.01 0.01 0.00 0.00 0.00 0.00 0.01 0.01 0.01 0.01 0.01 0.00 0.00 0.02 0.02 0.01 0.02
0.00 0.02 0.05 0.03 0.05 0.02 0.02 0.03 0.10 0.09 0.17 0.13 0.10 0.08 0.07 0.07 0.06 0.03 0.10 0.08 0.11 0.09 0.00 0.00 0.00 0.00 0.00 0.00 0.00 0.00 0.00 0.00 0.00 0.00 0.01 0.02 0.01 0.01 0.01 0.01 0.00 0.01 0.01 0.01 0.01 0.01 0.03 0.01 0.01 0.01 0.01 0.02 0.02 0.02
0.00 0.02 0.05 0.04 0.02 0.01 0.00 0.02 0.04 0.06 0.06 0.03 0.04 0.04 0.02 0.01 0.00 0.01 0.03 0.05 0.09 0.10 0.02 0.00 0.00 0.00 0.00 0.00 0.00 0.00 0.00 0.00 0.00 0.01 0.01 0.01 0.02 0.04 0.02 0.01 0.01 0.01 0.01 0.01 0.02 0.02 0.02 0.02 0.02 0.02 0.02 0.02 0.03 0.02
0.00 0.00 0.00 0.00 0.00 0.00 0.00 0.00 0.01 0.02 0.05 0.03 0.02 0.01 0.01 0.01 0.01 0.01 0.02 0.06 0.05 0.07 0.05 0.01 0.00 0.00 0.00 0.00 0.00 0.00 0.00 0.00 0.00 0.01 0.03 0.01 0.01 0.03 0.04 0.04 0.03 0.03 0.01 0.01 0.03 0.02 0.03 0.03 0.04 0.03 0.03 0.03 0.03 0.03
0.00 0.00 0.00 0.00 0.01 0.00 0.00 0.00 0.00 0.01 0.01 0.03 0.04 0.02 0.00 0.01 0.01 0.02 0.03 0.05 0.04 0.05 0.06 0.05 0.02 0.00 0.00 0.00 0.00 0.00 0.00 0.00 0.00 0.01 0.03 0.02 0.01 0.01 0.01 0.02 0.03 0.06 0.04 0.01 0.01 0.02 0.02 0.03 0.03 0.03 0.04 0.04 0.03 0.02
0.00 0.00 0.00 0.00 0.00 0.00 0.01 0.00 0.00 0.00 0.01 0.03 0.01 0.00 0.00 0.01 0.02 0.03 0.04 0.05 0.04 0.04 0.05 0.05 0.04 0.01 0.00 0.00 0.00 0.00 0.00 0.00 0.00 0.01 0.02 0.02 0.01 0.01 0.01 0.01 0.01 0.01 0.02 0.02 0.02 0.01 0.01 0.02 0.02 0.02 0.03 0.04 0.03 0.02
0.00 0.00 0.00 0.01 0.01 0.00 0.01 0.01 0.01 0.02 0.03 0.02 0.02 0.02 0.01 0.02 0.03 0.04 0.03 0.03 0.02 0.02 0.03 0.05 0.05 0.02 0.00 0.00 0.01 0.01 0.02 0.01 0.01 0.01 0.01 0.03 0.04 0.02 0.01 0.01 0.01 0.00 0.02 0.02 0.02 0.01 0.01 0.01 0.01 0.02 0.01 0.02 0.03 0.02
0.00 0.00 0.00 0.00 0.00 0.00 0.01 0.02 0.03 0.03 0.04 0.02 0.02 0.03 0.01 0.02 0.03 0.03 0.03 0.02 0.02 0.02 0.03 0.05 0.07 0.03 0.02 0.02 0.02 0.03 0.03 0.02 0.01 0.01 0.01 0.03 0.03 0.06 0.05 0.03 0.03 0.02 0.01 0.02 0.02 0.01 0.01 0.01 0.01 0.01 0.01 0.01 0.02 0.02
0.00 0.00 0.00 0.00 0.00 0.02 0.03 0.03 0.03 0.03 0.02 0.01 0.01 0.01 0.01 0.03 0.03 0.03 0.02 0.02 0.04 0.04 0.04 0.04 0.04 0.03 0.03 0.02 0.04 0.08 0.08 0.06 0.03 0.04 0.03 0.01 0.01 0.03 0.03 0.03 0.03 0.03 0.02 0.01 0.02 0.03 0.02 0.01 0.02 0.02 0.01 0.02 0.01 0.01
0.00 0.00 0.00 0.01 0.02 0.03 0.03 0.01 0.01 0.01 0.01 0.01 0.01 0.01 0.02 0.03 0.04 0.02 0.02 0.02 0.03 0.05 0.05 0.05 0.04 0.04 0.03 0.02 0.02 0.03 0.04 0.04 0.02 0.01 0.00 0.00 0.01 0.02 0.03 0.03 0.03 0.01 0.01 0.00 0.00 0.01 0.01 0.01 0.01 0.01 0.01 0.01 0.00 0.00
0.01 0.01 0.02 0.02 0.03 0.02 0.01 0.01 0.01 0.01 0.01 0.01 0.02 0.02 0.03 0.02 0.04 0.03 0.02 0.02 0.03 0.05 0.08 0.09 0.08 0.09 0.06 0.04 0.03 0.03 0.02 0.03 0.03 0.03 0.02 0.01 0.02 0.02 0.02 0.02 0.02 0.01 0.00 0.00 0.00 0.00 0.00 0.00 0.00 0.00 0.00 0.00 0.00 0.00
0.02 0.01 0.01 0.01 0.02 0.02 0.02 0.01 0.02 0.02 0.03 0.03 0.05 0.06 0.06 0.04 0.05 0.04 0.02 0.03 0.04 0.08 0.09 0.10 0.11 0.08 0.09 0.10 0.09 0.08 0.07 0.07 0.07 0.06 0.05 0.03 0.02 0.02 0.02 0.02 0.02 0.01 0.00 0.00 0.00 0.00 0.00 0.00 0.00 0.00 0.00 0.00 0.00 0.00